Date StartTime U_cm/s V_cm/s W_cm/s Ustd_cm/s Vstd_cm/s Wstd_cm/s Uvar_(cm/s)^2 Vvar_(cm/s)^2 Wvar_(cm/s)^2 KE_(m/s)^2 TurbulentKE_(m/s)^2 HorizWindSpeed_cm/s FrictionSpeec_cm/s DragCoef SpeedOfSound_m/s SonicTemperature_C Pressure_mb 
11/02/2013  00:00:00     -118.384      -38.522       -1.599       16.614       16.573        9.901      276.016      274.650       98.036        0.807        0.032      124.493        6.114        0.002      335.577        6.305      863.658
11/02/2013  00:01:00     -104.477      -18.387      -13.192       28.923       23.501       14.344      836.554      552.298      205.739        0.651        0.080      106.083       14.864        0.020      335.505        6.183      863.655
11/02/2013  00:02:00     -107.953      -12.140      -13.174       16.775       16.739       13.183      281.395      280.202      173.779        0.635        0.037      108.633       11.090        0.010      335.514        6.199      863.650
11/02/2013  00:03:00     -116.835      -24.967      -20.004       12.035       10.150        9.054      144.834      103.020       81.981        0.750        0.016      119.473        5.018        0.002      335.570        6.293      863.640
11/02/2013  00:04:00     -103.174      -28.586      -15.675       13.134       11.565       11.952      172.489      133.739      142.842        0.608        0.022      107.061        9.882        0.009      335.546        6.252      863.633
11/02/2013  00:05:00      -90.291      -23.557      -10.629       12.682       12.327       11.485      160.823      151.963      131.899        0.463        0.022       93.313        8.766        0.009      335.541        6.244      863.632
11/02/2013  00:06:00      -84.332      -19.089      -12.078        7.921        6.746        8.572       62.743       45.504       73.474        0.390        0.009       86.465        3.861        0.002      335.591        6.328      863.640
11/02/2013  00:07:00      -70.547      -22.918      -13.043        7.977       10.100        6.714       63.628      102.003       45.083        0.294        0.011       74.176        3.559        0.002      335.589        6.324      863.642
11/02/2013  00:08:00      -73.144      -21.962      -14.599        7.541        6.531        4.378       56.869       42.649       19.170        0.308        0.006       76.370        2.890        0.001      335.606        6.351      863.637
11/02/2013  00:09:00      -71.773      -24.464      -14.759        8.492        5.834        6.692       72.116       34.037       44.782        0.306        0.008       75.828        4.243        0.003      335.601        6.344      863.622
11/02/2013  00:10:00      -55.047      -11.013      -12.144        6.575        7.053        5.369       43.227       49.742       28.829        0.171        0.006       56.137        3.683        0.004      335.613        6.365      863.604
11/02/2013  00:11:00      -28.634      -17.849        6.654       12.929        9.530       12.075      167.166       90.817      145.803        0.079        0.020       33.742        7.581        0.050      335.878        6.802      863.596
11/02/2013  00:12:00      -23.674       -2.856       -4.554       12.904        5.788        5.073      166.524       33.501       25.732        0.041        0.011       23.845        4.208        0.031      335.716        6.536      863.592
11/02/2013  00:13:00       35.110       14.613        6.448       18.177       11.367        9.520      330.402      129.204       90.636        0.102        0.028       38.029        9.736        0.066      336.219        7.373      863.584
11/02/2013  00:14:00       20.947      -17.530        4.229        9.266       10.663        9.100       85.866      113.702       82.803        0.052        0.014       27.315        4.747        0.030      336.057        7.103      863.571
11/02/2013  00:15:00       -7.984      -11.597        3.063       21.240        9.860        5.182      451.131       97.212       26.853        0.039        0.029       14.079        5.544        0.155      335.996        7.002      863.566
11/02/2013  00:16:00      -14.823      -18.759       -3.660        9.074        5.984        5.695       82.337       35.803       32.428        0.037        0.008       23.909        1.902        0.006      335.857        6.770      863.568
11/02/2013  00:17:00       -6.665      -14.369       -2.230        7.430        7.637        7.045       55.210       58.324       49.638        0.021        0.008       15.839        6.220        0.154      335.864        6.781      863.560
11/02/2013  00:18:00        0.924      -18.094       -3.284       11.426        5.504        5.482      130.547       30.291       30.056        0.026        0.010       18.118        4.009        0.049      335.923        6.880      863.564
11/02/2013  00:19:00      -11.820      -19.269        5.237       12.569        5.961        6.627      157.990       35.529       43.922        0.039        0.012       22.606        5.771        0.065      335.897        6.835      863.563
11/02/2013  00:20:00      -74.978       -3.838      -13.665       16.444        9.176        6.767      270.414       84.192       45.797        0.311        0.020       75.076        3.541        0.002      335.564        6.284      863.561
11/02/2013  00:21:00      -75.925      -12.561      -10.892       14.582       10.262        5.514      212.630      105.301       30.403        0.319        0.017       76.957        3.583        0.002      335.634        6.399      863.556
11/02/2013  00:22:00      -53.490      -19.765       -8.830        5.861        5.712        5.652       34.352       32.628       31.946        0.171        0.005       57.025        0.939        0.000      335.673        6.464      863.551
11/02/2013  00:23:00      -53.651      -28.916      -13.070        7.592        9.934        5.013       57.638       98.694       25.126        0.203        0.009       60.947        4.208        0.005      335.746        6.586      863.549
11/02/2013  00:24:00      -51.127      -28.068       -4.606        5.150        6.863        3.933       26.527       47.108       15.468        0.176        0.004       58.325        2.734        0.002      335.819        6.708      863.558
11/02/2013  00:25:00      -56.854      -24.449       -9.164        9.256        6.971        5.886       85.676       48.592       34.646        0.204        0.008       61.888        3.051        0.002      335.745        6.585      863.577
11/02/2013  00:26:00      -58.488      -12.936      -11.227        7.033       10.620        5.708       49.458      112.787       32.581        0.195        0.010       59.902        2.319        0.001      335.666        6.452      863.593
11/02/2013  00:27:00      -74.937       -0.595      -14.014        8.749        6.102        6.047       76.553       37.237       36.560        0.298        0.008       74.939        2.266        0.001      335.697        6.504      863.593
11/02/2013  00:28:00      -63.991      -12.147       -9.475        6.542        8.385        5.507       42.793       70.315       30.330        0.224        0.007       65.133        2.462        0.001      335.776        6.638      863.593
11/02/2013  00:29:00      -34.708      -28.273       -2.786       18.786       10.314        8.187      352.916      106.385       67.025        0.127        0.026       44.766        4.004        0.008      335.767        6.620      863.580
11/02/2013  00:30:00      -29.907      -28.150        3.302        9.899       10.081        9.732       97.999      101.629       94.718        0.100        0.015       41.071        5.107        0.015      335.764        6.615      863.573
11/02/2013  00:31:00      -27.360      -22.385        1.708       19.061       15.829       10.065      363.304      250.543      101.307        0.098        0.036       35.351       11.169        0.100      335.782        6.645      863.564
11/02/2013  00:32:00      -54.123      -29.958        3.053       32.367       22.366       14.338     1047.614      500.241      205.588        0.279        0.088       61.861       19.321        0.098      335.729        6.558      863.550
11/02/2013  00:33:00      -64.724      -37.041       -0.219       28.605       15.675       13.956      818.262      245.700      194.775        0.341        0.063       74.574       13.150        0.031      335.594        6.331      863.533
11/02/2013  00:34:00      -31.526      -19.151        5.625       33.104       19.211       16.611     1095.862      369.076      275.938        0.157        0.087       36.887       15.709        0.181      335.575        6.300      863.514
11/02/2013  00:35:00      -59.177      -45.939        3.295       45.401       33.012       22.742     2061.227     1089.812      517.190        0.465        0.183       74.915       22.321        0.089      335.486        6.151      863.501
11/02/2013  00:36:00     -120.727      -61.328      -13.706       36.697       39.318       19.508     1346.682     1545.903      380.554        1.090        0.164      135.411       17.508        0.017      335.510        6.192      863.500
11/02/2013  00:37:00      -79.562      -62.412       -4.553       30.023       20.737       15.368      901.387      430.041      236.180        0.591        0.078      101.121        7.799        0.006      335.510        6.191      863.500
11/02/2013  00:38:00      -52.544      -24.819       -0.476       24.804       15.355       12.927      615.244      235.782      167.115        0.220        0.051       58.111        6.632        0.013      335.433        6.063      863.494
11/02/2013  00:39:00      -62.641      -31.488       -3.551       17.680       15.236        7.512      312.600      232.124       56.425        0.276        0.030       70.110        4.073        0.003      335.474        6.132      863.501
11/02/2013  00:40:00      -96.637      -44.123       -2.355       38.871       28.733       15.834     1510.986      825.567      250.728        0.694        0.129      106.234       10.683        0.010      335.391        5.993      863.517
11/02/2013  00:41:00     -108.654      -60.017       -9.068       38.189       41.533       22.466     1458.408     1725.025      504.732        0.959        0.184      124.128       20.493        0.027      335.317        5.869      863.532
11/02/2013  00:42:00      -98.664      -77.564       -6.304       45.381       35.539       24.133     2059.408     1263.028      582.422        0.985        0.195      125.502       25.031        0.040      335.297        5.836      863.539
11/02/2013  00:43:00      -80.366      -46.906        2.135       30.082       21.754       15.256      904.931      473.245      232.741        0.514        0.081       93.052       16.218        0.030      335.209        5.691      863.535
11/02/2013  00:44:00      -72.791      -45.966       -1.734       21.790       19.824       12.388      474.825      392.988      153.453        0.422        0.051       86.089       10.682        0.015      335.246        5.750      863.542
11/02/2013  00:45:00      -27.560      -32.401       12.974       40.459       24.285       23.283     1636.933      589.764      542.120        0.237        0.138       42.537       22.303        0.275      335.289        5.823      863.542
11/02/2013  00:46:00      -15.623      -34.197        0.978       29.644       21.723       16.807      878.796      471.877      282.465        0.152        0.082       37.596        9.225        0.060      335.260        5.774      863.546
11/02/2013  00:47:00      -90.367      -66.840        3.818       55.990       28.883       21.937     3134.875      834.218      481.224        0.855        0.223      112.400       25.004        0.049      335.270        5.791      863.543
11/02/2013  00:48:00      -90.736      -56.198        4.692       54.491       35.775       25.768     2969.242     1279.826      664.013        0.816        0.246      106.730       25.644        0.058      335.189        5.657      863.538
11/02/2013  00:49:00      -52.652      -40.317        0.147       46.294       33.932       19.881     2143.110     1151.347      395.243        0.404        0.184       66.316       19.054        0.083      335.176        5.636      863.516
11/02/2013  00:50:00      -53.342      -54.923        1.513       35.802       22.169       17.832     1281.750      491.462      317.967        0.398        0.105       76.563       15.561        0.041      335.243        5.746      863.498
11/02/2013  00:51:00      -69.429      -51.980        0.614       44.756       35.565       23.536     2003.125     1264.864      553.964        0.567        0.191       86.731       24.866        0.082      335.244        5.749      863.481
11/02/2013  00:52:00      -96.114      -52.206        3.765       34.846       27.516       24.104     1214.269      757.122      580.992        0.726        0.128      109.377       21.816        0.040      335.147        5.587      863.490
11/02/2013  00:53:00      -61.351      -34.551        8.115       62.299       33.860       27.669     3881.209     1146.528      765.560        0.541        0.290       70.411       32.076        0.208      335.143        5.581      863.510
11/02/2013  00:54:00      -53.025      -37.531        6.979       49.665       31.362       23.966     2466.658      983.603      574.375        0.415        0.201       64.963       22.412        0.119      335.184        5.649      863.527
11/02/2013  00:55:00      -75.845      -42.708        9.569       48.494       39.046       27.799     2351.641     1524.584      772.802        0.616        0.232       87.042       30.074        0.119      335.158        5.606      863.538
11/02/2013  00:56:00      -75.204      -39.806        4.363       45.842       34.203       19.108     2101.505     1169.843      365.131        0.545        0.182       85.090       22.517        0.070      335.172        5.628      863.537
11/02/2013  00:57:00      -91.524      -45.677       -5.760       44.585       23.727       19.924     1987.806      562.958      396.966        0.672        0.147      102.289       21.929        0.046      335.140        5.576      863.536
11/02/2013  00:58:00     -107.873      -55.326       -2.047       30.459       31.432       18.649      927.769      988.001      347.792        0.848        0.113      121.234       17.806        0.022      335.134        5.565      863.552
11/02/2013  00:59:00     -125.807      -46.068       -2.600       26.392       30.051       16.921      696.546      903.044      286.309        0.992        0.094      133.977       14.759        0.012      335.098        5.507      863.563
11/02/2013  01:00:00     -124.919      -48.539       -3.080       32.384       24.660       18.743     1048.708      608.102      351.306        0.999        0.100      134.018       18.946        0.020      335.065        5.451      863.570
11/02/2013  01:01:00     -110.608      -50.753       -4.148       22.613       20.937       16.767      511.368      438.354      281.122        0.803        0.062      121.696       14.715        0.015      335.106        5.521      863.562
11/02/2013  01:02:00     -106.421      -71.384       -6.502       31.824       21.968       17.794     1012.788      482.606      316.611        0.914        0.091      128.145       13.531        0.011      335.080        5.477      863.558
11/02/2013  01:03:00     -108.362      -51.857       -0.138       32.554       17.554       16.267     1059.766      308.157      264.606        0.803        0.082      120.131       14.567        0.015      335.056        5.437      863.551
11/02/2013  01:04:00     -141.047      -62.535       -6.529       32.725       25.017       20.243     1070.919      625.870      409.761        1.298        0.105      154.289       15.980        0.011      335.055        5.436      863.543
11/02/2013  01:05:00     -158.703      -82.184       -8.065       26.997       25.687       16.487      728.837      659.831      271.826        1.683        0.083      178.720       15.111        0.007      334.988        5.325      863.531
11/02/2013  01:06:00     -104.917      -42.953       -1.238       38.105       23.600       19.353     1451.986      556.938      374.543        0.762        0.119      113.369       22.155        0.038      334.936        5.235      863.514
11/02/2013  01:07:00     -108.035      -50.701       -9.102       19.695       17.914       15.741      387.909      320.904      247.773        0.764        0.048      119.341       12.804        0.012      334.952        5.264      863.507
11/02/2013  01:08:00     -100.522      -38.805       -8.442       19.825       18.220       11.303      393.043      331.983      127.754        0.627        0.043      107.752        6.550        0.004      334.952        5.264      863.492
11/02/2013  01:09:00     -114.269      -47.699      -11.717       20.611       27.908       11.787      424.803      778.842      138.929        0.841        0.067      123.825        8.879        0.005      334.980        5.310      863.477
11/02/2013  01:10:00      -94.335      -47.132       -6.527       26.105       19.321       14.765      681.476      373.305      217.995        0.622        0.064      105.454       14.832        0.020      334.981        5.313      863.467
11/02/2013  01:11:00      -91.329      -36.484        0.797       32.754       21.722       15.688     1072.810      471.862      246.114        0.573        0.090       98.347       16.540        0.028      334.948        5.256      863.461
11/02/2013  01:12:00     -104.099      -34.388       -3.252       39.763       27.756       27.276     1581.093      770.388      743.984        0.756        0.155      109.632       27.119        0.061      334.855        5.103      863.449
11/02/2013  01:13:00     -117.719      -31.006       -8.412       17.939       19.656       12.012      321.805      386.357      144.283        0.787        0.043      121.734        9.637        0.006      334.853        5.100      863.445
11/02/2013  01:14:00     -115.838      -49.303       -8.496       48.824       19.120       15.612     2383.784      365.591      243.730        0.946        0.150      125.893       16.944        0.018      334.923        5.216      863.444
11/02/2013  01:15:00     -137.927      -42.678      -11.994       34.345       39.937       17.891     1179.571     1594.946      320.104        1.204        0.155      144.379       14.818        0.011      334.837        5.072      863.455
11/02/2013  01:16:00     -150.652      -49.858       -4.964       21.104       25.580       16.519      445.372      654.349      272.872        1.329        0.069      158.688       15.733        0.010      334.868        5.124      863.458
11/02/2013  01:17:00     -123.062      -40.794       -3.109       31.418       21.682       17.681      987.074      470.096      312.606        0.929        0.088      129.647       14.482        0.012      334.837        5.074      863.433
11/02/2013  01:18:00     -115.116      -26.340       -7.541       21.825       22.343       12.382      476.309      499.222      153.315        0.757        0.056      118.091        6.912        0.003      334.825        5.053      863.409
11/02/2013  01:19:00     -113.489      -22.778       -8.230       25.665       25.116       16.305      658.684      630.832      265.864        0.751        0.078      115.752       12.473        0.012      334.794        5.001      863.398
11/02/2013  01:20:00      -80.287      -43.018        1.606       42.687       24.889       16.917     1822.165      619.482      286.185        0.551        0.136       91.086       19.044        0.044      334.870        5.127      863.395
11/02/2013  01:21:00     -122.331      -49.094       -1.466       23.068       18.785       15.549      532.117      352.893      241.780        0.925        0.056      131.815       12.363        0.009      334.840        5.077      863.406
11/02/2013  01:22:00     -131.665      -32.769      -10.147       16.866       23.347       13.194      284.469      545.084      174.071        0.976        0.050      135.682       11.353        0.007      334.818        5.042      863.420
11/02/2013  01:23:00     -106.176      -35.196       -1.524       24.025       21.219       16.476      577.210      450.244      271.457        0.691        0.065      111.858       13.952        0.016      334.736        4.905      863.407
11/02/2013  01:24:00     -128.843      -51.871       -3.446       23.877       19.324       12.612      570.092      373.419      159.074        1.020        0.055      138.892        4.234        0.001      334.905        5.185      863.394
11/02/2013  01:25:00     -148.728      -60.504        2.172       23.660       15.325       14.931      559.784      234.859      222.927        1.340        0.051      160.564       14.386        0.008      334.923        5.216      863.389
11/02/2013  01:26:00     -140.695      -43.517       -4.024       21.027       22.584       10.683      442.114      510.059      114.119        1.139        0.053      147.271        8.028        0.003      334.881        5.145      863.387
11/02/2013  01:27:00     -104.512      -17.179       -4.755       44.503       26.670       16.724     1980.505      711.294      279.682        0.711        0.149      105.914       18.768        0.031      334.702        4.848      863.351
11/02/2013  01:28:00     -107.049       -4.451       -8.199       35.549       17.482       15.274     1263.760      305.631      233.308        0.667        0.090      107.141       16.528        0.024      334.701        4.847      863.304
11/02/2013  01:29:00     -105.431      -32.273       -6.266       39.638       23.182       16.569     1571.192      537.413      274.520        0.729        0.119      110.260       18.139        0.027      334.743        4.917      863.296
11/02/2013  01:30:00     -130.224      -43.589      -10.492       41.687       34.508       20.850     1737.778     1190.822      434.736        1.117        0.168      137.326       19.552        0.020      334.600        4.680      863.315
11/02/2013  01:31:00     -111.079      -24.327       -5.575       41.132       36.620       20.064     1691.839     1341.034      402.569        0.820        0.172      113.712       21.476        0.036      334.517        4.541      863.324
11/02/2013  01:32:00     -107.531      -18.403       -2.945       38.416       35.710       20.737     1475.782     1275.170      430.016        0.755        0.159      109.094       20.631        0.036      334.529        4.562      863.323
11/02/2013  01:33:00     -121.750      -40.623       -0.208       33.821       29.164       19.778     1143.888      850.530      391.168        0.943        0.119      128.348       19.280        0.023      334.754        4.935      863.334
11/02/2013  01:34:00     -110.456      -38.866       -0.127       31.140       19.788       15.684      969.707      391.553      246.000        0.766        0.080      117.095       16.529        0.020      334.902        5.181      863.354
11/02/2013  01:35:00      -83.546      -11.372       -7.467       23.818       21.231       15.557      567.285      450.762      242.035        0.421        0.063       84.316       13.635        0.026      334.881        5.147      863.347
11/02/2013  01:36:00      -97.238      -28.791       -9.870       21.376       16.611       13.353      456.927      275.935      178.304        0.565        0.046      101.411       11.471        0.013      334.739        4.910      863.335
11/02/2013  01:37:00      -83.464      -40.514        3.010       41.685       16.403       16.657     1737.636      269.050      277.465        0.545        0.114       92.778       19.302        0.043      334.660        4.780      863.323
11/02/2013  01:38:00      -38.665      -30.082        2.699       30.088       23.133       15.024      905.286      535.122      225.731        0.204        0.083       48.989       13.854        0.080      334.702        4.850      863.322
11/02/2013  01:39:00      -22.707      -20.141        0.387       18.067       13.149        8.133      326.401      172.893       66.145        0.074        0.028       30.352        4.919        0.026      334.775        4.969      863.312
11/02/2013  01:40:00      -73.415      -38.481       -7.629       29.191       13.167       13.133      852.110      173.380      172.465        0.406        0.060       82.889        7.986        0.009      334.766        4.956      863.311
11/02/2013  01:41:00     -152.240      -35.118      -14.651       19.697       26.432       13.618      387.975      698.630      185.463        1.295        0.064      156.238        7.698        0.002      334.693        4.833      863.291
11/02/2013  01:42:00     -126.027      -25.839      -14.885       24.678       21.168       16.512      608.994      448.090      272.651        0.905        0.066      128.648        7.300        0.003      334.658        4.774      863.271
11/02/2013  01:43:00     -136.858      -48.425      -10.906       14.713       15.340       12.911      216.481      235.320      166.704        1.091        0.031      145.173        7.853        0.003      334.646        4.755      863.253
11/02/2013  01:44:00     -100.639      -58.031       -9.158       24.059       19.178       14.476      578.849      367.787      209.553        0.737        0.058      116.172        8.609        0.005      334.556        4.606      863.235
11/02/2013  01:45:00      -94.850      -49.313       -7.424       22.944       20.782       12.723      526.406      431.883      161.884        0.630        0.056      106.903        9.569        0.008      334.493        4.502      863.224
11/02/2013  01:46:00      -57.256      -39.120       -1.683       28.405       14.494       14.855      806.828      210.077      220.659        0.302        0.062       69.344       15.998        0.053      334.574        4.637      863.216
11/02/2013  01:47:00      -98.901      -31.039       -3.725       19.525       13.387       11.526      381.233      179.225      132.845        0.573        0.035      103.657       10.151        0.010      334.693        4.834      863.224
11/02/2013  01:48:00     -106.481      -19.831      -10.838       15.143       14.260        9.290      229.310      203.346       86.304        0.618        0.026      108.311        9.188        0.007      334.705        4.852      863.232
11/02/2013  01:49:00     -106.771      -36.122      -11.893        8.308       10.068        7.712       69.030      101.355       59.476        0.654        0.011      112.716        3.333        0.001      334.748        4.924      863.228
11/02/2013  01:50:00     -123.613      -15.822      -11.617       15.054       11.308        9.774      226.613      127.878       95.539        0.806        0.023      124.622        6.773        0.003      334.583        4.649      863.247
11/02/2013  01:51:00      -98.914      -32.515       -8.568       17.974       10.343       10.104      323.074      106.986      102.086        0.572        0.027      104.121        7.199        0.005      334.630        4.728      863.262
11/02/2013  01:52:00      -46.399      -20.087       -1.863       17.112        9.767        9.548      292.836       95.388       91.165        0.152        0.024       50.560        6.120        0.015      334.739        4.912      863.271
11/02/2013  01:53:00      -15.552       -3.574       -0.445        9.314       10.260        3.808       86.750      105.277       14.501        0.023        0.010       15.958        4.424        0.077      334.765        4.952      863.272
11/02/2013  01:54:00      -30.449        4.658       -1.284       20.214       11.684        7.558      408.617      136.527       57.122        0.078        0.030       30.803       11.000        0.128      334.811        5.030      863.269
11/02/2013  01:55:00      -77.928      -19.423      -10.767       23.733       14.969       10.779      563.235      224.073      116.195        0.373        0.045       80.312       12.447        0.024      334.758        4.943      863.268
11/02/2013  01:56:00      -84.924      -47.452       -6.344       21.499       18.776       14.888      462.195      352.537      221.638        0.527        0.052       97.282       12.780        0.017      334.597        4.675      863.266
11/02/2013  01:57:00      -28.372      -30.526        8.550       19.415       15.913       12.755      376.931      253.212      162.701        0.130        0.040       41.675        8.169        0.038      334.753        4.935      863.253
11/02/2013  01:58:00      -33.840       -9.503       -1.420       14.467       16.386        7.625      209.297      268.498       58.137        0.089        0.027       35.149        9.342        0.071      334.880        5.144      863.233
11/02/2013  01:59:00      -24.001      -14.689        0.700       30.862       24.383        5.498      952.447      594.538       30.232        0.118        0.079       28.139       10.493        0.139      334.709        4.861      863.215
11/02/2013  02:00:00     -115.553      -58.407       -9.271       13.707       15.082       12.573      187.871      227.467      158.079        0.871        0.029      129.475        5.425        0.002      334.595        4.672      863.210
11/02/2013  02:01:00     -100.772      -48.116       -5.480       19.163       28.534       13.154      367.221      814.191      173.041        0.693        0.068      111.670       10.796        0.009      334.420        4.383      863.194
11/02/2013  02:02:00      -52.489      -10.045       -0.415       21.507       10.239        8.883      462.545      104.830       78.899        0.175        0.032       53.442        4.337        0.007      334.477        4.475      863.152
11/02/2013  02:03:00      -11.542      -17.706       -3.029       10.274       11.440        9.728      105.564      130.883       94.639        0.039        0.017       21.136        5.380        0.065      334.591        4.665      863.134
11/02/2013  02:04:00        5.819      -18.154       -2.876       12.959       12.136       16.086      167.935      147.275      258.744        0.047        0.029       19.064       11.456        0.361      334.646        4.755      863.148
11/02/2013  02:05:00      -24.901      -12.855       -3.691       29.061       20.190        8.914      844.547      407.623       79.451        0.107        0.067       28.023        7.906        0.080      334.671        4.799      863.154
11/02/2013  02:06:00      -79.036      -18.627       -4.708       24.644       13.079       12.029      607.329      171.050      144.699        0.377        0.046       81.201        7.170        0.008      334.536        4.573      863.142
11/02/2013  02:07:00      -92.123       -6.142       -8.129       27.244       16.995       17.130      742.242      288.839      293.425        0.496        0.066       92.328       17.682        0.037      334.400        4.349      863.131
11/02/2013  02:08:00     -118.621        6.353      -14.236       19.774       14.712       10.695      390.993      216.434      114.385        0.752        0.036      118.791        7.409        0.004      334.302        4.186      863.129
11/02/2013  02:09:00      -89.981      -18.383       -5.380       21.540       18.120       12.556      463.981      328.331      157.660        0.471        0.047       91.840       11.544        0.016      334.277        4.143      863.144
11/02/2013  02:10:00      -75.068      -42.934        3.003       32.564       16.945       16.732     1060.441      287.139      279.972        0.456        0.081       86.478       17.221        0.040      334.334        4.239      863.155
11/02/2013  02:11:00     -108.383      -56.203       -4.996       27.844       20.924       13.837      775.298      437.794      191.463        0.817        0.070      122.089       11.571        0.009      334.346        4.259      863.152
11/02/2013  02:12:00      -84.976      -20.110       -1.255       35.018       18.288       15.386     1226.292      334.433      236.725        0.471        0.090       87.323       16.009        0.034      334.296        4.176      863.138
11/02/2013  02:13:00      -53.157      -21.086        3.432       22.561       11.406       11.260      508.978      130.090      126.798        0.202        0.038       57.187       11.626        0.041      334.287        4.160      863.135
11/02/2013  02:14:00      -37.200      -17.936        6.410       18.528       10.842       10.785      343.301      117.554      116.315        0.116        0.029       41.299       11.623        0.079      334.313        4.204      863.134
11/02/2013  02:15:00      -51.370      -24.570       -1.480       24.298        9.447       13.986      590.414       89.237      195.616        0.206        0.044       56.943       15.656        0.076      334.395        4.340      863.132
11/02/2013  02:16:00      -32.897      -31.119        8.999       27.089       15.265       13.514      733.795      233.020      182.632        0.164        0.057       45.284       11.823        0.068      334.335        4.239      863.140
11/02/2013  02:17:00      -22.627      -23.970        8.722       29.301       18.264       17.678      858.552      333.581      312.526        0.133        0.075       32.963       16.814        0.260      334.275        4.140      863.159
11/02/2013  02:18:00      -83.525      -14.545       -7.492       19.824       17.668        9.582      392.999      312.166       91.812        0.402        0.040       84.782        6.686        0.006      334.282        4.152      863.139
11/02/2013  02:19:00      -92.049       -4.099       -6.793       20.792       14.592       12.940      432.314      212.939      167.443        0.467        0.041       92.140       11.627        0.016      334.221        4.051      863.099
11/02/2013  02:20:00      -82.129      -22.062       -2.570       22.566       14.911       10.251      509.244      222.338      105.081        0.404        0.042       85.041        9.207        0.012      334.225        4.058      863.074
11/02/2013  02:21:00      -97.143      -34.546       -3.473       25.133       16.598       13.745      631.675      275.509      188.914        0.587        0.055      103.103       11.363        0.012      334.285        4.158      863.056
11/02/2013  02:22:00     -104.304      -54.386        0.968       25.405       27.207       18.665      645.438      740.208      348.369        0.779        0.087      117.631       16.047        0.019      334.253        4.105      863.037
11/02/2013  02:23:00     -106.289      -42.566       -1.866       17.081       23.483       12.197      291.765      551.440      148.778        0.705        0.050      114.496        8.835        0.006      334.127        3.894      863.034
11/02/2013  02:24:00      -84.467      -42.199       -1.027       34.743       21.837       13.764     1207.110      476.860      189.444        0.539        0.094       94.422       14.330        0.023      334.211        4.035      863.031
11/02/2013  02:25:00      -43.833      -28.946        2.384       32.691       21.557       17.914     1068.721      464.719      320.912        0.231        0.093       52.528       15.797        0.090      334.247        4.095      863.038
11/02/2013  02:26:00      -47.529      -27.824        9.043       52.680       23.354       18.002     2775.187      545.404      324.087        0.338        0.182       55.074       23.050        0.175      334.199        4.014      863.033
11/02/2013  02:27:00      -88.781      -47.936        3.391       27.990       21.382       15.182      783.428      457.192      230.504        0.583        0.074      100.895       13.440        0.018      334.192        4.004      863.022
11/02/2013  02:28:00      -86.822      -37.037       -6.345       21.572       14.913       12.986      465.340      222.390      168.646        0.490        0.043       94.392       11.576        0.015      334.180        3.984      863.027
11/02/2013  02:29:00      -17.842      -27.233        8.414       30.099       15.989       15.111      905.923      255.641      228.331        0.126        0.069       32.557       17.535        0.290      334.186        3.992      863.032
11/02/2013  02:30:00      -60.312      -39.382       -2.707       38.481       30.141       15.683     1480.754      908.453      245.948        0.392        0.132       72.031       15.771        0.048      334.200        4.015      863.030
11/02/2013  02:31:00     -106.084      -31.678      -10.214       25.125       22.226       16.247      631.253      494.009      263.967        0.688        0.069      110.713       15.193        0.019      334.155        3.941      863.000
11/02/2013  02:32:00     -103.238      -31.290      -14.446       13.308       19.369       13.065      177.112      375.161      170.692        0.628        0.036      107.876        8.993        0.007      334.075        3.810      862.983
11/02/2013  02:33:00      -92.555      -28.134       -8.681       11.469       13.851        9.698      131.545      191.856       94.052        0.493        0.021       96.737        6.669        0.005      334.117        3.878      862.986
11/02/2013  02:34:00     -100.244      -19.749      -14.253       17.283       10.403        9.026      298.693      108.220       81.475        0.557        0.024      102.171        3.539        0.001      334.134        3.907      862.979
11/02/2013  02:35:00     -118.611      -39.532      -11.111       16.820       12.673       11.245      282.925      160.606      126.453        0.816        0.028      125.025        6.622        0.003      334.014        3.708      862.963
11/02/2013  02:36:00      -72.652      -50.605       -9.916       22.249       20.055       14.404      495.003      402.203      207.463        0.452        0.055       88.539        6.301        0.005      334.052        3.770      862.931
11/02/2013  02:37:00      -40.534      -28.083      -10.463       25.834       22.106       12.713      667.409      488.688      161.612        0.193        0.066       49.312        6.075        0.015      334.087        3.827      862.897
11/02/2013  02:38:00      -39.614      -28.731       -3.226       27.833       12.136       16.320      774.690      147.271      266.346        0.180        0.059       48.936       14.506        0.088      334.073        3.806      862.887
11/02/2013  02:39:00      -38.383      -24.243      -12.578       20.153       11.596       11.271      406.144      134.459      127.040        0.144        0.033       45.398        6.618        0.021      334.060        3.784      862.895
11/02/2013  02:40:00      -48.796      -21.026       -9.238       15.242       19.523       10.689      232.305      381.145      114.260        0.182        0.036       53.133        9.522        0.032      334.173        3.971      862.892
11/02/2013  02:41:00      -27.660      -14.180       -4.508       19.061       12.480        7.857      363.307      155.742       61.727        0.078        0.029       31.083        6.588        0.045      334.255        4.107      862.886
11/02/2013  02:42:00      -98.022      -42.965       -8.959       25.154       16.697       11.239      632.712      278.787      126.320        0.629        0.052      107.025        8.455        0.006      334.079        3.815      862.883
11/02/2013  02:43:00     -131.557      -15.978      -15.018       20.327       24.304       12.900      413.168      590.687      166.408        0.948        0.059      132.524        9.140        0.005      333.932        3.571      862.892
11/02/2013  02:44:00      -74.082       -1.123       -9.941       27.080       16.238       15.471      733.345      263.664      239.342        0.341        0.062       74.090       10.946        0.022      333.787        3.331      862.865
11/02/2013  02:45:00      -30.033       -1.738       -6.218       13.839        6.621        5.399      191.522       43.842       29.145        0.060        0.013       30.084        6.349        0.045      334.104        3.857      862.823
11/02/2013  02:46:00       -9.250      -10.524       -3.415        9.609        7.258        8.904       92.329       52.672       79.282        0.022        0.011       14.011        4.026        0.083      334.588        4.661      862.789
11/02/2013  02:47:00      -89.964      -35.054      -14.238       23.020       20.690        8.106      529.903      428.095       65.705        0.527        0.051       96.552        3.726        0.001      334.052        3.770      862.779
11/02/2013  02:48:00     -118.164      -20.211      -23.137       24.592       21.150       14.193      604.750      447.322      201.447        0.808        0.063      119.880        7.993        0.004      333.886        3.496      862.795
11/02/2013  02:49:00      -40.647      -30.414       -7.928       26.712       15.788       16.477      713.553      249.247      271.489        0.194        0.062       50.766       14.024        0.076      333.898        3.516      862.821
11/02/2013  02:50:00       -1.809      -22.433        1.211       15.967       15.763       11.917      254.954      248.483      142.019        0.058        0.032       22.506       10.061        0.200      334.065        3.791      862.827
11/02/2013  02:51:00       -6.770        4.873       -1.258       12.293       11.279        7.247      151.116      127.224       52.517        0.020        0.017        8.341        8.734        1.096      334.146        3.925      862.824
11/02/2013  02:52:00      -54.521      -26.819       -6.924       33.041       23.900       15.586     1091.724      571.228      242.912        0.282        0.095       60.760       14.082        0.054      334.003        3.689      862.814
11/02/2013  02:53:00     -122.599      -51.514      -14.685       21.529       20.075       11.160      463.504      403.017      124.556        0.945        0.050      132.982        9.412        0.005      333.857        3.447      862.833
11/02/2013  02:54:00     -101.177      -43.506      -14.203       16.791       14.357       11.007      281.933      206.135      121.159        0.647        0.030      110.134        2.322        0.000      333.843        3.423      862.856
11/02/2013  02:55:00      -67.113      -23.850      -12.228       21.714       17.155       13.155      471.505      294.304      173.049        0.308        0.047       71.225       13.339        0.035      333.904        3.525      862.859
11/02/2013  02:56:00      -85.544      -27.909       -9.567       21.171       19.359       12.319      448.229      374.773      151.759        0.458        0.049       89.981        6.150        0.005      333.889        3.501      862.857
11/02/2013  02:57:00      -26.845      -13.378       -2.288       13.037       19.717       13.458      169.954      388.763      181.124        0.082        0.037       29.994        5.948        0.039      333.960        3.618      862.828
11/02/2013  02:58:00      -23.860       43.418       -9.349       23.187       17.789       15.225      537.634      316.458      231.807        0.181        0.054       49.542       13.629        0.076      334.384        4.322      862.797
11/02/2013  02:59:00       -2.059       46.192       -2.028       12.477       24.053       11.294      155.683      578.531      127.544        0.150        0.043       46.238       13.993        0.092      334.477        4.476      862.788
11/02/2013  03:00:00       -6.091       45.227       -5.744        7.519       13.435        5.218       56.531      180.495       27.229        0.119        0.013       45.636        5.930        0.017      334.681        4.814      862.810
11/02/2013  03:01:00      -60.483      -23.250       -8.662       22.638       12.665       12.412      512.456      160.396      154.046        0.255        0.041       64.798        9.373        0.021      334.025        3.726      862.821
11/02/2013  03:02:00      -67.665      -27.557       -8.268       13.347       12.077        8.009      178.153      145.854       64.139        0.290        0.019       73.062        5.699        0.006      333.856        3.446      862.812
11/02/2013  03:03:00      -58.382      -19.647      -10.709        9.967        8.072        5.623       99.334       65.164       31.614        0.205        0.010       61.599        4.643        0.006      333.913        3.540      862.800
11/02/2013  03:04:00      -63.000      -12.406      -11.448        7.709       11.021        5.897       59.422      121.456       34.776        0.223        0.011       64.210        4.469        0.005      334.082        3.821      862.811
11/02/2013  03:05:00      -68.172       -2.334      -11.806       10.991        9.645        8.039      120.792       93.027       64.632        0.254        0.014       68.212        2.219        0.001      334.221        4.050      862.816
11/02/2013  03:06:00      -39.801      -17.459      -10.471       18.811       10.302        8.433      353.854      106.126       71.108        0.126        0.027       43.462        8.553        0.039      334.218        4.045      862.839
11/02/2013  03:07:00       21.770        1.316        2.185       23.247       13.792        9.184      540.409      190.224       84.351        0.065        0.041       21.810        7.212        0.109      334.509        4.529      862.849
11/02/2013  03:08:00       31.935        7.870        1.087        8.941       11.730        7.886       79.944      137.597       62.196        0.068        0.014       32.891        5.718        0.030      334.348        4.262      862.832
11/02/2013  03:09:00       13.702       33.279       -5.590       17.659       12.223        6.498      311.841      149.402       42.227        0.091        0.025       35.990        5.369        0.022      334.648        4.758      862.797
11/02/2013  03:10:00       -2.924       49.611       -7.636       10.935        9.072        6.437      119.576       82.300       41.432        0.139        0.012       49.697        5.570        0.013      334.868        5.124      862.776
11/02/2013  03:11:00      -25.581      -14.425      -13.192       18.680       17.546        9.724      348.939      307.872       94.553        0.089        0.038       29.368        6.683        0.052      334.294        4.171      862.771
11/02/2013  03:12:00      -38.663      -14.024       -6.945       18.405       13.388       10.349      338.760      179.251      107.104        0.118        0.031       41.128        9.039        0.048      334.139        3.915      862.758
11/02/2013  03:13:00      -27.299        3.080       -1.342       16.869       15.390       12.125      284.559      236.862      147.019        0.071        0.033       27.473        9.053        0.109      334.608        4.692      862.742
11/02/2013  03:14:00      -13.610       -8.097        0.794       12.140       16.414        7.603      147.382      269.408       57.807        0.036        0.024       15.836        3.723        0.055      334.614        4.703      862.746
11/02/2013  03:15:00       -5.209      -10.730        2.036        8.182        8.312        5.823       66.950       69.092       33.902        0.016        0.008       11.927        6.283        0.278      334.506        4.524      862.752
11/02/2013  03:16:00      -15.642       -0.718        0.123       13.700        4.898        4.190      187.704       23.991       17.558        0.024        0.011       15.659        2.840        0.033      334.453        4.437      862.749
11/02/2013  03:17:00      -35.742       -7.655       -3.633       10.689        6.312        5.180      114.261       39.838       26.836        0.077        0.009       36.552        3.943        0.012      334.066        3.795      862.727
11/02/2013  03:18:00      -11.662       -0.685       -2.325       13.762        7.906        4.995      189.386       62.505       24.949        0.021        0.014       11.683        4.586        0.154      334.150        3.932      862.687
11/02/2013  03:19:00       -0.424       -7.057        2.548       14.337       17.862        9.212      205.543      319.060       84.853        0.033        0.030        7.070        7.398        1.095      334.517        4.544      862.674
11/02/2013  03:20:00      -46.573      -28.705       -9.122       15.259        8.705        8.301      232.833       75.769       68.911        0.173        0.019       54.708        6.550        0.014      333.982        3.654      862.673
11/02/2013  03:21:00      -61.586      -15.009       -4.426        6.234        8.766        6.017       38.861       76.837       36.205        0.209        0.008       63.389        1.803        0.001      333.978        3.650      862.667
11/02/2013  03:22:00      -70.275      -26.081       -9.965        8.734        7.358        6.826       76.290       54.143       46.592        0.295        0.009       74.959        3.014        0.002      334.034        3.740      862.659
11/02/2013  03:23:00      -89.081      -18.174      -13.209       11.048        9.392        7.550      122.048       88.212       57.008        0.435        0.013       90.916        3.368        0.001      333.941        3.587      862.654
11/02/2013  03:24:00      -91.232       -7.515      -15.214       11.739        8.688        7.208      137.808       75.475       51.957        0.444        0.013       91.541        2.869        0.001      333.929        3.568      862.624
11/02/2013  03:25:00      -98.201       -5.046      -12.157       11.755       11.810        7.244      138.171      139.481       52.470        0.507        0.017       98.330        4.374        0.002      333.863        3.457      862.582
11/02/2013  03:26:00      -90.718      -28.155      -16.011       25.607       17.918        7.390      655.731      321.061       54.617        0.515        0.052       94.986        9.150        0.009      333.847        3.430      862.587
11/02/2013  03:27:00      -59.258      -44.582       -4.942       35.598       25.594       17.812     1267.199      655.076      317.285        0.388        0.112       74.156       12.974        0.031      333.785        3.328      862.640
11/02/2013  03:28:00      -71.412      -43.490       -2.304       39.427       23.283       17.215     1554.488      542.118      296.348        0.469        0.120       83.613       16.749        0.040      333.838        3.417      862.674
11/02/2013  03:29:00      -63.063      -39.133        1.629       29.610       16.266       17.369      876.760      264.571      301.694        0.348        0.072       74.218       10.251        0.019      333.981        3.653      862.649
11/02/2013  03:30:00      -33.268       -3.153        1.316       26.196       13.004        9.913      686.248      169.106       98.272        0.104        0.048       33.417       12.172        0.133      333.934        3.576      862.564
11/02/2013  03:31:00      -72.566      -25.846       -8.959       11.581       18.508        9.196      134.125      342.554       84.564        0.329        0.028       77.031        3.740        0.002      334.046        3.759      862.540
11/02/2013  03:32:00      -34.059      -23.982       13.574       32.329       18.197       17.377     1045.183      331.127      301.974        0.180        0.084       41.655       15.591        0.140      333.897        3.513      862.595
11/02/2013  03:33:00      -59.545      -42.320       -3.211       20.153       29.962       12.575      406.141      897.736      158.120        0.340        0.073       73.052        9.477        0.017      333.942        3.589      862.617
11/02/2013  03:34:00      -87.418      -46.015       -5.359       14.049       18.229       10.083      197.371      332.309      101.661        0.521        0.032       98.789        7.302        0.005      333.915        3.542      862.614
11/02/2013  03:35:00     -109.495      -21.575      -12.124       22.834       20.751       13.090      521.393      430.590      171.355        0.686        0.056      111.601       11.167        0.010      333.857        3.446      862.609
11/02/2013  03:36:00     -112.065      -29.870      -10.415       16.897       15.206       14.017      285.516      231.237      196.479        0.714        0.036      115.978        6.400        0.003      333.761        3.288      862.575
11/02/2013  03:37:00      -86.610      -36.209       -0.219       24.324       12.988       13.028      591.661      168.687      169.720        0.487        0.047       93.874       13.237        0.020      333.789        3.333      862.562
11/02/2013  03:38:00      -83.094      -19.935       -0.235       26.070       22.660       16.140      679.622      513.482      260.484        0.438        0.073       85.452       18.190        0.045      333.741        3.254      862.573
11/02/2013  03:39:00     -124.287      -45.291       -8.638       17.792       11.965       14.406      316.570      143.170      207.537        0.912        0.033      132.282       11.849        0.008      333.767        3.298      862.584
11/02/2013  03:40:00      -85.628      -44.698        0.390       36.777       18.303       14.135     1352.530      334.991      199.805        0.561        0.094       96.592       16.474        0.029      333.751        3.271      862.568
11/02/2013  03:41:00      -41.540      -27.801       -0.058       22.451       16.500       13.468      504.069      272.264      181.399        0.173        0.048       49.984       12.084        0.058      333.763        3.293      862.539
11/02/2013  03:42:00      -78.544      -13.026       -7.304       17.377       14.335       11.188      301.949      205.493      125.175        0.351        0.032       79.616       11.274        0.020      333.744        3.259      862.521
11/02/2013  03:43:00     -114.202      -30.185      -10.004       18.491       15.795       14.050      341.920      249.469      197.407        0.742        0.039      118.124       10.712        0.008      333.767        3.299      862.506
11/02/2013  03:44:00     -144.210      -30.324      -12.265       15.626       16.406       11.900      244.158      269.157      141.611        1.126        0.033      147.364        7.683        0.003      333.739        3.250      862.508
11/02/2013  03:45:00     -122.052      -15.673      -14.867       26.089       15.661       13.865      680.641      245.270      192.246        0.824        0.056      123.054       13.376        0.012      333.706        3.197      862.492
11/02/2013  03:46:00      -92.561      -16.517      -14.213       31.340       17.231       14.461      982.189      296.918      209.120        0.527        0.074       94.024       13.970        0.022      333.578        2.985      862.452
11/02/2013  03:47:00      -67.234      -25.610       -6.702       25.158       22.426       12.385      632.933      502.912      153.382        0.326        0.064       71.947        5.386        0.006      333.531        2.905      862.439
11/02/2013  03:48:00     -103.330      -62.830      -12.187       45.566       32.414       19.510     2076.234     1050.695      380.658        0.914        0.175      120.932        9.790        0.007      333.645        3.095      862.458
11/02/2013  03:49:00      -91.416      -42.124       -8.920       37.388       23.336       18.262     1397.863      544.559      333.493        0.624        0.114      100.654       16.581        0.027      333.628        3.068      862.468
11/02/2013  03:50:00     -121.399      -38.060       -8.335       35.564       23.657       16.722     1264.816      559.672      279.627        0.918        0.105      127.225       15.856        0.016      333.491        2.840      862.441
11/02/2013  03:51:00     -101.444       -1.581       -5.926       44.940       41.597       23.195     2019.563     1730.296      537.997        0.731        0.214      101.456       17.351        0.029      333.498        2.852      862.423
11/02/2013  03:52:00     -162.818       36.267      -13.045       54.844       48.572       27.394     3007.868     2359.268      750.407        1.706        0.306      166.808       25.910        0.024      333.748        3.265      862.371
11/02/2013  03:53:00     -111.900       -0.645       -3.562       66.729       40.769       25.237     4452.714     1662.139      636.926        0.964        0.338      111.902       30.293        0.073      333.719        3.217      862.356
11/02/2013  03:54:00     -110.675      -24.110       -7.986       44.455       32.021       25.640     1976.229     1025.365      657.397        0.828        0.183      113.271       24.698        0.048      333.648        3.101      862.374
11/02/2013  03:55:00     -139.496      -57.603      -14.474       34.856       57.222       24.255     1214.908     3274.309      588.327        1.403        0.254      150.921       19.050        0.016      333.540        2.920      862.388
11/02/2013  03:56:00     -106.471       14.436       -7.054       62.828       44.843       24.829     3947.330     2010.877      616.497        0.908        0.329      107.445       24.624        0.053      333.479        2.819      862.375
11/02/2013  03:57:00      -79.915      -19.882       -1.828       42.006       32.920       20.808     1764.484     1083.714      432.959        0.503        0.164       82.351       18.226        0.049      333.488        2.835      862.344
11/02/2013  03:58:00      -81.716      -33.455       -2.110       47.331       23.688       24.301     2240.225      561.101      590.538        0.560        0.170       88.299       21.633        0.060      333.612        3.042      862.365
11/02/2013  03:59:00      -73.025      -45.010        0.800       35.709       29.382       19.462     1275.142      863.317      378.757        0.494        0.126       85.782       18.172        0.045      333.488        2.833      862.362
11/02/2013  04:00:00     -124.395      -23.631       -7.929       37.911       40.852       19.175     1437.249     1668.925      367.671        0.978        0.174      126.619       20.732        0.027      333.492        2.842      862.338
11/02/2013  04:01:00     -119.048      -33.046       -0.302       51.832       38.444       19.222     2686.604     1477.974      369.504        0.990        0.227      123.550       21.610        0.031      333.523        2.892      862.320
11/02/2013  04:02:00      -47.315      -11.301        6.152       41.604       32.309       22.262     1730.894     1043.895      495.602        0.284        0.164       48.646       18.084        0.138      333.565        2.961      862.275
11/02/2013  04:03:00      -95.114      -11.042      -12.816       49.985       34.220       20.020     2498.507     1170.978      400.805        0.670        0.204       95.753       19.597        0.042      333.673        3.139      862.252
11/02/2013  04:04:00      -70.445      -44.599       -7.881       41.353       35.865       19.355     1710.045     1286.298      374.608        0.519        0.169       83.376       16.341        0.038      333.661        3.122      862.260
11/02/2013  04:05:00      -31.995      -40.062       10.144       42.680       24.613       17.688     1821.576      605.807      312.876        0.274        0.137       51.270       19.440        0.144      333.661        3.123      862.259
11/02/2013  04:06:00       -1.168      -30.213        0.624       13.428       10.682        9.400      180.308      114.111       88.356        0.065        0.019       30.235        4.255        0.020      333.741        3.255      862.248
11/02/2013  04:07:00        0.837      -29.080        3.062       10.846        9.203        9.491      117.645       84.701       90.088        0.057        0.015       29.092        3.908        0.018      333.775        3.311      862.216
11/02/2013  04:08:00      -74.051      -19.693      -10.184       23.408       10.600        9.720      547.955      112.353       94.488        0.336        0.038       76.625       11.251        0.022      333.791        3.339      862.186
11/02/2013  04:09:00     -123.832      -19.944      -18.606       14.709       19.130       12.288      216.369      365.963      150.994        0.841        0.037      125.428        9.184        0.005      333.753        3.273      862.167
11/02/2013  04:10:00     -112.896      -54.428        2.138       28.225       20.275       20.078      796.676      411.064      403.138        0.866        0.081      125.331       18.790        0.022      333.675        3.146      862.202
11/02/2013  04:11:00      -79.294      -34.861        3.549       41.874       23.823       17.136     1753.453      567.514      293.644        0.506        0.131       86.618       19.358        0.050      333.796        3.345      862.192
11/02/2013  04:12:00      -91.384       -9.685      -10.966       20.087       18.950       13.886      403.468      359.110      192.827        0.476        0.048       91.896       12.611        0.019      333.872        3.473      862.114
11/02/2013  04:13:00     -116.604      -49.320       -7.499       13.214       12.487        6.643      174.618      155.927       44.126        0.823        0.019      126.605        5.425        0.002      333.915        3.543      862.068
11/02/2013  04:14:00     -129.265      -17.931      -14.085       30.485       20.901       17.644      929.309      436.831      311.322        0.945        0.084      130.503       15.616        0.014      333.734        3.242      862.055
11/02/2013  04:15:00      -84.116      -20.513       -6.420       39.346       25.790       23.868     1548.101      665.148      569.680        0.516        0.139       86.581       22.847        0.070      333.587        2.999      862.028
11/02/2013  04:16:00      -71.759      -18.274        2.125       37.695       39.823       26.324     1420.882     1585.883      692.946        0.459        0.185       74.049       22.707        0.094      333.652        3.108      862.037
11/02/2013  04:17:00      -84.147      -11.613       -5.326       33.564       33.409       19.172     1126.571     1116.129      367.578        0.493        0.131       84.945       13.748        0.026      333.619        3.051      862.045
11/02/2013  04:18:00      -87.781      -26.519       -4.792       24.555       23.488       14.398      602.956      551.690      207.298        0.490        0.068       91.699       11.992        0.017      333.578        2.984      862.010
11/02/2013  04:19:00     -143.841      -47.727       -7.561       50.249       30.812       18.909     2524.952      949.381      357.548        1.343        0.192      151.552       18.756        0.015      333.480        2.820      861.997
11/02/2013  04:20:00     -147.867      -33.909       -5.640       43.510       42.914       23.938     1893.096     1841.651      573.032        1.368        0.215      151.705       20.798        0.019      333.474        2.812      862.053
11/02/2013  04:21:00     -168.555        4.073      -17.473       33.363       30.768       22.827     1113.081      946.681      521.085        1.566        0.129      168.604       17.798        0.011      333.300        2.525      862.060
11/02/2013  04:22:00     -150.582       -3.231      -16.792       45.560       42.453       21.143     2075.750     1802.269      447.028        1.365        0.216      150.617       16.582        0.012      333.368        2.637      862.029
11/02/2013  04:23:00     -113.910      -31.274       -3.603       36.989       37.544       21.180     1368.213     1409.560      448.604        0.860        0.161      118.125       15.144        0.016      333.354        2.614      861.998
11/02/2013  04:24:00     -125.251      -51.849       -4.545       32.414       52.630       23.846     1050.662     2769.875      568.636        1.139        0.219      135.558       22.299        0.027      333.345        2.600      861.971
11/02/2013  04:25:00      -32.084      -19.363        7.551       39.997       37.234       25.388     1599.760     1386.337      644.548        0.255        0.182       37.475       24.233        0.418      333.369        2.639      861.973
11/02/2013  04:26:00      -49.748      -40.070      -11.903       52.496       27.585       19.054     2755.880      760.917      363.050        0.405        0.194       63.878        9.988        0.024      333.427        2.734      862.003
11/02/2013  04:27:00      -78.983      -49.352       -3.860       52.828       25.988       18.869     2790.785      675.371      356.046        0.625        0.191       93.134       19.373        0.043      333.326        2.566      862.006
11/02/2013  04:28:00     -104.730      -47.805        0.449       43.588       40.157       26.562     1899.911     1612.561      705.556        0.874        0.211      115.125       27.383        0.057      333.281        2.493      861.992
11/02/2013  04:29:00      -74.785      -35.570       -0.375       36.340       31.356       16.885     1320.566      983.183      285.094        0.472        0.129       82.814       19.889        0.058      333.321        2.559      861.960
11/02/2013  04:30:00      -98.885      -31.950      -11.030       23.403       19.093       12.991      547.704      364.555      168.773        0.600        0.054      103.918        7.897        0.006      333.341        2.591      861.929
11/02/2013  04:31:00     -106.601      -27.546        0.616       38.389       33.107       24.565     1473.741     1096.044      603.437        0.765        0.159      110.103       18.528        0.028      333.317        2.552      861.932
11/02/2013  04:32:00      -83.978      -21.431      -13.731       37.497       44.162       22.107     1406.014     1950.253      488.723        0.577        0.192       86.669       12.460        0.021      333.272        2.479      861.952
11/02/2013  04:33:00      -52.729      -19.504       -6.938       22.535       16.677       11.979      507.846      278.112      143.503        0.207        0.046       56.220       10.806        0.037      333.299        2.523      861.925
11/02/2013  04:34:00      -49.574      -27.883       -2.018       42.775       15.030       21.593     1829.720      225.909      466.257        0.288        0.126       56.878       20.773        0.133      333.380        2.657      861.939
11/02/2013  04:35:00        5.561      -42.917       -6.370       21.489       29.271       25.406      461.795      856.814      645.443        0.194        0.098       43.276       15.015        0.120      333.338        2.587      861.981
11/02/2013  04:36:00      -43.485      -26.029       -7.848       19.920       16.231       18.879      396.788      263.443      356.423        0.182        0.051       50.680       15.709        0.096      333.370        2.641      861.942
11/02/2013  04:37:00      -81.314      -44.178      -16.051       17.972       24.583       12.782      322.995      604.339      163.374        0.496        0.055       92.540        6.946        0.006      333.401        2.689      861.885
11/02/2013  04:38:00      -94.794      -54.204      -13.131       17.749       19.009       12.150      315.016      361.349      147.626        0.646        0.041      109.196        7.533        0.005      333.387        2.669      861.876
11/02/2013  04:39:00      -79.619      -21.326       -5.630       18.019       16.409       11.045      324.693      269.259      121.987        0.377        0.036       82.426        6.419        0.006      333.421        2.725      861.884
11/02/2013  04:40:00      -32.816      -19.031       -1.264       15.429        8.272        9.463      238.066       68.426       89.548        0.092        0.020       37.935        7.199        0.036      333.409        2.703      861.890
11/02/2013  04:41:00      -81.201       -5.807      -10.470       31.145       10.754       10.471      970.009      115.649      109.650        0.397        0.060       81.408        9.618        0.014      333.480        2.819      861.857
11/02/2013  04:42:00      -95.580      -19.902       -7.986       27.030       20.271       16.202      730.609      410.912      262.490        0.550        0.070       97.630       15.337        0.025      333.424        2.730      861.814
11/02/2013  04:43:00      -86.718      -20.207      -11.681       20.382       21.071       11.761      415.415      443.971      138.326        0.453        0.050       89.042       11.330        0.016      333.479        2.818      861.795
11/02/2013  04:44:00      -76.942      -52.947      -16.229       22.065       26.868       17.150      486.858      721.903      294.109        0.524        0.075       93.399        5.580        0.004      333.489        2.837      861.814
11/02/2013  04:45:00      -39.963      -33.845        2.129       28.562       24.280       17.043      815.766      589.536      290.479        0.222        0.085       52.369       14.122        0.073      333.388        2.670      861.839
11/02/2013  04:46:00      -69.923      -42.728      -12.768       21.651       13.876       13.079      468.758      192.555      171.051        0.386        0.042       81.945       10.409        0.016      333.401        2.692      861.853
11/02/2013  04:47:00      -91.966      -30.399      -13.653       10.271       11.406       10.568      105.484      130.098      111.675        0.496        0.017       96.860        6.683        0.005      333.466        2.795      861.859
11/02/2013  04:48:00     -101.176      -27.831      -12.947       14.688       13.980       11.971      215.730      195.449      143.303        0.587        0.028      104.934        7.931        0.006      333.494        2.845      861.838
11/02/2013  04:49:00      -98.267      -23.484      -14.678       13.719       15.932        8.835      188.220      253.843       78.048        0.547        0.026      101.034        6.292        0.004      333.525        2.896      861.804
11/02/2013  04:50:00      -80.598      -22.209      -17.148       13.815        8.857        7.349      190.866       78.447       54.008        0.380        0.016       83.602        7.529        0.008      333.499        2.852      861.785
11/02/2013  04:51:00      -61.860      -23.045      -10.379        8.608       10.064        6.316       74.089      101.285       39.895        0.234        0.011       66.014        4.987        0.006      333.565        2.963      861.778
11/02/2013  04:52:00      -44.843      -36.602      -14.975       18.964       15.683        6.799      359.619      245.966       46.233        0.211        0.033       57.884        4.788        0.007      333.591        3.004      861.812
11/02/2013  04:53:00     -110.348      -51.326      -13.906       32.029       12.675        8.804     1025.841      160.668       77.513        0.813        0.063      121.700        5.807        0.002      333.574        2.978      861.872
11/02/2013  04:54:00     -141.081      -41.252      -15.058       19.347       21.932       10.699      374.290      481.005      114.477        1.140        0.048      146.988       10.742        0.005      333.536        2.914      861.876
11/02/2013  04:55:00     -117.150      -11.552      -14.632       30.068       23.340       17.771      904.078      544.742      315.804        0.792        0.088      117.718       16.031        0.019      333.372        2.644      861.828
11/02/2013  04:56:00      -98.915       -2.675       -5.757       41.753       29.462       23.642     1743.330      868.026      558.945        0.650        0.159       98.951       23.967        0.059      333.378        2.652      861.767
11/02/2013  04:57:00      -90.784        0.625      -12.895       26.009       23.989       16.839      676.476      575.467      283.567        0.497        0.077       90.786       10.619        0.014      333.457        2.784      861.756
11/02/2013  04:58:00      -65.469       17.391      -18.972       28.823       33.145       19.984      830.791     1098.589      399.352        0.364        0.116       67.740       18.555        0.075      333.475        2.812      861.747
11/02/2013  04:59:00      -36.367      -10.798       -8.380       21.291       21.869        9.997      453.311      478.272       99.946        0.127        0.052       37.936        7.093        0.035      333.573        2.977      861.751
11/02/2013  05:00:00      -36.884      -33.119       -3.743       14.666       14.491        9.641      215.082      209.976       92.947        0.149        0.026       49.571        8.168        0.027      333.646        3.096      861.779
11/02/2013  05:01:00      -76.417      -39.205       -8.151       24.301       17.610       11.126      590.524      310.098      123.789        0.423        0.051       85.887        5.864        0.005      333.501        2.856      861.780
11/02/2013  05:02:00      -91.487      -58.398       -7.308       20.125       13.854       13.256      405.000      191.937      175.728        0.630        0.039      108.537        9.909        0.008      333.455        2.780      861.743
11/02/2013  05:03:00      -93.749      -31.532       -9.255       17.522       20.429       14.036      307.035      417.333      197.003        0.539        0.046       98.910        8.557        0.007      333.437        2.750      861.700
11/02/2013  05:04:00      -94.770      -22.831      -13.540       19.682       18.655       11.862      387.386      348.014      140.709        0.528        0.044       97.482        9.540        0.010      333.404        2.697      861.654
11/02/2013  05:05:00      -93.206      -38.769      -10.992       12.464       17.394       10.599      155.343      302.551      112.343        0.544        0.029      100.948        7.963        0.006      333.309        2.539      861.631
11/02/2013  05:06:00      -73.116      -36.489       -9.954       18.701       15.605       12.485      349.728      243.520      155.873        0.376        0.037       81.715        9.202        0.013      333.348        2.603      861.632
11/02/2013  05:07:00      -56.931      -36.765       -5.369       26.420       13.013       16.368      698.020      169.348      267.908        0.288        0.057       67.770       16.096        0.056      333.401        2.691      861.653
11/02/2013  05:08:00     -132.909      -26.135      -21.464       26.211       16.359       10.843      686.998      267.617      117.573        0.994        0.054      135.454        8.930        0.004      333.432        2.742      861.676
11/02/2013  05:09:00     -121.811      -11.173      -11.189       22.963       14.756       12.470      527.284      217.741      155.502        0.799        0.045      122.323       12.259        0.010      333.452        2.775      861.672
11/02/2013  05:10:00      -93.238      -28.198       -9.139       18.601       17.897       11.357      345.998      320.314      128.984        0.518        0.040       97.409        8.815        0.008      333.435        2.747      861.667
11/02/2013  05:11:00      -96.138      -38.587       -8.224       10.877       10.245        8.631      118.308      104.951       74.496        0.555        0.015      103.593        4.232        0.002      333.483        2.828      861.709
11/02/2013  05:12:00      -94.999      -30.214      -10.615       14.336       21.871        8.438      205.507      478.362       71.198        0.540        0.038       99.688        1.526        0.000      333.461        2.789      861.712
11/02/2013  05:13:00     -100.985       13.621      -15.185       13.631       17.176        9.205      185.807      295.002       84.728        0.559        0.028      101.899        5.554        0.003      333.403        2.696      861.683
11/02/2013  05:14:00      -82.856       -9.963      -13.528       16.347       16.095       10.680      267.212      259.063      114.070        0.389        0.032       83.453        9.442        0.013      333.454        2.778      861.678
11/02/2013  05:15:00      -91.339      -18.942      -12.493       12.961       18.066       11.814      167.990      326.372      139.563        0.475        0.032       93.282       10.607        0.013      333.472        2.810      861.656
11/02/2013  05:16:00      -82.052      -37.901       -8.835       19.883       20.244       12.937      395.335      409.812      167.356        0.461        0.049       90.383        9.718        0.012      333.452        2.775      861.625
11/02/2013  05:17:00      -67.454      -11.395      -10.634       34.191       15.822       11.212     1169.048      250.329      125.720        0.317        0.077       68.410       10.755        0.025      333.386        2.666      861.605
11/02/2013  05:18:00       14.058      -31.890       -8.360       19.154       33.908       21.225      366.862     1149.785      450.514        0.163        0.098       34.852       12.425        0.127      333.638        3.082      861.606
11/02/2013  05:19:00        2.477       -5.796       14.196       12.961       15.079       15.744      167.995      227.385      247.879        0.044        0.032        6.303       10.004        2.519      333.582        2.991      861.621
11/02/2013  05:20:00      -40.106      -20.538       -3.110       42.145       15.259       11.082     1776.170      232.823      122.807        0.209        0.107       45.059       14.484        0.103      333.514        2.880      861.636
11/02/2013  05:21:00      -94.359       -8.086      -12.350       14.694       14.202        9.593      215.905      201.698       92.030        0.482        0.025       94.704        2.427        0.001      333.308        2.537      861.649
11/02/2013  05:22:00      -58.597      -34.240      -13.127       15.708       12.123       12.765      246.749      146.965      162.951        0.267        0.028       67.867        6.272        0.009      333.247        2.436      861.643
11/02/2013  05:23:00      -14.954      -32.277       -4.559       15.281       12.272        8.726      233.524      150.598       76.138        0.087        0.023       35.573        7.270        0.042      333.386        2.666      861.640
11/02/2013  05:24:00       27.265       14.662       23.013       34.789       37.686       15.024     1210.250     1420.255      225.711        0.217        0.143       30.957       12.034        0.151      333.383        2.662      861.614
11/02/2013  05:25:00       49.819       31.092        0.023       21.873       20.379       15.306      478.421      415.290      234.281        0.229        0.056       58.725        8.459        0.021      333.370        2.638      861.579
11/02/2013  05:26:00       57.695       20.879        9.123       31.596       19.104       18.475      998.323      364.950      341.323        0.278        0.085       61.357       20.022        0.106      333.313        2.547      861.609
11/02/2013  05:27:00      -10.804      -40.788       -6.801       22.995       17.427       17.473      528.753      303.707      305.304        0.148        0.057       42.195       11.540        0.075      333.415        2.715      861.694
11/02/2013  05:28:00        1.406       -4.298       -8.205       21.149       22.849       14.147      447.296      522.098      200.127        0.063        0.058        4.522       11.166        6.096      333.493        2.844      861.697
11/02/2013  05:29:00       -2.301       32.443        6.406       17.516       18.843       16.258      306.794      355.067      264.315        0.101        0.046       32.524        7.812        0.058      333.354        2.612      861.650
11/02/2013  05:30:00       32.055       72.226       -9.937       26.980       37.680       18.078      727.942     1419.813      326.805        0.441        0.124       79.019       21.829        0.076      333.094        2.184      861.608
11/02/2013  05:31:00       -1.554        5.285        3.160       21.965       18.671       18.010      482.475      348.595      324.374        0.060        0.058        5.509       13.738        6.218      333.087        2.173      861.655
11/02/2013  05:32:00       10.166        1.519       -9.645        8.848       13.629        6.728       78.283      185.763       45.261        0.025        0.015       10.279        6.006        0.341      333.215        2.384      861.715
11/02/2013  05:33:00       39.812        5.324        2.661        8.286        5.300        5.448       68.661       28.090       29.679        0.087        0.006       40.166        3.972        0.010      333.368        2.638      861.676
11/02/2013  05:34:00       10.491       10.165       -4.671       21.369        5.961        6.456      456.614       35.534       41.677        0.038        0.027       14.608        6.950        0.226      333.382        2.660      861.629
11/02/2013  05:35:00      -69.823       20.980      -16.756       20.126       10.836        9.577      405.037      117.414       91.710        0.311        0.031       72.907       12.555        0.030      333.217        2.388      861.615
11/02/2013  05:36:00      -35.081        2.211       -6.363       24.507       21.702        8.939      600.597      470.987       79.910        0.121        0.058       35.151       14.421        0.168      333.151        2.277      861.577
11/02/2013  05:37:00        5.047      -21.430        2.327       22.340       32.373       26.472      499.092     1048.032      700.773        0.137        0.112       22.016       16.860        0.586      333.333        2.580      861.574
11/02/2013  05:38:00        5.627       -3.045       16.870       23.111       26.862       23.876      534.138      721.545      570.045        0.108        0.091        6.398       19.414        9.206      333.286        2.500      861.540
11/02/2013  05:39:00       15.523       11.102       10.493        7.800       14.519       13.397       60.835      210.793      179.470        0.046        0.023       19.084       12.397        0.422      333.245        2.430      861.477
11/02/2013  05:40:00       19.251      -38.712       -3.179       18.132       13.248        8.031      328.769      175.512       64.501        0.122        0.028       43.235        5.132        0.014      333.582        2.990      861.505
11/02/2013  05:41:00       12.059      -44.882       -3.819       18.399       14.951       10.641      338.536      223.530      113.236        0.142        0.034       46.474       10.673        0.053      333.577        2.982      861.510
11/02/2013  05:42:00      -62.899       -3.849      -10.669       20.390       19.935        7.123      415.740      397.385       50.737        0.247        0.043       63.016        3.864        0.004      333.286        2.500      861.485
11/02/2013  05:43:00      -91.707       -1.360      -11.137       24.140       12.075       10.949      582.730      145.815      119.882        0.469        0.042       91.717        9.678        0.011      333.101        2.195      861.446
11/02/2013  05:44:00      -97.534       -7.061       -8.565       26.881       12.889       11.180      722.609      166.131      124.991        0.532        0.051       97.789       12.023        0.015      333.049        2.110      861.407
11/02/2013  05:45:00     -110.402      -17.866      -13.239       14.381       14.635        9.452      206.813      214.179       89.335        0.660        0.026      111.838        4.018        0.001      333.036        2.087      861.392
11/02/2013  05:46:00      -96.972      -40.367      -13.047       15.756       11.441        6.487      248.254      130.895       42.077        0.581        0.021      105.039        5.830        0.003      333.155        2.283      861.395
11/02/2013  05:47:00      -41.787      -41.297        0.082       22.694       16.694       13.339      515.034      278.683      177.920        0.221        0.049       58.750       13.526        0.053      333.223        2.397      861.423
11/02/2013  05:48:00      -89.756      -25.835       -4.458       38.722       22.653       15.408     1499.374      513.179      237.411        0.550        0.112       93.400       14.038        0.023      333.197        2.354      861.460
11/02/2013  05:49:00     -135.780       34.655      -11.742       35.088       31.921       21.916     1231.153     1018.942      480.305        1.125        0.137      140.133       19.056        0.018      333.031        2.079      861.427
11/02/2013  05:50:00      -68.848       42.426       -4.640       40.830       39.780       26.361     1667.126     1582.440      694.893        0.525        0.197       80.871       19.902        0.061      332.941        1.932      861.391
11/02/2013  05:51:00      -43.943      -34.918        3.254       55.681       37.314       25.239     3100.427     1392.369      637.001        0.414        0.256       56.127       30.275        0.291      333.159        2.289      861.438
11/02/2013  05:52:00      -17.779      -35.724        7.807       47.970       35.320       23.011     2301.121     1247.529      529.516        0.287        0.204       39.903       22.638        0.322      333.123        2.231      861.461
11/02/2013  05:53:00     -131.677        2.172      -19.753       26.822       21.907       13.568      719.437      479.936      184.098        0.956        0.069      131.695       11.587        0.008      333.066        2.139      861.381
11/02/2013  05:54:00     -114.063        5.269       -8.958       45.515       30.778       23.993     2071.604      947.300      575.665        0.836        0.180      114.184       16.385        0.021      333.015        2.055      861.353
11/02/2013  05:55:00      -48.580      -15.433        3.005       28.724       31.315       20.804      825.066      980.616      432.815        0.242        0.112       50.973       18.075        0.126      332.991        2.014      861.396
11/02/2013  05:56:00     -115.256        4.399      -12.036       26.518       29.133       19.193      703.201      848.710      368.365        0.768        0.096      115.340        8.494        0.005      333.098        2.190      861.422
11/02/2013  05:57:00     -124.601       21.589       -7.110       32.834       24.517       18.134     1078.093      601.102      328.844        0.902        0.100      126.458       17.743        0.020      332.995        2.021      861.402
11/02/2013  05:58:00      -84.752      -16.518      -11.253       30.438       27.077       18.056      926.500      733.165      326.027        0.478        0.099       86.347       16.351        0.036      332.939        1.929      861.374
11/02/2013  05:59:00     -128.247       27.388      -12.742       39.898       25.526       20.466     1591.852      651.553      418.844        1.001        0.133      131.139       13.889        0.011      333.061        2.128      861.365
11/02/2013  06:00:00      -96.909        5.921       -0.576       27.743       37.726       18.111      769.678     1423.231      327.994        0.597        0.126       97.090       12.619        0.017      333.099        2.191      861.362
11/02/2013  06:01:00     -102.412      -27.877       -4.645       42.749       36.172       24.631     1827.495     1308.414      606.701        0.751        0.187      106.138       21.071        0.039      332.952        1.949      861.359
11/02/2013  06:02:00     -151.350        5.385      -11.339       46.608       34.131       27.249     2172.277     1164.945      742.481        1.357        0.204      151.445       24.533        0.026      332.969        1.976      861.362
11/02/2013  06:03:00     -161.944       -7.951      -15.235       64.945       34.348       24.014     4217.859     1179.809      576.682        1.625        0.299      162.139       30.665        0.036      333.041        2.097      861.380
11/02/2013  06:04:00      -91.891       -0.643       -6.036       36.133       26.592       21.155     1305.616      707.160      447.514        0.547        0.123       91.893        7.408        0.006      333.025        2.070      861.386
11/02/2013  06:05:00     -102.903      -13.928      -12.445       31.011       21.674       15.454      961.711      469.767      238.815        0.630        0.084      103.841       11.193        0.012      333.229        2.405      861.401
11/02/2013  06:06:00      -84.685      -21.580      -10.020       19.295       25.153       15.278      372.282      632.677      233.406        0.449        0.062       87.391        8.367        0.009      333.162        2.294      861.412
11/02/2013  06:07:00      -89.016       11.018      -12.205       26.343       21.654       15.525      693.934      468.904      241.024        0.480        0.070       89.695       10.641        0.014      333.186        2.334      861.379
11/02/2013  06:08:00      -95.611       -1.647      -11.753       26.869       36.088       15.540      721.940     1302.328      241.490        0.577        0.113       95.625       14.215        0.022      333.176        2.319      861.326
11/02/2013  06:09:00      -72.693      -28.437       -2.871       55.413       37.917       26.399     3070.574     1437.685      696.923        0.565        0.260       78.057       30.179        0.149      333.072        2.147      861.329
11/02/2013  06:10:00      -39.763       -9.744       -0.945       32.255       24.435       20.116     1040.396      597.046      404.647        0.186        0.102       40.939       14.665        0.128      333.066        2.138      861.378
11/02/2013  06:11:00        0.134      -26.309        6.027       32.568       23.132       17.222     1060.688      535.067      296.596        0.131        0.095       26.310       14.333        0.297      333.205        2.366      861.377
11/02/2013  06:12:00      -79.591       18.293       -6.055       37.052       27.230       16.439     1372.819      741.471      270.254        0.454        0.119       81.666       12.118        0.022      333.173        2.312      861.367
11/02/2013  06:13:00      -27.301      -20.840      -14.539       25.967       22.876       13.034      674.287      523.296      169.889        0.138        0.068       34.346        9.886        0.083      333.167        2.303      861.365
11/02/2013  06:14:00      -10.311      -13.577       -3.359       17.520       17.021       15.523      306.959      289.719      240.964        0.057        0.042       17.048       11.097        0.424      333.142        2.261      861.376
11/02/2013  06:15:00      -78.634      -30.782       -8.209       19.222       15.320       12.702      369.495      234.707      161.330        0.398        0.038       84.445        7.777        0.008      333.093        2.181      861.361
11/02/2013  06:16:00      -80.664      -37.184       -4.494       26.016       17.663       14.126      676.852      311.971      199.539        0.455        0.059       88.822        9.275        0.011      333.132        2.247      861.296
11/02/2013  06:17:00      -77.857      -24.491       -6.746       30.288       26.449       14.049      917.378      699.551      197.368        0.426        0.091       81.618       11.513        0.020      333.120        2.227      861.254
11/02/2013  06:18:00     -103.739      -46.193       -7.526       13.418       13.929       13.653      180.055      194.009      186.414        0.676        0.028      113.559        9.822        0.007      332.999        2.027      861.271
11/02/2013  06:19:00      -32.485      -25.742        7.548       37.444       22.627       19.788     1402.030      511.980      391.548        0.204        0.115       41.448       19.833        0.229      332.969        1.977      861.330
11/02/2013  06:20:00      -12.269      -27.201        3.580       31.498       14.393       13.531      992.150      207.172      183.076        0.114        0.069       29.840       15.490        0.269      333.089        2.176      861.363
11/02/2013  06:21:00      -29.975      -24.741        9.556       33.779       24.737       15.020     1141.040      611.918      225.591        0.179        0.099       38.867       18.291        0.221      333.230        2.408      861.358
11/02/2013  06:22:00      -56.757      -36.963       -3.962       23.040        9.052        9.324      530.821       81.943       86.932        0.265        0.035       67.732        8.280        0.015      333.492        2.841      861.316
11/02/2013  06:23:00       -3.201      -39.688       -0.800       10.450       27.363       12.555      109.198      748.748      157.624        0.130        0.051       39.817       13.234        0.110      333.555        2.947      861.289
11/02/2013  06:24:00      -13.132      -26.935        7.300       27.439       21.630       17.897      752.925      467.858      320.317        0.125        0.077       29.966       13.744        0.210      333.377        2.651      861.326
11/02/2013  06:25:00      -89.228      -59.521        4.577       54.077       32.908       24.884     2924.357     1082.916      619.207        0.808        0.231      107.258       24.918        0.054      333.240        2.424      861.364
11/02/2013  06:26:00      -70.158      -57.959        1.656       44.997       40.125       17.671     2024.759     1610.026      312.275        0.611        0.197       91.002       13.125        0.021      333.334        2.578      861.366
11/02/2013  06:27:00       -8.436        1.284       -0.437       25.795       29.777       15.116      665.374      886.655      228.495        0.093        0.089        8.534        7.177        0.707      333.316        2.552      861.328
11/02/2013  06:28:00      -35.796       -6.045        0.545       36.673       21.176       12.395     1344.904      448.425      153.639        0.163        0.097       36.303       14.842        0.167      333.417        2.717      861.333
11/02/2013  06:29:00     -144.433      -69.275      -13.345       56.263       39.034       18.401     3165.532     1523.679      338.588        1.543        0.251      160.187       11.046        0.005      333.226        2.401      861.408
11/02/2013  06:30:00     -100.467      -62.730       -1.987       52.132       37.929       24.284     2717.759     1438.641      589.708        0.939        0.237      118.443       23.970        0.041      333.095        2.186      861.464
11/02/2013  06:31:00      -24.395      -25.558        8.560       39.687       22.182       15.293     1575.020      492.043      233.886        0.181        0.115       35.332       19.390        0.301      333.062        2.132      861.399
11/02/2013  06:32:00      -56.998       12.538        1.067       41.970       21.629       12.794     1761.456      467.834      163.696        0.290        0.120       58.360       14.478        0.062      333.141        2.261      861.294
11/02/2013  06:33:00     -149.047      -29.999      -13.600       29.338       40.348       13.841      860.699     1627.996      191.560        1.299        0.134      152.036       15.514        0.010      333.100        2.194      861.230
11/02/2013  06:34:00     -101.545      -48.304      -12.174       66.001       37.300       21.430     4356.076     1391.285      459.225        0.950        0.310      112.449       18.147        0.026      332.929        1.912      861.236
11/02/2013  06:35:00      -32.835      -40.910        3.395       44.993       22.079       20.001     2024.390      487.482      400.050        0.284        0.146       52.457       18.012        0.118      333.121        2.228      861.246
11/02/2013  06:36:00      -20.987      -41.214       -0.075       26.991       19.004       13.086      728.504      361.140      171.246        0.170        0.063       46.250       11.345        0.060      333.318        2.554      861.230
11/02/2013  06:37:00      -97.137      -41.753       -5.659       14.739       20.822        9.238      217.253      433.553       85.347        0.597        0.037      105.730        7.278        0.005      333.290        2.508      861.232
11/02/2013  06:38:00      -91.393      -37.526       -3.137       27.712       17.908       14.116      767.940      320.679      199.252        0.553        0.064       98.798       13.893        0.020      333.168        2.306      861.217
11/02/2013  06:39:00      -34.581      -34.872        2.484       26.474       14.022       13.502      700.853      196.621      182.315        0.175        0.054       49.111       11.804        0.058      333.213        2.378      861.162
11/02/2013  06:40:00      -33.722      -25.495        0.860       29.185       18.185       11.996      851.776      330.696      143.913        0.156        0.066       42.275       13.941        0.109      333.274        2.481      861.129
11/02/2013  06:41:00      -77.000      -65.680        0.155       53.083       39.822       20.308     2817.824     1585.774      412.418        0.753        0.241      101.207       15.986        0.025      333.199        2.358      861.147
11/02/2013  06:42:00     -144.116      -78.892        2.320       80.921       51.778       30.931     6548.173     2680.947      956.704        1.859        0.509      164.296       29.291        0.032      333.133        2.245      861.183
11/02/2013  06:43:00     -129.708        3.396       -5.479       57.518       40.967       35.795     3308.307     1678.330     1281.251        1.157        0.313      129.752       33.041        0.065      332.895        1.856      861.185
11/02/2013  06:44:00      -70.037      -16.080        8.886       42.911       39.547       25.085     1841.337     1563.964      629.252        0.464        0.202       71.859       25.683        0.128      332.872        1.818      861.199
11/02/2013  06:45:00     -104.297      -53.749        4.000       65.776       44.834       27.714     4326.521     2010.065      768.070        1.044        0.355      117.333       29.218        0.062      332.926        1.907      861.250
11/02/2013  06:46:00     -100.698       -8.675       -8.277       32.860       20.226       17.942     1079.807      409.083      321.915        0.605        0.091      101.071       15.315        0.023      332.936        1.924      861.213
11/02/2013  06:47:00      -18.297      -52.542      -10.780       23.133       17.122       11.269      535.121      293.148      126.997        0.208        0.048       55.637        8.402        0.023      333.009        2.043      861.196
11/02/2013  06:48:00        8.122       -0.496        5.431       29.618       26.028       24.984      877.237      677.457      624.214        0.114        0.109        8.137       22.119        7.390      333.096        2.187      861.164
11/02/2013  06:49:00      -26.284       60.785       -5.408       34.472       30.236       19.351     1188.315      914.187      374.451        0.345        0.124       66.224       19.683        0.088      333.044        2.102      861.104
11/02/2013  06:50:00      -72.496      -25.680      -15.312       50.996       45.768       19.940     2600.637     2094.673      397.591        0.562        0.255       76.910       21.121        0.075      332.942        1.932      861.145
11/02/2013  06:51:00      -33.289      -24.134        7.739       55.713       26.940       21.642     3103.888      725.784      468.384        0.302        0.215       41.117       21.499        0.273      332.900        1.865      861.206
11/02/2013  06:52:00      -50.280       34.847       -2.993       34.367       22.762       15.084     1181.059      518.106      227.515        0.284        0.096       61.175       20.385        0.111      332.806        1.708      861.102
11/02/2013  06:53:00      -45.492       36.168       -7.268       33.220       21.201       16.686     1103.584      449.503      278.420        0.263        0.092       58.117       15.898        0.075      332.814        1.721      861.040
11/02/2013  06:54:00       24.630       12.109        2.483       20.428       21.858       13.206      417.312      477.768      174.404        0.091        0.053       27.446       12.944        0.222      332.856        1.792      861.037
11/02/2013  06:55:00       -2.918      -22.380        3.207       20.436       24.979       20.651      417.620      623.946      426.443        0.099        0.073       22.569       11.389        0.255      333.025        2.069      861.117
11/02/2013  06:56:00      -84.005      -48.783        1.499       48.562       30.315       30.127     2358.273      919.025      907.624        0.681        0.209       97.142       33.535        0.119      333.105        2.202      861.191
11/02/2013  06:57:00      -81.152       28.480       -7.880       23.609       19.478        8.734      557.369      379.410       76.275        0.424        0.051       86.004        6.159        0.005      333.051        2.114      861.108
11/02/2013  06:58:00      -41.530       64.035      -11.135       23.660       28.166       15.398      559.801      793.313      237.108        0.377        0.080       76.323       17.349        0.052      333.109        2.210      861.002
11/02/2013  06:59:00      -11.018       30.907       -0.370       21.891       40.844       17.416      479.202     1668.232      303.312        0.176        0.123       32.812       17.019        0.269      333.113        2.214      860.986
11/02/2013  07:00:00       -2.006        9.937        7.363        9.869        8.996       10.321       97.390       80.936      106.531        0.022        0.014       10.137        7.672        0.573      333.043        2.101      861.006
11/02/2013  07:01:00      -45.419        5.707      -11.185       19.694       15.659       11.975      387.845      245.201      143.408        0.150        0.039       45.776        9.655        0.044      333.063        2.134      861.035
11/02/2013  07:02:00      -72.947       11.039       -7.441       16.984       14.271       10.068      288.462      203.669      101.362        0.305        0.030       73.777        6.287        0.007      332.984        2.001      861.059
11/02/2013  07:03:00       16.928       -4.359        4.810       32.576       16.337       12.580     1061.222      266.912      158.262        0.091        0.074       17.480       11.899        0.463      333.037        2.088      861.054
11/02/2013  07:04:00       45.894       19.760       19.516       28.064       20.206       16.328      787.583      408.264      266.605        0.217        0.073       49.967       13.054        0.068      333.147        2.271      861.007
11/02/2013  07:05:00       -5.509       -8.408       -4.633       22.175       15.452       11.995      491.718      238.772      143.868        0.050        0.044       10.052        8.721        0.753      333.153        2.281      861.025
11/02/2013  07:06:00       -7.485      -32.629       -8.631       28.152       28.933       13.606      792.556      837.101      185.129        0.150        0.091       33.477       10.910        0.106      333.179        2.324      861.086
11/02/2013  07:07:00      -16.142      -17.232       -6.102       21.283       28.788       16.564      452.959      828.726      274.378        0.108        0.078       23.611        8.838        0.140      333.184        2.332      861.098
11/02/2013  07:08:00      -70.162       45.822      -16.756       23.034       20.482       12.659      530.564      419.508      160.245        0.421        0.056       83.799        9.209        0.012      333.147        2.271      860.995
11/02/2013  07:09:00     -119.377       37.826      -14.840       41.374       32.511       20.541     1711.844     1056.993      421.923        0.955        0.160      125.226       19.872        0.025      332.927        1.908      860.921
11/02/2013  07:10:00     -118.850       21.496      -12.996       72.085       37.410       29.896     5196.240     1399.522      893.772        1.112        0.374      120.779       33.354        0.076      332.906        1.874      860.953
11/02/2013  07:11:00       30.120       40.616        3.402       44.315       24.346       24.080     1963.846      592.741      579.846        0.285        0.157       50.566       13.623        0.073      333.059        2.128      860.913
11/02/2013  07:12:00       -8.137      -13.097        4.136       38.948       46.667       29.404     1516.908     2177.840      864.615        0.241        0.228       15.419       35.346        5.255      333.158        2.288      860.937
11/02/2013  07:13:00      -33.696      -28.085        5.269       51.435       36.673       29.179     2645.524     1344.879      851.415        0.340        0.242       43.866       24.835        0.321      333.217        2.385      861.052
11/02/2013  07:14:00      -10.206      -19.037       10.580       38.908       31.710       21.557     1513.820     1005.524      464.712        0.178        0.149       21.600       21.725        1.012      333.203        2.363      861.042
11/02/2013  07:15:00       15.172       15.888       14.358       10.442        9.522       11.345      109.045       90.667      128.699        0.051        0.016       21.969        9.329        0.180      333.138        2.257      860.997
11/02/2013  07:16:00       14.151       26.814        3.958        6.172       13.214        7.195       38.096      174.603       51.770        0.060        0.013       30.319        7.526        0.062      333.181        2.327      860.968
11/02/2013  07:17:00       -9.224       69.610      -14.304       14.012       14.965        8.561      196.329      223.957       73.297        0.281        0.025       70.219        6.690        0.009      333.353        2.613      860.995
11/02/2013  07:18:00     -114.306      -13.863      -14.522       42.550       44.879       14.414     1810.532     2014.153      207.766        0.875        0.202      115.143       12.247        0.011      333.118        2.225      861.059
11/02/2013  07:19:00     -130.339      -35.337      -16.824       50.811       31.514       22.847     2581.744      993.137      521.989        1.131        0.205      135.045       17.678        0.017      332.984        2.002      861.068
11/02/2013  07:20:00      -14.511      -15.204       -3.528       20.013       20.548       13.305      400.502      422.208      177.024        0.073        0.050       21.017        8.998        0.183      333.091        2.178      861.090
11/02/2013  07:21:00      -28.055      -11.370        0.320       13.675       17.163       16.154      187.003      294.569      260.956        0.083        0.037       30.272       13.128        0.188      333.095        2.185      861.108
11/02/2013  07:22:00       56.628       37.158       18.230       22.498       17.183       12.849      506.144      295.263      165.089        0.294        0.048       67.731        9.757        0.021      333.141        2.262      861.062
11/02/2013  07:23:00       27.556       15.289        4.814       40.797       15.668        9.606     1664.426      245.474       92.272        0.151        0.100       31.513       12.897        0.167      333.203        2.362      861.019
11/02/2013  07:24:00     -140.401      -21.813      -17.253       68.705       34.839       13.202     4720.361     1213.763      174.289        1.330        0.305      142.086        7.159        0.003      333.072        2.145      861.047
11/02/2013  07:25:00     -185.564     -103.584      -10.562       99.187       39.591       36.447     9837.984     1567.460     1328.401        2.900        0.637      212.517       25.824        0.015      333.004        2.033      861.108
11/02/2013  07:26:00     -103.954      -72.171        5.924       88.923       52.902       38.726     7907.279     2798.612     1499.678        1.413        0.610      126.551       49.876        0.155      333.228        2.405      861.128
11/02/2013  07:27:00      -16.742      -16.517       12.611       26.375       32.128       23.278      695.628     1032.208      541.864        0.149        0.113       23.518       19.500        0.688      333.244        2.431      861.073
11/02/2013  07:28:00      -36.443      -25.488       -2.622       16.747       13.231       10.981      280.460      175.064      120.572        0.128        0.029       44.472        5.679        0.016      333.324        2.563      861.022
11/02/2013  07:29:00      -45.890      -47.371        1.610       31.161       23.128       17.912      970.996      534.905      320.855        0.309        0.091       65.954       18.076        0.075      333.460        2.788      861.067
11/02/2013  07:30:00      -90.228      -97.208        2.095       71.539       51.007       34.849     5117.830     2601.729     1214.480        1.326        0.447      132.629       25.158        0.036      333.447        2.766      861.132
11/02/2013  07:31:00     -127.566      -97.073        4.724      107.015       88.145       54.239    11452.195     7769.586     2941.873        2.394        1.108      160.300       45.412        0.080      333.227        2.401      861.144
11/02/2013  07:32:00     -171.292      -36.246      -18.965       57.615       81.048       23.661     3319.453     6568.774      559.866        2.073        0.522      175.085       29.774        0.029      333.031        2.077      861.050
11/02/2013  07:33:00      -90.027      125.182      -23.968       30.935       42.610       19.361      956.954     1815.612      374.861        1.375        0.157      154.193       15.185        0.010      333.193        2.346      860.883
11/02/2013  07:34:00      -74.861      144.060      -22.378       36.125       40.553       25.503     1305.029     1644.577      650.390        1.523        0.180      162.350       20.091        0.015      333.359        2.622      860.769
11/02/2013  07:35:00      -83.057      116.667      -11.603       48.781       61.129       30.017     2379.577     3736.699      900.998        1.383        0.351      143.212       25.487        0.032      333.217        2.385      860.770
11/02/2013  07:36:00      -78.559      -64.260       -9.132       66.241       57.576       31.852     4387.861     3315.006     1014.551        0.955        0.436      101.493       31.876        0.099      333.338        2.586      860.940
11/02/2013  07:37:00      -40.732     -201.259        8.986       51.389       84.617       30.650     2640.807     7160.073      939.435        2.649        0.537      205.339       28.026        0.019      333.352        2.607      861.116
11/02/2013  07:38:00       27.018     -102.830      -20.476       98.598       98.922       68.134     9721.637     9785.573     4642.248        1.793        1.207      106.320       65.052        0.374      333.268        2.470      861.071
11/02/2013  07:39:00       43.755      -68.898       12.036       60.316       88.537       52.547     3637.998     7838.870     2761.239        1.052        0.712       81.617       51.317        0.395      333.074        2.150      861.009
11/02/2013  07:40:00     -118.345       -3.597       -9.337       70.069       51.202       24.486     4909.727     2621.694      599.558        1.112        0.407      118.399       21.118        0.032      333.267        2.468      861.018
11/02/2013  07:41:00     -204.702      -59.260      -11.024       48.686       48.289       31.079     2370.341     2331.825      965.934        2.560        0.283      213.107       29.565        0.019      333.212        2.376      861.019
11/02/2013  07:42:00     -147.195      -57.903       -6.038       60.819       49.725       32.005     3698.993     2472.570     1024.298        1.612        0.360      158.175       26.337        0.028      333.094        2.183      861.011
11/02/2013  07:43:00       -1.645     -122.462       -9.233       30.981       62.136       20.219      959.851     3860.892      408.791        1.016        0.261      122.473       19.719        0.026      333.400        2.691      861.097
11/02/2013  07:44:00      -72.748     -139.528       -3.939       51.483       45.496       34.761     2650.473     2069.898     1208.350        1.535        0.296      157.354       20.293        0.017      333.680        3.153      861.190
11/02/2013  07:45:00      -31.088     -133.376        1.122       71.189       69.856       36.068     5067.826     4879.876     1300.871        1.500        0.562      136.951       28.731        0.044      333.526        2.898      861.215
11/02/2013  07:46:00       -1.872      -40.618       -4.820       42.432       65.335       27.613     1800.498     4268.664      762.497        0.425        0.342       40.661       27.899        0.471      333.403        2.693      861.135
11/02/2013  07:47:00     -124.058       26.956      -15.926       30.641       30.024       17.063      938.892      901.445      291.137        0.925        0.107      126.953       11.165        0.008      333.161        2.294      861.061
11/02/2013  07:48:00     -142.303       25.356      -16.298       45.786       32.422       16.188     2096.317     1051.218      262.052        1.228        0.170      144.545       17.651        0.015      333.055        2.120      861.018
11/02/2013  07:49:00      -41.867       63.040       -5.193       48.512       29.882       21.961     2353.435      892.942      482.305        0.474        0.186       75.676       22.814        0.091      333.221        2.394      860.969
11/02/2013  07:50:00       47.351       45.099       -2.579       31.528       20.016       21.527      994.007      400.634      463.429        0.307        0.093       65.391       15.406        0.056      333.305        2.533      860.924
11/02/2013  07:51:00       -2.281        1.344       -4.939       17.951       16.079       10.728      322.229      258.538      115.092        0.036        0.035        2.647        7.565        8.166      333.401        2.690      860.959
11/02/2013  07:52:00     -111.728      -61.766       -1.704       62.103       42.044       18.387     3856.732     1767.738      338.089        1.113        0.298      127.664       19.637        0.024      333.399        2.687      861.029
11/02/2013  07:53:00      -63.578      -45.323       12.515       39.402       37.049       22.372     1552.479     1372.627      500.503        0.484        0.171       78.078       16.725        0.046      333.235        2.415      861.093
11/02/2013  07:54:00      -52.572       -6.939       -3.906       34.716       20.653       13.720     1205.196      426.531      188.251        0.232        0.091       53.028       13.887        0.069      333.249        2.439      861.077
11/02/2013  07:55:00       20.494       54.607        8.790       36.648       37.072       26.212     1343.098     1374.368      687.056        0.344        0.170       58.326       22.324        0.146      333.314        2.548      860.980
11/02/2013  07:56:00      110.203       66.024        5.788       45.672       29.970       24.270     2085.946      898.193      589.046        1.005        0.179      128.467       16.772        0.017      333.290        2.508      860.891
11/02/2013  07:57:00       33.226       34.784       30.642       43.659       32.547       24.607     1906.094     1059.288      605.480        0.341        0.179       48.103       23.210        0.233      333.376        2.649      860.982
11/02/2013  07:58:00       -4.870       35.180       45.375       18.513       21.092       17.089      342.723      444.867      292.037        0.220        0.054       35.515       11.944        0.113      333.397        2.684      861.075
11/02/2013  07:59:00      -41.966       18.202        3.929       39.418       20.386       16.708     1553.749      415.573      279.147        0.218        0.112       45.743       18.507        0.164      333.352        2.611      861.122
11/02/2013  08:00:00     -151.523       -8.443       -6.480       43.589       35.872       20.636     1900.029     1286.827      425.830        1.334        0.181      151.758       15.619        0.011      333.266        2.468      861.143
11/02/2013  08:01:00     -116.586       13.217       -0.982       63.272       43.688       28.860     4003.331     1908.658      832.913        1.026        0.337      117.333       28.805        0.060      333.330        2.574      861.067
11/02/2013  08:02:00      -36.838      103.650      -11.173       36.341       37.329       25.884     1320.667     1393.442      669.972        0.780        0.169      110.002       20.159        0.034      333.408        2.702      860.901
11/02/2013  08:03:00      -33.152      123.314       -7.720       39.749       47.153       26.556     1579.947     2223.388      705.238        1.044        0.225      127.693       26.337        0.043      333.572        2.975      860.862
11/02/2013  08:04:00      -94.598        2.430      -10.412       35.532       49.402       23.065     1262.545     2440.586      532.013        0.665        0.212       94.629       24.055        0.065      333.463        2.792      860.965
11/02/2013  08:05:00      -65.604      -47.912      -11.400       66.090       41.436       18.951     4367.837     1716.908      359.127        0.659        0.322       81.237       10.097        0.015      333.452        2.777      861.074
11/02/2013  08:06:00      -48.739      -59.299        0.668       29.986       35.911       18.474      899.166     1289.618      341.278        0.421        0.127       76.759       22.108        0.083      333.478        2.817      861.074
11/02/2013  08:07:00      -40.301       18.966       -2.597       16.678       17.922       15.197      278.145      321.209      230.963        0.141        0.042       44.540        9.780        0.048      333.480        2.821      860.979
11/02/2013  08:08:00      -55.694       88.738      -15.492       38.771       45.137       19.671     1503.191     2037.367      386.947        0.757        0.196      104.767       16.467        0.025      333.539        2.919      860.919
11/02/2013  08:09:00     -157.900      -33.008      -22.199       57.585       52.385       20.272     3316.057     2744.144      410.965        1.649        0.324      161.314       17.487        0.012      333.458        2.784      860.997
11/02/2013  08:10:00     -194.378       -2.362      -18.329       55.896       61.399       26.712     3124.318     3769.868      713.533        2.286        0.380      194.393       20.824        0.011      333.344        2.595      861.039
11/02/2013  08:11:00      -51.292       34.732       -2.360       49.920       28.810       20.890     2491.999      830.003      436.383        0.380        0.188       61.945       19.233        0.096      333.517        2.883      860.948
11/02/2013  08:12:00       16.093       34.350        4.402       36.223       32.666       19.077     1312.088     1067.081      363.944        0.210        0.137       37.933       13.570        0.128      333.729        3.236      860.942
11/02/2013  08:13:00     -105.996      -41.985      -10.634       37.580       33.690       19.490     1412.238     1135.033      379.872        0.802        0.146      114.008       14.125        0.015      333.623        3.059      861.073
11/02/2013  08:14:00     -116.857      -46.590      -10.055       42.642       29.515       21.660     1818.355      871.124      469.168        0.954        0.158      125.803       21.172        0.028      333.506        2.865      861.165
11/02/2013  08:15:00      -18.227      -26.479       -3.685       22.973       16.450       15.102      527.756      270.602      228.085        0.104        0.051       32.146        9.583        0.089      333.678        3.151      861.156
11/02/2013  08:16:00      -10.433       -7.404       -7.925       10.377        9.468        9.803      107.681       89.635       96.102        0.026        0.015       12.793        6.966        0.297      333.793        3.340      861.152
11/02/2013  08:17:00      -17.125        1.806       13.557        9.681       19.311       21.457       93.727      372.923      460.389        0.070        0.046       17.220       18.752        1.186      333.920        3.551      861.153
11/02/2013  08:18:00      -15.171       13.029       10.165       17.292       11.873       19.000      299.012      140.977      360.998        0.065        0.040       19.998        9.384        0.220      334.087        3.829      861.144
11/02/2013  08:19:00      -91.243       21.814       -8.218       28.898       13.405       12.783      835.071      179.699      163.412        0.502        0.059       93.815        7.678        0.007      333.782        3.323      861.133
11/02/2013  08:20:00      -87.680       41.234      -14.553       31.812       31.500       19.148     1012.012      992.243      366.657        0.598        0.119       96.892       12.866        0.018      333.695        3.178      861.082
11/02/2013  08:21:00      -54.342       33.163      -14.533       30.350       23.435       20.874      921.125      549.202      435.713        0.308        0.095       63.662        8.179        0.017      333.906        3.528      861.046
11/02/2013  08:22:00      -12.548       18.880        6.231       24.349       29.334       14.053      592.884      860.498      197.483        0.110        0.083       22.670       16.278        0.516      334.265        4.123      861.012
11/02/2013  08:23:00       -0.396        5.788       11.166       10.669       15.964       20.591      113.835      254.844      424.009        0.048        0.040        5.802       12.924        4.962      334.511        4.531      860.987
11/02/2013  08:24:00      -15.947      -16.358        5.734       22.989       16.652       13.292      528.491      277.305      176.688        0.077        0.049       22.845        9.626        0.178      334.428        4.394      861.039
11/02/2013  08:25:00      -93.326      -31.617      -10.270       15.038       15.169       10.141      226.148      230.098      102.831        0.519        0.028       98.536        5.382        0.003      334.076        3.812      861.089
11/02/2013  08:26:00      -84.059      -53.837        0.006       28.924       20.475       15.697      836.595      419.223      246.382        0.573        0.075       99.822       11.473        0.013      334.037        3.745      861.134
11/02/2013  08:27:00      -31.455      -15.626       -1.593       17.029       21.504       10.432      289.991      462.426      108.827        0.105        0.043       35.123        6.207        0.031      334.186        3.992      861.133
11/02/2013  08:28:00      -21.530       -0.954        0.064       10.400       10.880       12.361      108.157      118.379      152.784        0.042        0.019       21.551        8.579        0.158      334.426        4.392      861.015
11/02/2013  08:29:00      -32.054       33.671       -7.845       12.174       12.512        6.586      148.205      156.562       43.377        0.129        0.017       46.489        5.414        0.014      334.332        4.236      860.886
11/02/2013  08:30:00      -58.835       37.491      -11.759       23.178       23.595       17.170      537.213      556.744      294.806        0.320        0.069       69.765       13.672        0.038      334.434        4.406      860.858
11/02/2013  08:31:00      -25.384       21.841       -6.790       21.989       36.948       13.952      483.510     1365.122      194.663        0.161        0.102       33.487       19.535        0.340      334.780        4.978      860.886
11/02/2013  08:32:00      -39.773     -103.373      -13.892       47.677       27.170       18.802     2273.128      738.228      353.513        0.791        0.168      110.761       19.876        0.032      334.530        4.563      861.015
11/02/2013  08:33:00       31.045     -126.388        9.081       71.482       95.639       53.945     5109.737     9146.783     2910.061        1.709        0.858      130.145       47.957        0.136      334.781        4.978      861.125
11/02/2013  08:34:00        4.174      -23.348       17.176       71.135       41.085       45.199     5060.162     1688.003     2042.944        0.482        0.440       23.718       41.165        3.012      334.845        5.086      861.134
11/02/2013  08:35:00      -85.177       42.568      -12.378       40.194       35.760       21.127     1615.553     1278.807      446.370        0.628        0.167       95.221       15.684        0.027      334.658        4.776      861.047
11/02/2013  08:36:00     -110.682      -55.452       -8.800       33.544       48.248       20.895     1125.195     2327.902      436.619        0.965        0.194      123.796       16.282        0.017      334.561        4.615      861.028
11/02/2013  08:37:00      -59.479      -32.209       -4.961       24.062       33.704       12.875      578.961     1135.980      165.754        0.324        0.094       67.640       10.050        0.022      334.556        4.605      861.023
11/02/2013  08:38:00      -44.145       -8.575       -6.173       24.237       15.428       10.289      587.447      238.024      105.861        0.150        0.047       44.970        9.882        0.048      334.598        4.676      861.005
11/02/2013  08:39:00      -23.167      -35.617       11.156       20.930       14.085       22.653      438.047      198.394      513.177        0.154        0.057       42.488        8.490        0.040      334.824        5.051      861.045
11/02/2013  08:40:00       20.057      -42.512       45.463       56.522       81.792       50.081     3194.697     6689.981     2508.152        0.833        0.620       47.006       28.047        0.356      335.148        5.589      861.117
11/02/2013  08:41:00       80.806       57.547       57.532       68.023       91.640       60.829     4627.154     8397.977     3700.208        1.494        0.836       99.203       59.340        0.358      334.952        5.263      861.122
11/02/2013  08:42:00      133.956       72.261        6.799       25.005       31.024       18.765      625.243      962.499      352.124        1.258        0.097      152.203       12.751        0.007      334.659        4.777      861.073
11/02/2013  08:43:00       58.890       13.435       -0.685       25.785       24.013       20.874      664.851      576.629      435.706        0.266        0.084       60.403       12.339        0.042      334.797        5.007      861.047
11/02/2013  08:44:00       59.735       34.348       10.483       34.794       28.286       23.501     1210.617      800.117      552.318        0.371        0.128       68.907       21.562        0.098      334.849        5.094      861.028
11/02/2013  08:45:00       54.479       30.707        3.876       32.838       24.975       21.094     1078.317      623.763      444.946        0.304        0.107       62.537       16.786        0.072      334.799        5.010      861.083
11/02/2013  08:46:00       96.127       82.459       20.017       28.173       23.973       31.930      793.745      574.683     1019.516        0.941        0.119      126.649       11.868        0.009      334.725        4.886      861.136
11/02/2013  08:47:00       18.118      107.242       78.531       38.272       48.564       43.438     1464.778     2358.468     1886.838        1.185        0.286      108.761       25.282        0.054      334.796        5.005      861.140
11/02/2013  08:48:00       19.297       61.905       67.831       28.974       27.823       21.017      839.477      774.130      441.694        0.543        0.103       64.843       11.198        0.030      334.645        4.753      861.186
11/02/2013  08:49:00       30.793       19.851        0.174       21.137       17.546       14.992      446.791      307.856      224.752        0.116        0.049       36.637       10.579        0.083      334.565        4.620      861.248
11/02/2013  08:50:00        7.194      -24.412       -7.832       13.527       16.976       14.141      182.991      288.190      199.973        0.069        0.034       25.450        7.359        0.084      334.706        4.856      861.274
11/02/2013  08:51:00       -7.388        9.464       24.481       14.632       14.919       22.185      214.101      222.567      492.172        0.084        0.046       12.006       13.150        1.200      334.907        5.190      861.265
11/02/2013  08:52:00       -3.860       30.241       11.957       10.269       17.477       18.753      105.446      305.443      351.685        0.092        0.038       30.486        9.519        0.097      334.806        5.020      861.290
11/02/2013  08:53:00       -9.582       -4.413       15.905       10.258       20.674        9.494      105.223      427.407       90.129        0.049        0.031       10.549        9.133        0.750      334.858        5.107      861.313
11/02/2013  08:54:00      -28.597      -36.135       -7.690       25.030       15.628       11.209      626.499      244.242      125.651        0.159        0.050       46.081       11.804        0.066      334.716        4.872      861.355
11/02/2013  08:55:00       -9.734       -7.923        9.929       30.692       24.491       17.534      941.988      599.833      307.456        0.105        0.092       12.551       18.788        2.241      334.930        5.228      861.373
11/02/2013  08:56:00        6.425       -5.461       20.514       22.084       44.982       23.388      487.700     2023.356      546.993        0.177        0.153        8.433       14.666        3.025      335.036        5.405      861.353
11/02/2013  08:57:00       -4.981        0.399       28.371       17.985       26.808       13.710      323.473      718.676      187.967        0.103        0.062        4.997        8.162        2.668      335.100        5.511      861.330
11/02/2013  08:58:00      -10.293       31.703       30.412       16.380       20.152       17.589      268.289      406.119      309.378        0.151        0.049       33.332        9.267        0.077      335.087        5.489      861.306
11/02/2013  08:59:00      -17.397        1.596        9.599       14.800       11.324       13.769      219.049      128.231      189.593        0.047        0.027       17.470        8.656        0.245      335.029        5.391      861.298
11/02/2013  09:00:00      -82.711      -70.242        2.190       48.149       43.166       23.140     2318.317     1863.312      535.476        0.825        0.236      108.513       14.325        0.017      334.879        5.144      861.314
11/02/2013  09:01:00     -129.431      -90.187      -11.227       30.120       43.332       21.088      907.233     1877.693      444.722        1.412        0.161      157.753       15.005        0.009      334.792        4.997      861.336
11/02/2013  09:02:00      -74.214        7.622       -7.216       24.245       28.190       13.620      587.810      794.683      185.508        0.359        0.078       74.604        8.826        0.014      334.790        4.995      861.298
11/02/2013  09:03:00      -51.662        0.614       -0.462       35.802       22.176       13.910     1281.793      491.754      193.483        0.232        0.098       51.665       17.062        0.109      335.006        5.353      861.271
11/02/2013  09:04:00      -60.533      -24.704        0.512       46.908       22.642       15.617     2200.317      512.661      243.885        0.362        0.148       65.380       20.448        0.098      334.978        5.307      861.306
11/02/2013  09:05:00        6.882        0.412       16.146       19.776       17.586       17.072      391.096      309.274      291.460        0.065        0.050        6.894       15.195        4.858      335.134        5.564      861.293
11/02/2013  09:06:00      -64.966       -6.501       -8.520       20.938       14.512       14.110      438.400      210.595      199.091        0.259        0.042       65.291       12.927        0.039      335.051        5.429      861.293
11/02/2013  09:07:00      -14.010        6.671        8.367       34.907       10.364       16.392     1218.513      107.411      268.692        0.095        0.080       15.517       21.393        1.901      335.146        5.586      861.303
11/02/2013  09:08:00      -18.974      -10.234        3.515       25.899       12.756       15.817      670.752      162.711      250.171        0.078        0.054       21.558       17.207        0.637      335.218        5.705      861.330
11/02/2013  09:09:00      -15.158       10.892       -6.389       25.573       13.453        8.346      654.002      180.994       69.650        0.065        0.045       18.666        9.220        0.244      335.145        5.586      861.344
11/02/2013  09:10:00       50.397       70.027       69.958       37.485       44.168       34.190     1405.097     1950.820     1168.931        0.843        0.226       86.276       30.008        0.121      335.134        5.567      861.304
11/02/2013  09:11:00       50.186      -66.472       19.856       56.479       96.685       58.014     3189.838     9348.035     3365.584        1.161        0.795       83.290       72.645        0.761      335.158        5.606      861.311
11/02/2013  09:12:00       -0.023      -48.778        5.275       68.101       52.639       33.972     4637.808     2770.891     1154.075        0.548        0.428       48.778       33.990        0.486      335.121        5.546      861.340
11/02/2013  09:13:00        8.385      -15.270       -3.966       19.666       26.336       21.070      386.758      693.587      443.950        0.092        0.076       17.420        2.923        0.028      335.205        5.684      861.337
11/02/2013  09:14:00      -36.143       31.712       -0.117       30.730       24.178       19.986      944.347      584.582      399.432        0.212        0.096       48.083       14.172        0.087      335.151        5.595      861.330
11/02/2013  09:15:00      -54.689       -7.012        7.995       32.733       27.050       21.213     1071.469      731.693      449.985        0.268        0.113       55.136       20.560        0.139      335.049        5.424      861.303
11/02/2013  09:16:00      -38.187       -0.649       -1.861       29.256       16.979       16.456      855.911      288.277      270.804        0.144        0.071       38.193       17.928        0.220      335.078        5.472      861.290
11/02/2013  09:17:00      -95.036      -16.202       -8.409       28.880       25.002       16.329      834.030      625.119      266.634        0.555        0.086       96.408       17.216        0.032      335.016        5.372      861.316
11/02/2013  09:18:00      -38.990      -42.732       -2.339       32.104       16.194       15.162     1030.683      262.254      229.893        0.244        0.076       57.847        8.713        0.023      335.075        5.470      861.342
11/02/2013  09:19:00      -26.160      -60.170       -3.663       22.376       29.083       19.554      500.668      845.832      382.378        0.302        0.086       65.611       13.892        0.045      335.225        5.715      861.342
11/02/2013  09:20:00      -49.760      -45.308        4.747       16.490       22.373       14.972      271.920      500.551      224.146        0.277        0.050       67.297        9.790        0.021      335.207        5.687      861.329
11/02/2013  09:21:00      -33.197      -31.959       15.240       17.389       27.980       19.085      302.371      782.885      364.251        0.190        0.072       46.081       12.948        0.079      335.248        5.755      861.252
11/02/2013  09:22:00       20.012       17.102       33.333       30.301       21.009       16.570      918.161      441.365      274.563        0.172        0.082       26.324       15.849        0.362      335.493        6.164      861.177
11/02/2013  09:23:00       21.305       34.522       55.639       27.480       40.777       24.384      755.164     1662.766      594.589        0.388        0.151       40.567       29.044        0.513      335.297        5.836      861.098
11/02/2013  09:24:00      -37.231      -26.775        7.268       37.356       24.174       15.327     1395.441      584.379      234.932        0.218        0.111       45.859       12.444        0.074      335.215        5.700      861.070
11/02/2013  09:25:00      -19.491      -10.092       19.689       20.532       29.433       31.341      421.564      866.316      982.271        0.157        0.114       21.949       22.693        1.069      335.324        5.883      861.066
11/02/2013  09:26:00       -1.682      -22.801       46.746       40.936       86.552       51.227     1675.724     7491.206     2624.196        0.725        0.590       22.863       57.898        6.413      335.380        5.975      861.034
11/02/2013  09:27:00       47.409      -86.998       27.725       71.462       74.264       56.444     5106.811     5515.101     3185.922        1.219        0.690       99.077       54.393        0.301      335.181        5.646      861.047
11/02/2013  09:28:00       14.201       15.057       63.053       46.884       50.305       42.456     2198.108     2530.561     1802.542        0.547        0.327       20.698       34.832        2.832      335.145        5.585      860.978
11/02/2013  09:29:00      -25.840      -31.868        0.800       31.020       26.954       17.737      962.258      726.498      314.588        0.184        0.100       41.028       12.158        0.088      335.148        5.590      860.994
11/02/2013  09:30:00      -44.449      -58.890       -9.987       36.796       29.472       22.346     1353.974      868.602      499.353        0.413        0.136       73.782       18.742        0.065      335.169        5.625      861.097
11/02/2013  09:31:00      -35.966      -30.836        2.166       41.694       33.492       27.018     1738.363     1121.685      729.957        0.292        0.180       47.375       19.588        0.171      335.141        5.579      861.160
11/02/2013  09:32:00       70.200       57.373       27.148       43.096       30.699       31.111     1857.290      942.409      967.902        0.636        0.188       90.662       21.673        0.057      335.208        5.688      861.092
11/02/2013  09:33:00       47.504       25.832       12.220       42.563       27.777       26.234     1811.620      771.576      688.201        0.317        0.164       54.074       18.670        0.119      335.121        5.545      860.989
11/02/2013  09:34:00      -12.738       41.134       -5.697       15.645       21.261       16.827      244.758      452.021      283.140        0.143        0.049       43.061       13.833        0.103      335.076        5.471      860.979
11/02/2013  09:35:00       22.235       86.226       -6.898       22.762       40.505       25.925      518.126     1640.693      672.117        0.540        0.142       89.047       26.834        0.091      335.118        5.539      860.948
11/02/2013  09:36:00        6.516      104.650      -12.469       29.138       43.553       25.012      849.042     1896.839      625.598        0.726        0.169      104.852       25.148        0.058      335.060        5.444      860.932
11/02/2013  09:37:00      -32.391       25.090        1.313       27.512       30.691       15.387      756.899      941.937      236.767        0.181        0.097       40.972       13.209        0.104      335.112        5.531      861.012
11/02/2013  09:38:00        9.868       68.597        2.451       26.906       32.596       26.143      723.953     1062.475      683.470        0.364        0.123       69.304       21.625        0.097      335.163        5.612      861.062
11/02/2013  09:39:00       76.232       64.868       -3.873       40.849       37.473       26.768     1668.662     1404.215      716.551        0.691        0.189      100.096       19.561        0.038      335.043        5.415      861.070
11/02/2013  09:40:00      117.721      117.918       72.815       61.800       43.217       63.719     3819.218     1867.716     4060.064        2.140        0.487      166.623       49.348        0.088      335.039        5.408      861.119
11/02/2013  09:41:00       16.305       80.015      123.202       47.719       98.577       44.352     2277.143     9717.453     1967.065        1.790        0.698       81.659       51.976        0.405      335.040        5.410      861.207
11/02/2013  09:42:00       65.211      -25.037       44.579       65.962       76.821       58.847     4350.969     5901.444     3463.010        1.029        0.686       69.852       61.053        0.764      335.072        5.465      861.302
11/02/2013  09:43:00       73.036       16.043       41.673       58.530       59.595       47.216     3425.767     3551.615     2229.353        0.827        0.460       74.777       43.737        0.342      335.050        5.427      861.254
11/02/2013  09:44:00      156.865       95.384       42.987       57.527       40.706       43.894     3309.340     1656.978     1926.659        2.122        0.345      183.589       33.357        0.033      334.864        5.115      861.129
11/02/2013  09:45:00       92.458       64.753       17.847       33.259       32.042       30.955     1106.184     1026.676      958.227        0.807        0.155      112.878       20.805        0.034      334.895        5.168      861.068
11/02/2013  09:46:00       83.141       71.671        5.361       37.966       30.501       29.342     1441.403      930.284      860.976        0.765        0.162      109.769       20.965        0.036      334.875        5.136      861.042
11/02/2013  09:47:00       83.660       68.400       14.739       70.418       47.353       44.265     4958.663     2242.336     1959.350        1.053        0.458      108.062       34.712        0.103      334.890        5.160      861.031
11/02/2013  09:48:00      113.036       87.732       11.059       42.429       33.119       32.717     1800.191     1096.866     1070.428        1.228        0.198      143.088       17.622        0.015      334.803        5.016      861.098
11/02/2013  09:49:00      111.334       80.923       17.368       42.640       27.016       28.939     1818.192      729.842      837.449        1.131        0.169      137.636       12.647        0.008      334.785        4.988      861.189
11/02/2013  09:50:00      118.696       86.835       31.251       60.629       34.487       38.567     3675.916     1189.356     1487.431        1.448        0.318      147.068       21.435        0.021      334.888        5.155      861.181
11/02/2013  09:51:00      154.157       92.254       35.841       45.509       36.085       39.539     2071.079     1302.161     1563.361        1.925        0.247      179.653       23.823        0.018      334.824        5.050      861.145
11/02/2013  09:52:00       52.208       54.619       -8.997       44.871       37.910       25.653     2013.381     1437.197      658.087        0.495        0.205       75.557       22.795        0.091      334.829        5.060      861.084
11/02/2013  09:53:00       -5.208      111.935      -13.995       45.086       37.804       20.713     2032.724     1429.147      429.043        0.832        0.195      112.056       12.480        0.012      334.836        5.071      861.029
11/02/2013  09:54:00      -40.657       57.532       -9.419       37.007       38.060       21.338     1369.497     1448.534      455.289        0.416        0.164       70.448       18.506        0.069      334.852        5.098      861.013
11/02/2013  09:55:00       -5.247       82.229       -1.519       27.847       37.232       19.709      775.478     1386.189      388.427        0.467        0.128       82.396       20.407        0.061      334.922        5.214      860.975
11/02/2013  09:56:00       17.395       61.601       -6.576       13.508       43.384       15.977      182.471     1882.188      255.258        0.323        0.116       64.010       20.864        0.106      334.824        5.049      860.897
11/02/2013  09:57:00        9.045       77.137      -10.412       19.533       17.517       12.135      381.544      306.857      147.257        0.349        0.042       77.665       10.629        0.019      334.797        5.007      860.840
11/02/2013  09:58:00      -25.903       68.281       -9.379       29.564       27.260       14.392      874.019      743.096      207.134        0.362        0.091       73.029        4.042        0.003      334.823        5.051      860.809
11/02/2013  09:59:00      -74.152       32.639       -1.720       37.207       47.174       22.730     1384.354     2225.346      516.635        0.535        0.206       81.018        9.294        0.013      334.871        5.129      860.805
11/02/2013  10:00:00      -78.595      -16.543       -7.052       41.703       14.268       15.022     1739.146      203.572      225.656        0.433        0.108       80.317       18.048        0.050      334.861        5.111      860.813
11/02/2013  10:01:00      -43.947      -12.347       -3.861       23.810       18.002       13.293      566.903      324.086      176.694        0.158        0.053       45.648        9.434        0.043      334.930        5.228      860.803
11/02/2013  10:02:00      -43.175      -39.691        6.175       42.187       25.330       24.364     1779.704      641.616      593.617        0.325        0.151       58.647       21.090        0.129      334.985        5.319      860.858
11/02/2013  10:03:00      -31.944      -78.448        0.579       21.260       19.626       13.840      451.984      385.165      191.554        0.410        0.051       84.702        9.459        0.012      335.030        5.395      860.853
11/02/2013  10:04:00      -57.883      -81.400       -0.819       40.302       33.575       24.554     1624.236     1127.288      602.875        0.667        0.168       99.882       25.216        0.064      335.029        5.393      860.847
11/02/2013  10:05:00      -64.561      -65.402        2.183       53.986       40.327       20.788     2914.460     1626.301      432.124        0.671        0.249       91.900       28.677        0.097      335.044        5.418      860.832
11/02/2013  10:06:00      -48.940      -23.237       -2.537       18.269       22.638       11.760      333.742      512.466      138.292        0.196        0.049       54.176        9.536        0.031      335.109        5.526      860.824
11/02/2013  10:07:00       -9.788        1.287       11.652       13.515       13.105       12.485      182.653      171.746      155.877        0.037        0.026        9.872        7.927        0.645      335.455        6.100      860.822
11/02/2013  10:08:00      -62.598       -7.250      -14.600       29.407       29.541       16.507      864.749      872.658      272.493        0.310        0.100       63.017       14.653        0.054      335.219        5.707      860.815
11/02/2013  10:09:00      -48.855      -17.853       -8.644       20.541       28.578       15.420      421.938      816.709      237.762        0.213        0.074       52.014       13.080        0.063      335.257        5.768      860.808
11/02/2013  10:10:00      -48.382        3.389       -4.507       10.870       35.263       10.002      118.157     1243.502      100.042        0.192        0.073       48.501        5.375        0.012      335.255        5.765      860.793
11/02/2013  10:11:00      -79.259        0.388       -8.288       36.345       52.607       19.941     1320.965     2767.479      397.654        0.542        0.224       79.260       15.446        0.038      335.353        5.931      860.791
11/02/2013  10:12:00      -73.751      -11.534       -2.632       23.310       24.023       12.327      543.361      577.098      151.964        0.343        0.064       74.647        9.339        0.016      335.259        5.773      860.798
11/02/2013  10:13:00      -37.770       23.336       -2.054       13.050       15.323       11.581      170.301      234.790      134.128        0.126        0.027       44.397       10.030        0.051      335.341        5.909      860.785
11/02/2013  10:14:00      -25.812       -4.020       -8.619       10.858       10.024        7.463      117.889      100.486       55.691        0.052        0.014       26.123        5.415        0.043      335.447        6.086      860.801
11/02/2013  10:15:00       -9.269       -3.279       -4.086       21.140       10.435       11.822      446.901      108.898      139.762        0.040        0.035        9.832       11.804        1.441      335.664        6.448      860.800
11/02/2013  10:16:00      -31.783      -26.184        1.712       32.326       18.470       14.819     1044.998      341.158      219.598        0.165        0.080       41.179       14.081        0.117      335.445        6.083      860.794
11/02/2013  10:17:00      -33.310       -8.860        5.358       11.343       17.850       10.763      128.653      318.635      115.843        0.089        0.028       34.468        3.316        0.009      335.444        6.081      860.768
11/02/2013  10:18:00      -19.514       14.973        6.667       28.165       16.165       13.900      793.249      261.296      193.199        0.095        0.062       24.597       16.593        0.455      335.613        6.361      860.698
11/02/2013  10:19:00       59.154       45.875        0.651       34.283       20.274       16.754     1175.334      411.022      280.706        0.374        0.093       74.858       15.959        0.045      335.536        6.235      860.648
11/02/2013  10:20:00       17.440       45.812       47.725       28.679       34.253       38.676      822.460     1173.256     1495.818        0.409        0.175       49.019       32.675        0.444      335.724        6.548      860.647
11/02/2013  10:21:00       17.973       24.487       56.721       27.119       85.517       48.569      735.447     7313.086     2358.984        0.727        0.520       30.375       60.544        3.973      335.662        6.446      860.671
11/02/2013  10:22:00       42.255      -63.552      -19.181       40.346       50.597       32.648     1627.822     2560.085     1065.919        0.572        0.263       76.318       29.496        0.149      335.686        6.486      860.683
11/02/2013  10:23:00        5.130      -19.475       16.413       22.379       38.075       36.399      500.820     1449.683     1324.899        0.197        0.164       20.139       26.907        1.785      335.919        6.873      860.635
11/02/2013  10:24:00       24.259       48.294       59.905       36.956       34.404       32.311     1365.777     1183.640     1043.999        0.505        0.180       54.045       32.981        0.372      335.770        6.626      860.591
11/02/2013  10:25:00        7.985      -68.352      -16.583       22.533       30.625       23.456      507.729      937.897      550.174        0.350        0.100       68.817       15.604        0.051      335.828        6.723      860.621
11/02/2013  10:26:00       24.354        4.789       33.251       28.260       31.318       27.377      798.603      980.843      749.527        0.212        0.126       24.820       20.633        0.691      336.013        7.028      860.630
11/02/2013  10:27:00       33.050       11.799       41.336       20.163       19.360       14.615      406.526      374.820      213.596        0.197        0.050       35.093       10.884        0.096      335.951        6.927      860.630
11/02/2013  10:28:00       18.956       15.828       25.111       13.317       28.267       22.639      177.343      799.010      512.544        0.136        0.074       24.695       21.597        0.765      335.960        6.943      860.653
11/02/2013  10:29:00       24.488       61.545       46.196       25.539       24.208       31.819      652.231      586.014     1012.452        0.439        0.113       66.237       19.936        0.091      335.791        6.660      860.661
11/02/2013  10:30:00       50.281       46.548       40.530       45.444       41.292       40.117     2065.199     1705.061     1609.410        0.586        0.269       68.519       34.453        0.253      335.788        6.655      860.658
11/02/2013  10:31:00       52.541       49.546       37.450       28.871       27.940       34.368      833.553      780.628     1181.180        0.471        0.140       72.218       25.690        0.127      335.733        6.565      860.644
11/02/2013  10:32:00       80.994       47.710       11.171       26.599       18.505       22.703      707.493      342.431      515.438        0.526        0.078       94.001        6.144        0.004      335.633        6.398      860.649
11/02/2013  10:33:00       86.420       46.518        7.974       38.505       26.254       24.550     1482.673      689.259      602.721        0.623        0.139       98.144       17.288        0.031      335.762        6.612      860.631
11/02/2013  10:34:00      134.625       73.165        0.956       34.681       33.627       32.334     1202.768     1130.760     1045.501        1.343        0.169      153.223       13.537        0.008      335.774        6.632      860.611
11/02/2013  10:35:00       96.616       83.362       45.728       48.285       32.123       35.934     2331.410     1031.857     1291.252        1.151        0.233      127.608       27.898        0.048      335.816        6.702      860.595
11/02/2013  10:36:00       38.214       18.775        4.357       31.569       22.156       19.025      996.574      490.883      361.932        0.184        0.092       42.577       10.907        0.066      335.668        6.456      860.593
11/02/2013  10:37:00       33.661       28.430       27.861       20.035       16.229       14.083      401.386      263.391      198.318        0.179        0.043       44.061        9.377        0.045      335.739        6.574      860.592
11/02/2013  10:38:00       17.416       32.580       40.053       17.909       13.910       10.536      320.718      193.477      111.010        0.180        0.031       36.943        7.722        0.044      335.837        6.737      860.586
11/02/2013  10:39:00       22.535       45.544        5.618       22.081       13.120       19.631      487.551      172.146      385.359        0.183        0.052       50.814       13.470        0.070      335.814        6.699      860.552
11/02/2013  10:40:00        7.684       53.864       -1.349       16.466       32.983       18.138      271.124     1087.896      328.975        0.232        0.084       54.410       20.228        0.138      335.859        6.774      860.512
11/02/2013  10:41:00        2.677       42.951       -0.707       17.486       31.729       19.524      305.751     1006.755      381.173        0.177        0.085       43.035       21.794        0.256      335.863        6.778      860.475
11/02/2013  10:42:00      -10.514       53.903       -1.875       14.437       30.538       16.053      208.420      932.585      257.709        0.221        0.070       54.919       17.107        0.097      335.842        6.746      860.440
11/02/2013  10:43:00      -44.587       36.078        0.196       30.791       17.164       16.754      948.108      294.616      280.699        0.241        0.076       57.356       18.557        0.105      335.840        6.741      860.412
11/02/2013  10:44:00       -8.577       53.826        2.683       22.306       34.778       16.555      497.542     1209.529      274.071        0.248        0.099       54.505       15.816        0.084      336.119        7.206      860.369
11/02/2013  10:45:00        1.242       59.656       -3.923       11.052       23.982       16.608      122.148      575.122      275.827        0.227        0.049       59.669       17.757        0.089      335.985        6.981      860.376
11/02/2013  10:46:00      -27.555       26.822       -2.364       23.997       29.855       14.082      575.850      891.340      198.314        0.157        0.083       38.453        7.907        0.042      335.943        6.912      860.382
11/02/2013  10:47:00      -40.386       -1.576       -0.350       25.710       27.074       12.918      660.986      733.015      166.871        0.160        0.078       40.416       10.129        0.063      335.949        6.922      860.392
11/02/2013  10:48:00      -19.313       16.248       -1.530       24.937       26.888       15.308      621.851      722.984      234.346        0.111        0.079       25.239        6.734        0.071      336.067        7.119      860.368
11/02/2013  10:49:00      -17.265      -22.444       21.685       20.916       18.444       11.258      437.472      340.184      126.750        0.109        0.045       28.317        7.132        0.063      336.264        7.449      860.359
11/02/2013  10:50:00      -42.949      -28.063        0.448       12.865       22.018       15.752      165.515      484.772      248.136        0.177        0.045       51.304       10.450        0.041      336.185        7.317      860.377
11/02/2013  10:51:00      -92.358        0.697       -8.567       19.911       24.131       14.432      396.446      582.326      208.268        0.490        0.059       92.360       13.602        0.022      336.088        7.154      860.391
11/02/2013  10:52:00      -26.104       17.475        5.078       24.643       17.338       15.922      607.290      300.609      253.523        0.109        0.058       31.413       15.552        0.245      336.302        7.514      860.359
11/02/2013  10:53:00      -99.862       33.157      -10.822       42.847       16.128       13.005     1835.899      260.126      169.128        0.673        0.113      105.222       17.801        0.029      336.173        7.296      860.343
11/02/2013  10:54:00      -97.263       26.670      -10.494       30.960       17.931        9.153      958.535      321.533       83.770        0.582        0.068      100.853        6.065        0.004      336.217        7.370      860.352
11/02/2013  10:55:00      -62.629      -31.919      -10.510       60.215       37.995       26.412     3625.850     1443.619      697.601        0.541        0.288       70.294       21.161        0.091      336.307        7.519      860.405
11/02/2013  10:56:00       17.123      -63.567        2.073       39.753       31.650       22.412     1580.322     1001.697      502.317        0.371        0.154       65.833       14.658        0.050      336.424        7.717      860.429
11/02/2013  10:57:00      -34.428      -65.859        1.809       27.728       29.124       15.395      768.856      848.200      236.992        0.369        0.093       74.315       13.481        0.033      336.401        7.678      860.444
11/02/2013  10:58:00      -60.087      -58.962        4.045       26.740       26.664       18.891      715.002      710.970      356.874        0.444        0.089       84.184       13.953        0.027      336.412        7.695      860.428
11/02/2013  10:59:00      -41.207      -22.848        2.442       24.234       14.220       12.205      587.296      202.208      148.958        0.158        0.047       47.118       13.058        0.077      336.473        7.800      860.401
11/02/2013  11:00:00      -49.351       -9.392       -3.857       13.043       21.183       11.741      170.120      448.712      137.851        0.165        0.038       50.236        7.361        0.021      336.478        7.806      860.401
11/02/2013  11:01:00      -55.900       25.265      -13.516       11.788       11.401        8.120      138.955      129.988       65.939        0.214        0.017       61.344        3.859        0.004      336.547        7.921      860.386
11/02/2013  11:02:00      -31.690       19.321       -6.050        9.109       10.002        9.888       82.979      100.045       97.775        0.085        0.014       37.115        4.483        0.015      336.564        7.948      860.374
11/02/2013  11:03:00      -46.480       29.603       -2.833       18.598       10.624       11.037      345.890      112.874      121.822        0.181        0.029       55.106        5.380        0.010      336.641        8.080      860.368
11/02/2013  11:04:00      -90.885       20.315       -6.918       12.091       12.022        6.694      146.199      144.518       44.814        0.453        0.017       93.128        2.428        0.001      336.572        7.969      860.409
11/02/2013  11:05:00      -34.353       17.317       -4.605       17.252       16.487       10.128      297.630      271.834      102.582        0.109        0.034       38.471       10.660        0.077      336.674        8.136      860.420
11/02/2013  11:06:00       55.740       63.777       20.198       46.407       48.185       26.425     2153.564     2321.799      698.288        0.638        0.259       84.702       15.974        0.036      336.835        8.402      860.393
11/02/2013  11:07:00       -8.829       64.822       82.691       17.724       46.250       29.022      314.130     2139.101      842.274        0.721        0.165       65.420       19.669        0.090      336.934        8.568      860.387
11/02/2013  11:08:00        7.975       25.343       39.122       24.860       40.395       26.685      618.038     1631.721      712.110        0.260        0.148       26.568       29.964        1.272      336.936        8.572      860.419
11/02/2013  11:09:00       52.131       29.652        2.560       25.357       19.810       19.618      642.968      392.456      384.876        0.251        0.071       59.974       12.499        0.043      336.840        8.410      860.427
11/02/2013  11:10:00       74.854       42.044        1.999       28.436       21.290       19.426      808.623      453.261      377.377        0.451        0.082       85.853       10.252        0.014      336.761        8.281      860.403
11/02/2013  11:11:00       -1.440       10.535        6.370       41.832       16.681       20.138     1749.941      278.272      405.541        0.129        0.122       10.633       12.728        1.433      336.808        8.359      860.404
11/02/2013  11:12:00       31.712       26.075        5.990       33.440       24.166       19.762     1118.219      583.986      390.520        0.191        0.105       41.056       17.729        0.186      336.810        8.362      860.398
11/02/2013  11:13:00       51.848       53.086       13.563       28.356       30.092       35.459      804.045      905.542     1257.367        0.433        0.148       74.204       13.987        0.036      336.912        8.532      860.348
11/02/2013  11:14:00       75.075       58.091       10.530       36.724       22.212       27.275     1348.670      493.355      743.938        0.585        0.129       94.925       23.214        0.060      336.766        8.287      860.341
11/02/2013  11:15:00       66.474       27.714       -0.285       15.583       13.984       12.755      242.824      195.564      162.690        0.289        0.030       72.020        6.291        0.008      336.715        8.203      860.326
11/02/2013  11:16:00       63.825       38.257       25.858       28.390       25.230       32.415      805.997      636.572     1050.700        0.435        0.125       74.413       21.465        0.083      336.940        8.578      860.310
11/02/2013  11:17:00       53.719       42.453       35.100       48.029       39.565       44.459     2306.742     1565.401     1976.595        0.588        0.292       68.469       41.595        0.369      337.060        8.779      860.287
11/02/2013  11:18:00       20.215       45.838        0.246       19.530       34.574       17.333      381.404     1195.362      300.425        0.219        0.094       50.098       18.501        0.136      337.054        8.769      860.274
11/02/2013  11:19:00      105.799       72.926       24.949       46.028       34.445       32.830     2118.559     1186.426     1077.787        1.076        0.219      128.498       21.222        0.027      337.063        8.785      860.263
11/02/2013  11:20:00      -14.287      -30.796        7.527       37.642       39.985       28.682     1416.898     1598.831      822.656        0.252        0.192       33.948       21.077        0.385      337.267        9.127      860.295
11/02/2013  11:21:00      -25.132       20.680        5.616       40.609       32.093       24.094     1649.059     1029.979      580.515        0.217        0.163       32.547       21.212        0.425      337.219        9.046      860.335
11/02/2013  11:22:00       83.444       38.647        5.527       33.371       16.351       24.923     1113.623      267.366      621.174        0.524        0.100       91.960       21.386        0.054      337.158        8.942      860.318
11/02/2013  11:23:00      -23.162       11.028        5.434       35.254       28.274       20.758     1242.820      799.404      430.908        0.158        0.124       25.653       21.653        0.712      337.435        9.407      860.329
11/02/2013  11:24:00       -2.721       15.389        0.815       37.192       16.388       15.680     1383.277      268.567      245.856        0.107        0.095       15.627       17.989        1.325      337.368        9.296      860.333
11/02/2013  11:25:00       33.991       31.856       25.476       38.595       31.098       29.825     1489.604      967.078      889.544        0.308        0.167       46.585       28.273        0.368      337.558        9.612      860.298
11/02/2013  11:26:00        8.222       37.469       52.688       32.600       37.013       16.922     1062.755     1369.982      286.349        0.348        0.136       38.360       19.234        0.251      337.612        9.703      860.275
11/02/2013  11:27:00       90.381      109.463       75.910       35.024       39.029       42.776     1226.649     1523.278     1829.773        1.525        0.229      141.953       30.379        0.046      337.341        9.249      860.212
11/02/2013  11:28:00       39.890      -72.666       22.517       53.250       70.490       51.704     2835.513     4968.884     2673.311        0.893        0.524       82.895       55.421        0.447      337.512        9.537      860.189
11/02/2013  11:29:00       50.561      -32.692        7.274       51.378       49.069       34.090     2639.748     2407.771     1162.103        0.494        0.310       60.210       41.012        0.464      337.726        9.894      860.189
11/02/2013  11:30:00       56.297       16.684       42.643       44.707       89.378       60.082     1998.738     7988.403     3609.903        0.943        0.680       58.717       63.699        1.177      337.737        9.913      860.154
11/02/2013  11:31:00       86.194       51.043       28.461       71.124       43.181       32.242     5058.560     1864.561     1039.574        0.940        0.398      100.174       22.176        0.049      337.601        9.685      860.095
11/02/2013  11:32:00       35.238       -1.965        4.724       31.207       21.001       20.724      973.875      441.044      429.471        0.156        0.092       35.293        5.867        0.028      337.800       10.019      860.107
11/02/2013  11:33:00       58.591       40.986        6.962       46.187       41.212       16.462     2133.231     1698.394      270.991        0.463        0.205       71.503       20.488        0.082      337.575        9.641      860.063
11/02/2013  11:34:00       43.562     -100.813      -20.405       46.177       35.742       22.460     2132.343     1277.483      504.437        0.820        0.196      109.822       21.152        0.037      337.797       10.014      860.085
11/02/2013  11:35:00       45.725       20.700        2.672       25.190       29.244       24.486      634.542      855.230      599.556        0.231        0.104       50.192       18.513        0.136      337.835       10.078      860.083
11/02/2013  11:36:00        7.542      -23.692       12.042       26.728       33.100       19.544      714.375     1095.592      381.981        0.148        0.110       24.863       18.884        0.577      338.041       10.422      860.091
11/02/2013  11:37:00       -0.330        7.357       25.819       19.339       16.702       11.687      374.009      278.962      136.578        0.076        0.039        7.364       12.435        2.851      338.263       10.797      860.072
11/02/2013  11:38:00       79.954       61.819       24.435       26.699       22.179       16.800      712.835      491.905      282.255        0.615        0.074      101.065       10.697        0.011      337.881       10.156      860.026
11/02/2013  11:39:00        8.352        8.492       35.154       20.222       69.860       45.643      408.937     4880.423     2083.255        0.437        0.369       11.911       52.339       19.309      338.251       10.775      859.995
11/02/2013  11:40:00      -26.312      -48.527       -2.037       36.972       61.928       47.372     1366.897     3835.021     2244.091        0.525        0.372       55.201       45.725        0.686      338.210       10.706      859.986
11/02/2013  11:41:00      -20.917      -17.929       15.434       31.949       32.887       29.240     1020.751     1081.528      854.949        0.198        0.148       27.549       16.116        0.342      338.332       10.912      859.972
11/02/2013  11:42:00       12.236       53.283       86.174       45.957       55.800       37.432     2112.009     3113.636     1401.181        0.852        0.331       54.670       30.913        0.320      338.338       10.921      859.895
11/02/2013  11:43:00       76.410      -82.178       -5.422       80.928       81.980       59.102     6549.287     6720.703     3493.019        1.469        0.838      112.213       63.631        0.322      338.137       10.582      859.849
11/02/2013  11:44:00       72.294      -53.674       26.226       66.271       95.545       68.610     4391.873     9128.933     4707.286        1.351        0.911       90.040       68.338        0.576      338.127       10.567      859.803
11/02/2013  11:45:00       95.933     -127.082      -14.690       66.273       84.203       48.098     4392.090     7090.075     2313.392        1.968        0.690      159.226       54.554        0.117      338.021       10.388      859.782
11/02/2013  11:46:00       38.015      -19.873       38.035       66.289      109.249       64.880     4394.216    11935.250     4209.448        1.191        1.027       42.896       75.078        3.063      338.285       10.831      859.800
11/02/2013  11:47:00        6.670       18.779       65.771       35.743       55.839       53.516     1277.529     3117.951     2863.917        0.599        0.363       19.928       44.518        4.990      338.253       10.779      859.829
11/02/2013  11:48:00       33.477      -40.895        9.868       41.104       40.154       35.836     1689.556     1612.356     1284.225        0.374        0.229       52.850       28.329        0.287      338.178       10.653      859.885
11/02/2013  11:49:00       33.504      -37.828       -0.966       19.264       34.844       21.527      371.092     1214.086      463.417        0.230        0.102       50.532       19.661        0.151      338.111       10.541      859.922
11/02/2013  11:50:00       67.100       34.919       15.122       40.766       31.085       26.567     1661.865      966.304      705.801        0.464        0.167       75.642       18.932        0.063      338.301       10.861      859.921
11/02/2013  11:51:00       51.903       35.951        0.160       39.148       31.717       28.149     1532.580     1005.977      792.356        0.366        0.167       63.138        9.593        0.023      338.509       11.208      859.921
11/02/2013  11:52:00      149.114      115.172       -3.224       41.974       46.908       33.189     1761.832     2200.391     1101.506        2.029        0.253      188.413       12.578        0.004      338.418       11.055      859.867
11/02/2013  11:53:00       60.757       55.797       29.024       80.148       80.730       39.982     6423.778     6517.336     1598.563        1.109        0.727       82.490       47.336        0.329      338.617       11.390      859.788
11/02/2013  11:54:00        9.723        7.037       41.324       35.595       62.691       45.286     1267.005     3930.144     2050.831        0.455        0.362       12.002       47.932       15.948      338.814       11.721      859.792
11/02/2013  11:55:00      125.976       72.553       41.389       37.623       31.828       37.416     1415.470     1013.043     1399.926        1.334        0.191      145.375       21.388        0.022      338.272       10.812      859.762
11/02/2013  11:56:00       43.375       32.097       37.859       46.785       38.513       28.012     2188.835     1483.259      784.659        0.440        0.223       53.959       25.881        0.230      338.599       11.360      859.746
11/02/2013  11:57:00       59.170       57.511       62.535       65.030       35.006       34.301     4228.934     1225.430     1176.585        0.867        0.332       82.515       32.434        0.155      338.617       11.390      859.731
11/02/2013  11:58:00       92.014       56.912       43.101       41.051       39.247       37.081     1685.171     1540.324     1374.980        0.908        0.230      108.192       22.713        0.044      338.560       11.294      859.721
11/02/2013  11:59:00       80.907       99.017      104.072       77.392       53.996       40.991     5989.450     2915.617     1680.236        1.888        0.529      127.869       37.726        0.087      338.700       11.528      859.713
11/02/2013  12:00:00       29.111       78.354      100.810       49.644       70.024       51.798     2464.505     4903.332     2683.035        1.360        0.503       83.587       45.626        0.298      338.992       12.019      859.703
11/02/2013  12:01:00      126.001        8.658       58.382       76.791      118.701       70.237     5896.850    14089.836     4933.238        2.214        1.246      126.298       65.231        0.267      338.790       11.679      859.698
11/02/2013  12:02:00       95.710       16.479       65.052       72.204      103.274       62.077     5213.468    10665.580     3853.512        1.669        0.987       97.118       66.574        0.470      338.777       11.657      859.701
11/02/2013  12:03:00      102.272     -129.565        4.960       62.528       82.236       55.728     3909.751     6762.759     3105.596        2.052        0.689      165.065       62.201        0.142      338.841       11.765      859.727
11/02/2013  12:04:00       57.556       86.049      115.664       65.743      134.695       82.312     4322.101    18142.707     6775.284        2.666        1.462      103.523       94.663        0.836      338.851       11.782      859.711
11/02/2013  12:05:00      131.021       95.057       40.785       69.532       72.985       62.223     4834.661     5326.749     3871.696        2.095        0.702      161.871       48.011        0.088      338.631       11.412      859.662
11/02/2013  12:06:00       29.637       77.608       97.180       58.647       65.662       49.043     3439.476     4311.483     2405.229        1.325        0.508       83.074       50.974        0.376      338.915       11.891      859.627
11/02/2013  12:07:00       18.101       54.100       65.945       42.687       42.895       40.710     1822.169     1839.988     1657.324        0.646        0.266       57.048       32.388        0.322      339.114       12.226      859.615
11/02/2013  12:08:00       92.799       79.025       82.945       82.572       67.105       54.012     6818.162     4503.053     2917.273        1.799        0.712      121.888       66.296        0.296      339.044       12.107      859.597
11/02/2013  12:09:00        8.239       93.614      111.487       44.934       56.190       35.177     2019.034     3157.281     1237.394        1.384        0.321       93.976       28.332        0.091      339.215       12.395      859.605
11/02/2013  12:10:00      137.988      101.757       51.174       62.512       48.032       54.073     3907.761     2307.034     2923.912        2.057        0.457      171.450       35.079        0.042      339.069       12.149      859.567
11/02/2013  12:11:00      168.395       53.092       39.567       80.354       57.482       57.562     6456.841     3304.156     3313.425        2.291        0.654      176.566       49.546        0.079      338.992       12.019      859.500
11/02/2013  12:12:00      100.548       92.304       87.526       86.947       59.750       58.483     7559.734     3570.108     3420.305        2.042        0.728      136.491       60.378        0.196      339.133       12.257      859.445
11/02/2013  12:13:00      148.878       76.157       54.471       68.899       55.177       51.904     4747.103     3044.482     2694.031        2.071        0.524      167.226       24.577        0.022      339.136       12.261      859.429
11/02/2013  12:14:00      115.753       85.268       27.646       67.203       79.390       42.493     4516.308     6302.801     1805.648        1.703        0.631      143.769       34.766        0.058      339.135       12.260      859.404
11/02/2013  12:15:00      176.732      140.068       15.058       71.347       54.605       45.886     5090.357     2981.750     2105.526        3.063        0.509      225.506       37.711        0.028      338.995       12.023      859.390
11/02/2013  12:16:00      146.778       91.507       11.789       74.310       71.897       49.660     5521.960     5169.183     2466.094        2.160        0.658      172.966       37.719        0.048      339.069       12.149      859.382
11/02/2013  12:17:00       62.260       35.022       -4.178       84.843       66.665       33.475     7198.272     4444.217     1120.603        0.894        0.638       71.434       19.411        0.074      339.152       12.289      859.384
11/02/2013  12:18:00      -72.414      -18.609       -3.185       54.656       37.465       28.173     2987.325     1403.648      793.730        0.539        0.259       74.767       23.938        0.103      339.407       12.719      859.398
11/02/2013  12:19:00      -40.746      -79.000       -3.577       32.048       31.948       18.108     1027.089     1020.657      327.889        0.514        0.119       88.889       14.904        0.028      339.378       12.670      859.403
11/02/2013  12:20:00      -22.768      -61.828      -11.887       49.028       32.272       24.993     2403.788     1041.493      624.663        0.428        0.203       65.887       26.888        0.167      339.495       12.868      859.415
11/02/2013  12:21:00       22.350     -130.752       -0.145       93.395       66.428       47.380     8722.701     4412.661     2244.899        1.649        0.769      132.648       35.325        0.071      339.755       13.305      859.410
11/02/2013  12:22:00      -32.225      -32.398       -2.931       73.999       57.521       37.128     5475.897     3308.648     1378.497        0.613        0.508       45.696       26.563        0.338      339.776       13.341      859.392
11/02/2013  12:23:00      -27.621        5.334      -13.087       37.447       37.772       26.303     1402.303     1426.730      691.871        0.224        0.176       28.132       17.219        0.375      339.870       13.501      859.361
11/02/2013  12:24:00      -52.706      -18.373       -2.881       19.635       31.416       20.700      385.528      986.971      428.506        0.246        0.090       55.817       13.199        0.056      339.872       13.503      859.305
11/02/2013  12:25:00       21.955       30.458       29.203       20.824       22.517       14.284      433.639      507.022      204.026        0.170        0.057       37.546        6.179        0.027      340.272       14.177      859.243
11/02/2013  12:26:00        7.389      -53.568       21.677       41.302       56.754       34.356     1705.842     3220.976     1180.305        0.475        0.305       54.076       36.183        0.448      340.298       14.223      859.212
11/02/2013  12:27:00       68.017      -79.411      -11.820       44.639       38.406       21.590     1992.609     1475.003      466.140        0.750        0.197      104.559       14.262        0.019      340.148       13.968      859.215
11/02/2013  12:28:00      -62.889      -32.391        9.579       64.247       39.564       23.390     4127.719     1565.332      547.079        0.567        0.312       70.740       33.133        0.219      340.240       14.125      859.198
11/02/2013  12:29:00      -70.884      -56.256        9.559       62.614       47.292       24.757     3920.521     2236.553      612.912        0.752        0.338       90.495       18.883        0.044      340.206       14.066      859.202
11/02/2013  12:30:00      -81.041      -68.334        9.668       62.486       41.265       36.134     3904.463     1702.813     1305.672        0.912        0.346      106.005       39.078        0.136      340.016       13.746      859.182
11/02/2013  12:31:00      -44.033      -85.922        1.882       40.924       37.507       19.782     1674.773     1406.752      391.316        0.640        0.174       96.548       20.934        0.047      339.920       13.583      859.167
11/02/2013  12:32:00      -88.064      -62.641        3.241       26.547       24.849       22.985      704.743      617.495      528.327        0.677        0.093      108.071       21.418        0.039      339.999       13.719      859.151
11/02/2013  12:33:00      -61.747      -36.311       -2.262       38.114       20.148       15.552     1452.684      405.944      241.877        0.362        0.105       71.632       18.514        0.067      340.121       13.923      859.143
11/02/2013  12:34:00       -9.527      -60.066        9.294       45.118       43.795       25.423     2035.678     1917.982      646.304        0.419        0.230       60.817       31.370        0.266      340.239       14.121      859.153
11/02/2013  12:35:00      -47.864      -86.755       -2.121       31.590       51.284       17.019      997.944     2630.037      289.659        0.687        0.196       99.083       20.690        0.044      340.127       13.933      859.151
11/02/2013  12:36:00      -46.792      -32.226       -4.048       22.438       31.579       19.584      503.458      997.211      383.549        0.256        0.094       56.815       13.598        0.057      340.201       14.057      859.137
11/02/2013  12:37:00      -64.417      -56.106       -2.966       73.114       54.515       31.149     5345.670     2971.850      970.246        0.830        0.464       85.425       26.490        0.096      340.309       14.241      859.131
11/02/2013  12:38:00      -99.003     -171.220       -6.979       65.669       69.425       35.472     4312.469     4819.774     1258.229        2.478        0.520      197.782       32.139        0.026      340.140       13.952      859.136
11/02/2013  12:39:00     -131.511     -204.453       -3.944       73.217       77.645       47.422     5360.688     6028.798     2248.846        3.637        0.682      243.097       46.938        0.037      340.036       13.776      859.124
11/02/2013  12:40:00      -80.476     -161.887      -11.436       49.375       65.093       32.072     2437.885     4237.042     1028.602        2.026        0.385      180.787       22.213        0.015      340.023       13.756      859.093
11/02/2013  12:41:00      -33.360       -1.362       18.735       54.669       36.764       28.036     2988.706     1351.588      786.001        0.330        0.256       33.388       14.761        0.195      340.359       14.325      859.020
11/02/2013  12:42:00       37.942       38.748       45.203       39.284       27.169       24.577     1543.233      738.129      604.042        0.393        0.144       54.231        9.838        0.033      340.647       14.812      858.970
11/02/2013  12:43:00       25.336        4.506       39.143       30.620       46.232       26.779      937.565     2137.400      717.095        0.299        0.190       25.733       13.077        0.258      340.690       14.884      858.956
11/02/2013  12:44:00      110.229     -148.269      -23.617       43.163       48.264       24.878     1863.047     2329.424      618.893        1.975        0.241      184.754       17.982        0.009      340.599       14.729      858.957
11/02/2013  12:45:00      -62.691     -142.771      -20.120       56.804       55.163       28.756     3226.683     3042.972      826.899        1.591        0.355      155.928       17.863        0.013      340.402       14.397      858.963
11/02/2013  12:46:00      -35.029      -31.252        4.108       42.645       60.219       22.546     1818.624     3626.303      508.334        0.409        0.298       46.943       23.019        0.240      340.429       14.445      858.969
11/02/2013  12:47:00      -58.349        4.521        2.938       39.210       27.280       20.590     1537.450      744.214      423.950        0.307        0.135       58.523       15.835        0.073      340.398       14.391      858.977
11/02/2013  12:48:00     -100.719      -28.180       -0.359       43.486       40.489       21.378     1891.024     1639.375      457.006        0.746        0.199      104.587       21.429        0.042      340.317       14.255      858.994
11/02/2013  12:49:00     -116.548     -100.171       -8.457       74.710       57.854       31.477     5581.645     3347.141      990.817        1.680        0.496      153.680       27.592        0.032      340.280       14.192      858.987
11/02/2013  12:50:00     -127.381     -125.348       -4.479       50.871       45.767       28.667     2587.839     2094.606      821.806        1.873        0.275      178.712       26.453        0.022      340.214       14.078      858.983
11/02/2013  12:51:00      -71.614     -192.860       -2.920       24.789       37.068       19.009      614.493     1374.055      361.342        2.234        0.117      205.727       15.870        0.006      340.143       13.959      858.972
11/02/2013  12:52:00     -125.681     -162.580      -11.985       50.843       87.764       30.258     2584.995     7702.572      915.568        2.679        0.560      205.494       25.550        0.015      340.277       14.184      858.949
11/02/2013  12:53:00      -30.650      -58.201       -3.037       59.066       59.712       33.788     3488.734     3565.468     1141.611        0.626        0.410       65.778       30.746        0.218      340.410       14.412      858.904
11/02/2013  12:54:00       -1.001      -22.427       53.992       27.266       42.524       24.665      743.438     1808.287      608.379        0.329        0.158       22.449       18.149        0.654      340.735       14.961      858.850
11/02/2013  12:55:00      -13.966        7.078       43.428       15.923       21.733       26.117      253.534      472.310      682.096        0.177        0.070       15.657       17.140        1.198      340.740       14.970      858.784
11/02/2013  12:56:00        4.562       21.431       34.977       22.602       16.904       19.698      510.865      285.743      387.996        0.144        0.059       21.912       16.752        0.584      340.864       15.179      858.719
11/02/2013  12:57:00      -12.324       -3.544       -1.424       14.295       18.298       15.328      204.357      334.833      234.950        0.047        0.039       12.823       14.396        1.260      340.820       15.105      858.670
11/02/2013  12:58:00      -13.565      -23.362       -0.910       21.390       32.910       19.798      457.519     1083.094      391.958        0.133        0.097       27.015       17.446        0.417      340.724       14.942      858.661
11/02/2013  12:59:00       22.411      -42.267       -3.692       39.947       52.883       32.006     1595.746     2796.658     1024.373        0.386        0.271       47.842       33.169        0.481      340.768       15.017      858.652
11/02/2013  13:00:00       35.575       37.861       64.943       61.282       41.885       36.447     3755.481     1754.354     1328.352        0.688        0.342       51.952       38.825        0.558      340.903       15.246      858.619
11/02/2013  13:01:00       53.928       -6.381       39.032       53.175       63.962       53.811     2827.621     4091.109     2895.595        0.714        0.491       54.304       51.359        0.894      340.960       15.341      858.579
11/02/2013  13:02:00       20.656       28.085       49.708       35.725       43.675       24.927     1276.297     1907.466      621.363        0.375        0.190       34.863       14.642        0.176      341.030       15.460      858.541
11/02/2013  13:03:00       39.468       22.973       13.597       39.332       40.106       28.971     1546.967     1608.529      839.308        0.313        0.200       45.667       19.128        0.175      340.902       15.244      858.525
11/02/2013  13:04:00       55.723       34.385        9.917       36.763       27.667       24.728     1351.539      765.441      611.483        0.356        0.136       65.478        8.899        0.018      340.914       15.263      858.516
11/02/2013  13:05:00       18.682       34.884       21.525       36.714       27.447       19.208     1347.937      753.360      368.943        0.225        0.124       39.571       17.313        0.191      341.188       15.728      858.533
11/02/2013  13:06:00       -6.949       32.087       35.388       26.997       15.304       13.936      728.850      234.206      194.204        0.174        0.058       32.831       11.510        0.123      341.193       15.735      858.516
11/02/2013  13:07:00        6.465       -3.688       14.444       26.243       20.901       26.932      688.702      436.855      725.343        0.106        0.093        7.443       12.813        2.963      341.439       16.152      858.496
11/02/2013  13:08:00       15.697      -51.007       11.490       35.242       35.581       25.581     1241.977     1265.986      654.411        0.307        0.158       53.367       20.552        0.148      341.240       15.815      858.458
11/02/2013  13:09:00       31.260      -22.039       11.724       35.360       42.497       32.455     1250.306     1806.029     1053.357        0.285        0.205       38.248       30.938        0.654      341.333       15.973      858.433
11/02/2013  13:10:00      -10.056      -18.737      -10.661       39.205       34.120       17.366     1537.071     1164.142      301.566        0.178        0.150       21.265       18.809        0.782      341.209       15.762      858.418
11/02/2013  13:11:00      -30.247      -42.895      -12.318       35.622       37.936       26.276     1268.908     1439.178      690.432        0.315        0.170       52.487       17.631        0.113      341.228       15.796      858.427
11/02/2013  13:12:00        8.893      -74.982        1.858       50.031       60.370       34.866     2503.118     3644.568     1215.632        0.653        0.368       75.507       30.170        0.160      341.263       15.855      858.428
11/02/2013  13:13:00       21.261      -75.330      -13.894       47.376       65.776       31.612     2244.476     4326.426      999.349        0.694        0.379       78.273       29.580        0.143      341.360       16.019      858.424
11/02/2013  13:14:00      -40.951      -11.951        8.713       32.756       37.248       21.848     1072.975     1387.424      477.318        0.242        0.147       42.659       17.652        0.171      341.465       16.196      858.395
11/02/2013  13:15:00      -88.362      -38.142       -1.660       30.606       28.067       21.225      936.754      787.773      450.508        0.572        0.109       96.242       14.415        0.022      341.129       15.627      858.369
11/02/2013  13:16:00      -39.682        5.373        1.056       19.151       24.121       16.805      366.757      581.804      282.400        0.142        0.062       40.044       17.631        0.194      341.286       15.892      858.310
11/02/2013  13:17:00      -74.348        2.315       -7.617       41.704       27.913       15.931     1739.226      779.145      253.785        0.418        0.139       74.384       16.784        0.051      341.258       15.845      858.276
11/02/2013  13:18:00      -66.937      -16.308      -13.122       53.221       55.384       18.360     2832.501     3067.384      337.099        0.558        0.312       68.895        9.775        0.020      341.361       16.021      858.258
11/02/2013  13:19:00      -73.518      -25.812        3.675       43.134       33.227       25.237     1860.581     1104.015      636.899        0.484        0.180       77.917       22.136        0.081      341.588       16.404      858.239
11/02/2013  13:20:00      -37.042      -17.800        9.642       50.451       16.347       18.105     2545.308      267.235      327.796        0.246        0.157       41.097       15.130        0.136      341.528       16.303      858.204
11/02/2013  13:21:00      -18.460      -32.670       -0.274       29.791       31.182       25.506      887.522      972.297      650.537        0.196        0.126       37.525       25.963        0.479      341.517       16.284      858.159
11/02/2013  13:22:00        1.891       46.278        0.059       20.170       34.876       20.858      406.834     1216.345      435.058        0.210        0.103       46.317       18.233        0.155      341.598       16.423      858.152
11/02/2013  13:23:00      -11.393      -19.078        4.906       31.374       13.271       17.872      984.306      176.114      319.423        0.100        0.074       22.220       14.606        0.432      341.568       16.370      858.175
11/02/2013  13:24:00       11.912        5.126       -1.749       51.223       25.663       21.667     2623.819      658.564      469.448        0.196        0.188       12.968       31.311        5.830      341.460       16.188      858.175
11/02/2013  13:25:00       69.191       -0.385       22.831       47.762       57.168       40.312     2281.251     3268.201     1625.023        0.624        0.359       69.192       33.315        0.232      341.573       16.380      858.140
11/02/2013  13:26:00       37.293       17.776       63.505       57.791      105.600       50.700     3339.775    11151.441     2570.486        1.140        0.853       41.313       72.535        3.083      341.732       16.648      858.096
11/02/2013  13:27:00       86.688     -109.284        0.155       42.000       57.241       27.159     1764.013     3276.528      737.626        1.262        0.289      139.491       30.849        0.049      341.519       16.289      858.059
11/02/2013  13:28:00       43.358       -5.744       23.456       27.150       16.508       18.096      737.116      272.517      327.453        0.190        0.067       43.737       10.040        0.053      341.762       16.700      858.023
11/02/2013  13:29:00        0.815        4.371       11.249       19.278       29.787       22.094      371.645      887.288      488.149        0.095        0.087        4.446        7.878        3.140      342.003       17.110      858.004
11/02/2013  13:30:00       21.963       19.676       13.477       28.030       43.661       18.976      785.660     1906.326      360.072        0.205        0.153       29.488       18.235        0.382      341.927       16.979      857.992
11/02/2013  13:31:00       28.851       30.752       36.360       34.558       31.043       19.367     1194.239      963.679      375.073        0.282        0.127       42.167       17.876        0.180      342.072       17.227      857.948
11/02/2013  13:32:00       26.240       -5.473       -1.763       31.981       29.529       21.642     1022.784      871.947      468.359        0.154        0.118       26.804       23.820        0.790      341.942       17.006      857.918
11/02/2013  13:33:00       33.711       14.874       20.778       29.649       24.815       17.471      879.067      615.773      305.225        0.179        0.090       36.847        7.980        0.047      342.055       17.197      857.902
11/02/2013  13:34:00       52.420       48.933       36.518       32.698       28.635       38.893     1069.187      819.950     1512.636        0.494        0.170       71.710       28.120        0.154      341.801       16.765      857.916
11/02/2013  13:35:00      104.397      -64.244        9.655       73.489       51.390       39.624     5400.598     2640.914     1570.045        1.236        0.481      122.581       38.191        0.097      341.834       16.821      857.919
11/02/2013  13:36:00       83.828      -11.056       49.202       71.404       73.233       46.133     5098.539     5363.092     2128.220        1.108        0.629       84.554       46.783        0.306      341.815       16.789      857.924
11/02/2013  13:37:00       51.011      -65.404        7.435       45.040       76.438       48.644     2028.606     5842.785     2366.285        0.858        0.512       82.945       55.302        0.445      341.860       16.866      857.945
11/02/2013  13:38:00       60.586      -82.367        6.504       37.347       67.376       37.853     1394.777     4539.572     1432.843        0.893        0.368      102.250       42.120        0.170      341.706       16.606      857.959
11/02/2013  13:39:00       43.461       29.928       48.239       33.251       46.428       34.589     1105.659     2155.533     1196.415        0.478        0.223       52.769       34.224        0.421      341.849       16.847      857.936
11/02/2013  13:40:00       23.238      123.076      128.421       54.710       50.017       40.518     2993.187     2501.665     1641.725        1.966        0.357      125.251       33.798        0.073      341.869       16.880      857.890
11/02/2013  13:41:00       49.446       50.946       70.058       51.234       53.520       44.035     2624.888     2864.356     1939.082        0.869        0.371       70.996       38.115        0.288      341.901       16.934      857.868
11/02/2013  13:42:00      119.987       45.567       31.108       64.507       52.471       49.153     4161.111     2753.190     2416.003        1.338        0.467      128.348       37.709        0.086      341.932       16.988      857.851
11/02/2013  13:43:00       34.858      -19.928       33.922       63.525       92.781       40.483     4035.476     8608.249     1638.849        0.852        0.714       40.152       39.911        0.988      342.167       17.386      857.848
11/02/2013  13:44:00      136.756     -182.384      -24.028       82.332       55.956       45.093     6778.601     3131.115     2033.363        3.224        0.597      227.960       42.539        0.035      341.812       16.781      857.838
11/02/2013  13:45:00       96.415      -35.047       32.056       86.738      120.965       92.896     7523.505    14632.594     8629.594        2.116        1.539      102.587      101.276        0.975      342.001       17.103      857.798
11/02/2013  13:46:00      144.374      121.032      120.384      111.790       77.988       77.272    12497.006     6082.166     5970.893        3.726        1.228      188.395       70.928        0.142      341.848       16.843      857.778
11/02/2013  13:47:00       95.632       93.076      123.513       91.508       75.438       52.401     8373.713     5690.845     2745.827        2.493        0.841      133.449       56.365        0.178      341.891       16.917      857.758
11/02/2013  13:48:00      137.796      130.974      112.403       82.069       72.826       68.514     6735.346     5303.565     4694.130        3.275        0.837      190.110       57.110        0.090      341.794       16.750      857.739
11/02/2013  13:49:00      147.423       58.522       43.082       90.933       67.907       55.125     8268.800     4611.382     3038.735        2.146        0.796      158.614       37.132        0.055      341.902       16.936      857.755
11/02/2013  13:50:00      143.609       92.478       45.222       75.510       52.833       55.940     5701.778     2791.347     3129.259        2.142        0.581      170.809       47.539        0.077      341.914       16.957      857.754
11/02/2013  13:51:00      115.333       92.111       83.043       62.946       57.587       44.758     3962.231     3316.312     2003.275        1.898        0.464      147.601       36.677        0.062      341.890       16.917      857.751
11/02/2013  13:52:00       30.034       77.795       76.111       54.941       45.452       38.829     3018.503     2065.914     1507.671        0.967        0.330       83.391       35.806        0.184      342.155       17.366      857.737
11/02/2013  13:53:00       54.747       22.292       57.097       43.806       88.664       52.808     1918.954     7861.224     2788.642        0.966        0.628       59.112       56.575        0.916      342.237       17.507      857.725
11/02/2013  13:54:00      141.724       -3.860       37.524      102.843       69.060       59.683    10576.689     4769.286     3562.057        2.021        0.945      141.776       54.723        0.149      342.150       17.356      857.684
11/02/2013  13:55:00       83.707      122.775      111.424       76.297       65.814       66.159     5821.200     4331.476     4377.060        2.451        0.726      148.595       52.639        0.125      342.102       17.274      857.645
11/02/2013  13:56:00      135.231       58.860       58.355       94.782       65.654       46.825     8983.564     4310.385     2192.592        2.032        0.774      147.485       41.208        0.078      342.139       17.337      857.629
11/02/2013  13:57:00       44.929       20.431       34.946       50.179       39.131       34.260     2517.927     1531.268     1173.753        0.444        0.261       49.357       34.863        0.499      342.156       17.367      857.652
11/02/2013  13:58:00       20.292      -55.603        2.613       28.115       27.490       20.660      790.478      755.675      426.835        0.274        0.099       59.190       18.362        0.096      342.001       17.106      857.645
11/02/2013  13:59:00       -2.897       12.405       48.089       21.262       21.405       14.847      452.085      458.176      220.440        0.180        0.057       12.739       14.348        1.269      342.390       17.767      857.631
11/02/2013  14:00:00       60.418      -30.331        9.647       29.721       39.997       25.244      883.327     1599.779      637.241        0.389        0.156       67.604       28.183        0.174      341.954       17.026      857.642
11/02/2013  14:01:00      -34.236      -41.607        7.225       46.561       57.334       26.754     2167.897     3287.173      715.772        0.456        0.309       53.882       35.921        0.444      342.102       17.277      857.656
11/02/2013  14:02:00      -76.501      -48.275       -5.742       34.582       33.056       19.440     1195.919     1092.667      377.910        0.544        0.133       90.459       19.436        0.046      342.043       17.177      857.682
11/02/2013  14:03:00      -90.698       22.240        1.060       69.411       39.013       21.810     4817.876     1521.983      475.655        0.777        0.341       93.385       23.449        0.063      342.208       17.457      857.663
11/02/2013  14:04:00      -33.691       23.001       -2.636       24.966       23.999       12.295      623.278      575.961      151.169        0.151        0.068       40.794        9.140        0.050      342.234       17.500      857.629
11/02/2013  14:05:00      -16.145       -1.943        7.893       19.160       17.441       11.094      367.087      304.187      123.074        0.056        0.040       16.261        8.668        0.284      342.549       18.036      857.610
11/02/2013  14:06:00       -0.277       13.043       16.118       14.769       16.248       12.905      218.136      264.001      166.526        0.054        0.032       13.046       10.035        0.592      342.647       18.203      857.588
11/02/2013  14:07:00      -71.158      -24.773        0.848       60.618       40.436       24.952     3674.586     1635.074      622.604        0.580        0.297       75.347       18.927        0.063      342.511       17.971      857.611
11/02/2013  14:08:00      -71.155      -61.393       -0.911       73.188       44.278       31.181     5356.458     1960.580      972.250        0.856        0.414       93.979       28.542        0.092      342.324       17.654      857.616
11/02/2013  14:09:00     -294.859       -3.925      -11.557      317.558      205.962       77.087   100842.983    42420.444     5942.364       11.812        7.460      294.885      114.791        0.152      342.460       17.883      857.559
11/02/2013  14:10:00     -401.020     -158.292      -32.441      154.455      133.136       88.728    23856.482    17725.202     7872.657       11.818        2.473      431.130       79.847        0.034      342.574       18.076      857.519
11/02/2013  14:11:00     -455.902     -250.269       -4.510      213.864      186.334      105.299    45737.643    34720.197    11087.875       18.101        4.577      520.078      118.846        0.052      342.531       18.005      857.458
11/02/2013  14:12:00     -536.154     -145.202      -15.613      202.591      159.380       91.960    41043.266    25401.834     8456.587       19.183        3.745      555.468       91.698        0.027      342.454       17.872      857.442
11/02/2013  14:13:00     -421.688     -147.288      -28.296      208.685      138.295       94.424    43549.390    19125.537     8915.935       13.594        3.580      446.670      107.276        0.058      342.518       17.982      857.466
11/02/2013  14:14:00     -301.100      -64.664      -18.458      172.036      110.605       70.919    29596.383    12233.383     5029.465        7.101        2.343      307.966       70.791        0.053      342.582       18.088      857.405
11/02/2013  14:15:00     -267.414     -163.357       -9.183      168.564      171.160       85.000    28413.971    29295.597     7224.955        8.160        3.247      313.362       77.978        0.062      342.605       18.130      857.401
11/02/2013  14:16:00     -226.800     -150.425      -11.700      167.455      126.380       73.378    28041.229    15971.833     5384.334        6.179        2.470      272.150       70.370        0.067      342.550       18.036      857.412
11/02/2013  14:17:00     -156.579     -110.705       -5.977      153.896      112.693       59.227    23683.937    12699.663     3507.879        3.834        1.995      191.762       70.586        0.135      342.644       18.195      857.384
11/02/2013  14:18:00     -244.725      -24.984      -10.823      178.979      140.113       67.658    32033.318    19631.577     4577.560        5.843        2.812      245.997       82.293        0.112      342.709       18.307      857.347
11/02/2013  14:19:00     -382.538     -124.262       -8.314      133.426      187.963       72.032    17802.505    35330.047     5188.677       11.007        2.916      402.215       65.046        0.026      342.679       18.255      857.318
11/02/2013  14:20:00     -521.189     -151.636      -28.915      185.246      164.683       79.084    34315.919    27120.411     6254.304       18.157        3.385      542.800       75.451        0.019      342.585       18.094      857.330
11/02/2013  14:21:00     -448.687     -354.810      -33.278      273.278      189.066      126.710    74680.897    35746.109    16055.539       22.738        6.324      572.023      139.471        0.059      342.492       17.937      857.291
11/02/2013  14:22:00     -322.951      -81.642       -9.433      171.776      152.224       70.666    29507.075    23172.033     4993.614        8.435        2.884      333.110       64.119        0.037      342.596       18.115      857.278
11/02/2013  14:23:00     -486.038     -271.048      -14.442      211.462      203.414      110.061    44716.007    41377.378    12113.473       20.404        4.910      556.507      115.766        0.043      342.580       18.085      857.287
11/02/2013  14:24:00     -296.935      -90.385        7.280      169.778      117.827       77.779    28824.435    13883.261     6049.522        7.257        2.438      310.387       86.375        0.077      342.683       18.263      857.326
11/02/2013  14:25:00     -406.256     -184.567      -16.645      186.036      126.549       75.968    34609.401    16014.694     5771.121       12.788        2.820      446.216       79.124        0.031      342.648       18.202      857.344
11/02/2013  14:26:00     -353.558     -135.443       -4.748      170.229      130.232       79.920    28977.919    16960.370     6387.129        9.784        2.616      378.614       85.578        0.051      342.671       18.241      857.354
11/02/2013  14:27:00     -359.098     -180.248       10.529      223.108      223.119       97.452    49777.133    49782.208     9496.896       13.529        5.453      401.797      103.489        0.066      342.654       18.212      857.376
11/02/2013  14:28:00     -525.691     -185.847      -14.844      274.379      168.592      110.527    75283.993    28423.273    12216.139       21.350        5.796      557.575      128.232        0.053      342.505       17.958      857.390
11/02/2013  14:29:00     -362.879     -229.791       -7.723      208.018      165.051       93.622    43271.645    27241.765     8765.083       13.190        3.964      429.517      112.170        0.068      342.492       17.937      857.372
11/02/2013  14:30:00     -427.386     -239.068       -5.093      233.027      198.883      103.759    54301.771    39554.574    10765.950       17.221        5.231      489.706       97.587        0.040      342.471       17.902      857.417
11/02/2013  14:31:00     -257.357     -124.482      -14.538      132.798      113.522       64.671    17635.239    12887.222     4182.310        5.832        1.735      285.881       72.536        0.064      342.553       18.040      857.421
11/02/2013  14:32:00     -395.118     -302.164      -10.239      243.937      195.463      100.622    59505.435    38205.779    10124.849       17.766        5.392      497.414      120.467        0.059      342.477       17.910      857.412
11/02/2013  14:33:00     -523.980     -185.373      -43.061      221.077      220.705       86.731    48875.193    48710.484     7522.205       20.792        5.255      555.804       88.000        0.025      342.321       17.645      857.375
11/02/2013  14:34:00     -321.966     -125.722       14.897      174.218      177.919       90.651    30351.761    31655.143     8217.636        9.495        3.511      345.641       86.600        0.063      342.470       17.899      857.363
11/02/2013  14:35:00     -292.576     -233.314      -10.193      215.249      183.431      106.663    46331.981    33647.041    11376.940       11.573        4.568      374.214      111.687        0.089      342.539       18.017      857.369
11/02/2013  14:36:00     -407.536     -331.325       -9.400      220.919      209.607      114.567    48805.135    43934.947    13125.618       19.089        5.293      525.225      111.645        0.045      342.491       17.935      857.384
11/02/2013  14:37:00     -438.231     -180.377        4.252      262.038      184.268      109.206    68663.829    33954.686    11925.870       16.955        5.727      473.901      122.739        0.067      342.530       18.000      857.364
11/02/2013  14:38:00     -378.847     -112.719       14.926      206.241      143.034       76.816    42535.481    20458.860     5900.740       11.266        3.445      395.260       97.598        0.061      342.586       18.097      857.386
11/02/2013  14:39:00     -282.113     -217.552        5.193      232.090      164.666       91.395    53865.642    27114.950     8352.969       10.812        4.467      356.254      105.174        0.087      342.499       17.949      857.389
11/02/2013  14:40:00     -309.059     -284.354       -5.932      196.078      158.788       87.134    38446.560    25213.639     7592.328       12.382        3.563      419.970       98.731        0.055      342.496       17.944      857.370
11/02/2013  14:41:00     -437.614     -248.915      -21.311      211.027      175.253       97.035    44532.490    30713.735     9415.733       16.928        4.233      503.453      106.568        0.045      342.457       17.877      857.338
11/02/2013  14:42:00     -369.886     -234.967       -8.104      183.946      149.652       90.586    33835.966    22395.602     8205.805       12.825        3.222      438.207       94.607        0.047      342.516       17.976      857.296
11/02/2013  14:43:00     -296.165     -118.145        8.183      171.384      169.762       92.173    29372.494    28819.160     8495.827        8.420        3.334      318.860       96.455        0.092      342.649       18.204      857.317
11/02/2013  14:44:00     -385.297     -285.301       14.030      236.621      205.513      106.151    55989.536    42235.710    11267.984       16.975        5.475      479.427      113.458        0.056      342.533       18.006      857.340
11/02/2013  14:45:00     -408.931     -168.101      -14.026      267.606      182.260      116.954    71613.136    33218.639    13678.182       15.707        5.925      442.134      138.636        0.098      342.611       18.139      857.303
11/02/2013  14:46:00     -478.782     -259.138      -24.688      255.202      226.817      112.088    65127.977    51446.127    12563.727       21.304        6.457      544.412      117.664        0.047      342.489       17.931      857.298
11/02/2013  14:47:00     -396.619     -137.706       -0.981      208.610      147.803       84.042    43517.988    21845.818     7062.996       12.434        3.621      419.845       94.766        0.051      342.667       18.234      857.316
11/02/2013  14:48:00     -310.887     -131.543        8.358      255.668      165.191       90.324    65365.871    27288.057     8158.450       10.740        5.041      337.571      111.618        0.109      342.649       18.203      857.332
11/02/2013  14:49:00     -394.900     -102.147       -6.519      234.377      170.707       86.115    54932.555    29140.875     7415.831       12.894        4.574      407.897      100.748        0.061      342.525       17.994      857.326
11/02/2013  14:50:00     -383.798     -201.860        8.276      264.260      157.477       85.286    69833.579    24799.140     7273.656       14.499        5.095      433.646       94.871        0.048      342.549       18.034      857.331
11/02/2013  14:51:00     -266.042     -252.300       18.917      226.951      162.863      117.770    51506.722    26524.502    13869.715       11.333        4.595      366.652      133.913        0.133      342.496       17.944      857.329
11/02/2013  14:52:00     -406.457     -157.640      -14.912      261.571      183.543       80.794    68419.298    33687.960     6527.735       14.944        5.432      435.956       95.468        0.048      342.549       18.033      857.332
11/02/2013  14:53:00     -368.154     -104.322       -9.032      162.654      165.532       76.165    26456.222    27400.897     5801.080       10.307        2.983      382.650       83.928        0.048      342.589       18.100      857.347
11/02/2013  14:54:00     -420.017     -245.333      -22.799      173.922      158.401       73.437    30248.723    25090.851     5393.049       14.892        3.037      486.418       70.276        0.021      342.472       17.902      857.354
11/02/2013  14:55:00     -435.979     -336.028       -8.170      265.081      217.896      107.653    70267.991    47478.677    11589.204       21.618        6.467      550.447      116.475        0.045      342.450       17.864      857.342
11/02/2013  14:56:00     -586.828     -437.502      -19.875      265.483      230.030      126.245    70481.339    52913.630    15937.804       33.773        6.967      731.967      127.512        0.030      342.416       17.806      857.309
11/02/2013  14:57:00     -271.063     -220.096        0.927      212.455      174.495       96.484    45137.316    30448.384     9309.188       10.339        4.245      349.166      107.466        0.095      342.624       18.162      857.330
11/02/2013  14:58:00     -257.559     -203.365        2.243      171.011      180.657       82.063    29244.679    32637.123     6734.282        8.815        3.431      328.167       86.932        0.070      342.656       18.216      857.388
11/02/2013  14:59:00     -355.616     -192.711       -5.733      222.324      171.444       89.478    49428.120    29393.075     8006.347       12.522        4.341      404.475      102.992        0.065      342.640       18.189      857.364
11/02/2013  15:00:00     -454.385     -245.429      -25.222      201.219      208.259      106.121    40488.935    43371.846    11261.571       18.121        4.756      516.431      113.450        0.048      342.534       18.007      857.323
11/02/2013  15:01:00     -344.959     -263.401        4.361      240.587      187.494      119.245    57882.317    35153.858    14219.360       14.781        5.363      434.024      110.284        0.065      342.482       17.919      857.315
11/02/2013  15:02:00     -385.523     -246.943       -1.140      271.743      160.007      107.572    73844.288    25602.362    11571.700       16.030        5.551      457.831      119.405        0.068      342.479       17.914      857.310
11/02/2013  15:03:00     -419.890     -317.822       -0.235      335.601      267.279      132.547   112627.836    71437.941    17568.749       23.944       10.082      526.610      146.071        0.077      342.410       17.797      857.324
11/02/2013  15:04:00     -418.374     -354.116       12.402      273.801      231.921      138.231    74967.145    53787.164    19107.929       22.420        7.393      548.120      141.792        0.067      342.415       17.805      857.262
11/02/2013  15:05:00     -492.460     -375.380       -8.531      297.779      233.942      119.190    88672.573    54728.835    14206.251       27.053        7.880      619.215      135.769        0.048      342.418       17.811      857.312
11/02/2013  15:06:00     -538.852     -260.139      -20.424      173.997      201.805      106.996    30274.811    40725.251    11448.077       22.044        4.122      598.360      108.145        0.033      342.366       17.721      857.325
11/02/2013  15:07:00     -367.395     -152.933      -17.945      170.924      150.150       84.788    29214.870    22545.060     7189.005       10.881        2.947      397.955       86.139        0.047      342.399       17.779      857.343
11/02/2013  15:08:00     -504.184     -204.062      -15.686      200.757      170.929       90.440    40303.452    29216.878     8179.373       18.688        3.885      543.914       96.856        0.032      342.349       17.691      857.348
11/02/2013  15:09:00     -499.743     -300.391      -15.792      245.975      202.628      106.435    60503.777    41058.023    11328.416       22.654        5.645      583.077      117.077        0.040      342.279       17.574      857.341
11/02/2013  15:10:00     -461.306     -155.271      -12.736      188.574      185.782       88.737    35560.191    34514.913     7874.237       15.750        3.897      486.736       96.213        0.039      342.352       17.698      857.350
11/02/2013  15:11:00     -249.107     -214.999        8.732      185.619      116.268       82.649    34454.593    13518.193     6830.823        8.157        2.740      329.057       86.947        0.070      342.407       17.792      857.374
11/02/2013  15:12:00     -343.223     -237.912        1.200      220.587      166.001       96.796    48658.536    27556.407     9369.515       12.998        4.279      417.617       88.500        0.045      342.321       17.645      857.341
11/02/2013  15:13:00     -256.406      -85.928       10.860      230.140      161.272       73.561    52964.354    26008.615     5411.179        7.880        4.219      270.421       77.798        0.083      342.400       17.780      857.329
11/02/2013  15:14:00     -271.373     -137.997       -1.173      128.449      146.123       63.653    16499.084    21351.986     4051.691        6.729        2.095      304.444       61.798        0.041      342.482       17.921      857.342
11/02/2013  15:15:00     -340.861     -151.737       -7.765      162.633      103.052       61.471    26449.521    10619.629     3778.669        9.005        2.042      373.109       71.035        0.036      342.395       17.772      857.328
11/02/2013  15:16:00     -226.119     -252.447        6.707      192.990      159.205       94.494    37245.024    25346.253     8929.141        9.320        3.576      338.909      104.333        0.095      342.438       17.844      857.316
11/02/2013  15:17:00     -273.586     -335.991       -0.008      210.764      183.980       82.164    44421.490    33848.578     6750.901       13.637        4.251      433.288       78.525        0.033      342.358       17.708      857.299
11/02/2013  15:18:00     -365.980     -227.637       -5.616      254.216      203.268       88.050    64625.636    41317.983     7752.764       14.972        5.685      430.999      108.442        0.063      342.323       17.649      857.284
11/02/2013  15:19:00     -502.224     -306.636       -6.913      221.075      210.796      111.461    48873.986    44435.148    12423.509       22.600        5.287      588.434      113.039        0.037      342.253       17.528      857.254
11/02/2013  15:20:00     -265.872     -139.912        4.507      213.124      136.916       77.229    45421.674    18746.047     5964.344        8.020        3.507      300.439       92.159        0.094      342.398       17.779      857.285
11/02/2013  15:21:00     -338.634     -203.810        4.558      215.162      146.731       82.478    46294.807    21530.068     6802.676       11.542        3.731      395.236       99.557        0.063      342.329       17.660      857.261
11/02/2013  15:22:00     -366.020     -146.410        4.401      199.065      182.156       81.327    39626.990    33180.638     6614.137       11.741        3.971      394.216       86.825        0.049      342.293       17.598      857.238
11/02/2013  15:23:00     -365.329     -295.005       -7.221      233.708      197.542       96.651    54619.608    39023.025     9341.461       16.175        5.149      469.567      100.906        0.046      342.243       17.512      857.221
11/02/2013  15:24:00     -403.541     -177.504        3.741      246.841      200.441       93.680    60930.272    40176.550     8775.859       15.211        5.494      440.855       99.941        0.051      342.254       17.530      857.209
11/02/2013  15:25:00     -364.863      -93.539      -21.277      160.866      109.635       70.842    25877.730    12019.804     5018.523        9.261        2.146      376.663       70.828        0.035      342.287       17.588      857.230
11/02/2013  15:26:00     -240.286     -135.435      -10.711      106.778      100.109       52.256    11401.568    10021.871     2730.674        5.017        1.208      275.826       55.940        0.041      342.358       17.707      857.252
11/02/2013  15:27:00     -335.666     -207.723        0.395      205.955      151.580       76.533    42417.274    22976.621     5857.339       11.352        3.563      394.741       90.105        0.052      342.288       17.590      857.207
11/02/2013  15:28:00     -250.608     -145.778        0.708      201.003      116.696       71.411    40402.378    13617.949     5099.585        7.158        2.956      289.923       89.517        0.095      342.314       17.636      857.195
11/02/2013  15:29:00     -227.640     -117.442       -7.540      199.185      160.951       70.895    39674.771    25905.213     5026.039        6.813        3.530      256.150       86.752        0.115      342.317       17.639      857.188
11/02/2013  15:30:00     -279.126      -61.876       -6.442      150.241      111.174       59.375    22572.309    12359.569     3525.375        6.011        1.923      285.902       60.495        0.045      342.330       17.662      857.180
11/02/2013  15:31:00     -446.600     -169.631        3.453      139.806      137.618       78.576    19545.667    18938.777     6174.156       13.644        2.233      477.730       75.617        0.025      342.346       17.689      857.163
11/02/2013  15:32:00     -212.419     -130.680        1.009      171.945      195.111       74.496    29564.961    38068.345     5549.654        6.768        3.659      249.397       78.501        0.099      342.339       17.677      857.149
11/02/2013  15:33:00     -296.978     -118.395       -9.218      221.972      133.330       77.768    49271.452    17776.924     6047.864        8.769        3.655      319.708      104.826        0.108      342.322       17.647      857.139
11/02/2013  15:34:00     -400.229     -152.640       -6.861      184.336      179.959       92.603    33979.580    32385.149     8575.238       12.922        3.747      428.348       96.776        0.051      342.274       17.566      857.105
11/02/2013  15:35:00     -464.272     -120.694      -11.953      178.026      130.026       73.142    31693.412    16906.765     5349.732       14.210        2.697      479.703       71.752        0.022      342.271       17.560      857.107
11/02/2013  15:36:00     -429.567     -267.824      -21.362      226.237      143.197       92.236    51182.989    20505.495     8507.490       16.844        4.010      506.219      100.908        0.040      342.235       17.499      857.095
11/02/2013  15:37:00     -464.725     -188.716      -12.724      239.687      226.332       96.186    57449.763    51226.225     9251.780       18.482        5.896      501.581       96.048        0.037      342.150       17.356      857.083
11/02/2013  15:38:00     -385.569     -300.453      -24.549      214.745      183.941      106.406    46115.548    33834.316    11322.295       16.539        4.564      488.811      118.890        0.059      342.149       17.353      857.093
11/02/2013  15:39:00     -388.165     -262.170       -6.585      222.147      174.855      103.262    49349.329    30574.383    10662.942       15.500        4.529      468.408      119.918        0.066      342.171       17.391      857.111
11/02/2013  15:40:00     -235.385     -172.664       -3.857      156.217      115.256       79.481    24403.762    13283.954     6317.279        6.461        2.200      291.923       86.304        0.087      342.252       17.529      857.109
11/02/2013  15:41:00     -222.592     -218.732        2.014      170.700      138.503       86.935    29138.358    19183.191     7557.761        7.663        2.794      312.075       98.796        0.100      342.248       17.521      857.123
11/02/2013  15:42:00     -159.829     -158.159       13.371      167.456       94.852       73.778    28041.376     8996.907     5443.132        4.660        2.124      224.855       91.683        0.166      342.299       17.609      857.121
11/02/2013  15:43:00     -218.853     -128.703       -9.609      141.246      108.082       76.963    19950.475    11681.638     5923.349        5.105        1.878      253.892       60.216        0.056      342.268       17.556      857.152
11/02/2013  15:44:00     -321.074     -188.176        1.883      189.574      136.879       76.256    35938.139    18735.928     5814.929        9.949        3.024      372.154       79.905        0.046      342.212       17.460      857.106
11/02/2013  15:45:00     -347.119      -68.007        5.459      179.302      144.520       89.906    32149.350    20886.158     8083.001        9.312        3.056      353.718       87.543        0.061      342.180       17.406      857.103
11/02/2013  15:46:00     -236.791      -30.936        0.699      250.507      138.350       89.188    62753.805    19140.727     7954.480        7.342        4.492      238.803       99.628        0.174      342.213       17.463      857.076
11/02/2013  15:47:00     -261.241      -72.220        8.425      164.922      115.193       78.288    27199.231    13269.379     6128.987        6.006        2.330      271.040       77.763        0.082      342.166       17.383      857.104
11/02/2013  15:48:00     -409.837     -232.771      -11.827      231.853      183.174      103.343    53755.748    33552.623    10679.726       16.012        4.899      471.326      120.571        0.065      342.007       17.112      857.090
11/02/2013  15:49:00     -175.472     -108.263       33.933      240.556      185.884      109.222    57867.378    34552.847    11929.480        7.399        5.217      206.183      143.858        0.487      342.134       17.328      857.088
11/02/2013  15:50:00     -441.929      -62.473      -26.873      235.769      169.210       88.881    55586.827    28632.138     7899.758       14.601        4.606      446.322      113.563        0.065      342.094       17.261      857.126
11/02/2013  15:51:00     -233.959     -163.166        1.053      163.278      161.262       90.861    26659.840    26005.443     8255.775        7.113        3.046      285.237      101.533        0.127      342.059       17.201      857.135
11/02/2013  15:52:00     -398.538     -148.401        3.602      162.670      154.470       79.758    26461.685    23860.892     6361.418       11.877        2.834      425.271       81.434        0.037      342.055       17.192      857.161
11/02/2013  15:53:00     -442.504     -244.603      -11.257      179.833      128.543       77.683    32340.014    16523.305     6034.654       15.532        2.745      505.609       73.037        0.021      341.996       17.094      857.170
11/02/2013  15:54:00     -302.328     -201.617      -10.308      191.704      156.490       73.120    36750.549    24489.087     5346.569        9.936        3.329      363.389       85.196        0.055      341.984       17.073      857.157
11/02/2013  15:55:00     -359.505      -74.281       -7.739      142.327      163.007       71.114    20256.887    26571.338     5057.226        9.334        2.594      367.099       73.048        0.040      342.007       17.111      857.143
11/02/2013  15:56:00     -225.885      -36.116       -2.797      108.678      121.179       54.798    11810.812    14684.353     3002.806        4.091        1.475      228.754       45.949        0.040      342.066       17.211      857.190
11/02/2013  15:57:00     -168.180      -50.225       10.763      159.836      100.325       50.159    25547.671    10065.134     2515.890        3.452        1.906      175.519       60.893        0.120      342.061       17.206      857.172
11/02/2013  15:58:00     -396.910      -43.758      -13.165      156.578      180.023       75.507    24516.667    32408.119     5701.250       11.112        3.131      399.314       75.454        0.036      341.946       17.009      857.174
11/02/2013  15:59:00     -225.363      -57.812        2.133      127.502      104.228       61.610    16256.714    10863.441     3795.748        4.252        1.546      232.661       66.012        0.081      341.991       17.086      857.185
11/02/2013  16:00:00     -216.120     -179.502        4.494      163.678      155.146       74.409    26790.565    24070.144     5536.659        6.766        2.820      280.942       81.994        0.085      341.949       17.015      857.213
11/02/2013  16:01:00     -197.183     -169.164       -4.615      157.744      152.025       71.793    24883.162    23111.646     5154.186        6.033        2.657      259.803       75.748        0.085      341.978       17.064      857.210
11/02/2013  16:02:00     -240.673      -47.423        2.072      175.946      105.149       69.735    30957.131    11056.391     4862.911        5.352        2.344      245.300       91.689        0.140      342.013       17.122      857.235
11/02/2013  16:03:00      -48.155      -81.598       13.183       96.367       68.749       40.134     9286.580     4726.488     1610.718        1.238        0.781       94.748       38.440        0.165      342.063       17.209      857.234
11/02/2013  16:04:00     -115.878      -59.175        8.943       99.427      117.612       55.203     9885.776    13832.528     3047.367        2.188        1.338      130.113       58.856        0.205      342.036       17.163      857.204
11/02/2013  16:05:00     -259.873        5.810       -8.854      154.858      124.361       76.231    23981.002    15465.668     5811.148        5.644        2.263      259.938       61.952        0.057      341.953       17.020      857.193
11/02/2013  16:06:00     -315.284     -115.508       -8.229      174.300      103.220       65.523    30380.607    10654.310     4293.251        7.906        2.266      335.777       71.806        0.046      341.889       16.913      857.204
11/02/2013  16:07:00     -107.056      -72.292       -5.420      110.318       52.530       40.361    12170.027     2759.395     1628.977        1.663        0.828      129.178       56.184        0.189      341.954       17.023      857.198
11/02/2013  16:08:00     -144.157     -101.646      -15.349       95.593       44.708       39.889     9138.108     1998.811     1591.150        2.204        0.636      176.390       40.315        0.052      342.005       17.111      857.191
11/02/2013  16:09:00      -60.020       15.379       23.470      112.686       65.405       44.632    12698.157     4277.829     1991.983        1.168        0.948       61.959       57.537        0.862      342.118       17.302      857.184
11/02/2013  16:10:00     -345.745      -97.442       -3.054      214.653      140.554       81.265    46075.826    19755.323     6603.929       10.073        3.622      359.214       79.274        0.049      342.015       17.126      857.166
11/02/2013  16:11:00     -180.977     -241.739        8.471      196.088      168.573       78.563    38450.423    28416.948     6172.219        8.214        3.652      301.977       88.594        0.086      341.895       16.922      857.171
11/02/2013  16:12:00     -365.700     -194.172       -2.472      215.808      170.466       92.252    46573.301    29058.775     8510.368       12.778        4.207      414.052      109.515        0.070      341.822       16.798      857.118
11/02/2013  16:13:00     -192.072     -116.725       19.481      166.085      133.740       68.968    27584.137    17886.286     4756.600        5.055        2.511      224.758       79.417        0.125      341.876       16.891      857.139
11/02/2013  16:14:00     -178.101      -65.874        1.863      137.627      117.672       59.394    18941.185    13846.626     3527.600        3.618        1.816      189.893       66.763        0.124      341.851       16.848      857.139
11/02/2013  16:15:00     -175.333      -78.803        8.373      108.959       80.708       44.221    11871.975     6513.736     1955.462        2.868        1.017      192.228       41.076        0.046      341.865       16.873      857.132
11/02/2013  16:16:00     -222.332     -159.565      -13.423      121.163      120.761       58.035    14680.533    14583.205     3368.035        5.385        1.632      273.665       65.911        0.058      341.845       16.836      857.133
11/02/2013  16:17:00     -108.948      -89.550       -4.187      104.617       84.262       49.498    10944.751     7100.109     2450.072        2.020        1.025      141.028       47.394        0.113      341.870       16.881      857.152
11/02/2013  16:18:00     -423.402     -196.872      -27.488      156.054      155.990       76.352    24352.703    24332.832     5829.564       13.664        2.726      466.934       69.561        0.022      341.800       16.759      857.126
11/02/2013  16:19:00     -140.758      -81.265       21.659      140.252       99.822       60.236    19670.512     9964.351     3628.331        3.007        1.663      162.532       67.463        0.172      341.832       16.816      857.137
11/02/2013  16:20:00     -192.121     -182.361       -0.455      125.266      109.849       68.290    15691.471    12066.745     4663.466        5.129        1.621      264.889       64.377        0.059      341.772       16.711      857.153
11/02/2013  16:21:00     -159.298     -113.616       -7.843       83.329       75.414       44.676     6943.794     5687.263     1995.955        2.648        0.731      195.664       43.818        0.050      341.760       16.693      857.153
11/02/2013  16:22:00      -75.772     -116.566       -0.156      104.411       60.507       38.334    10901.645     3661.109     1469.490        1.768        0.802      139.029       39.180        0.079      341.816       16.790      857.142
11/02/2013  16:23:00     -339.093     -213.816      -23.692      237.561      104.777       70.609    56435.297    10978.284     4985.631       11.682        3.620      400.876       66.954        0.028      341.762       16.695      857.074
11/02/2013  16:24:00     -235.598     -172.333       -6.738      130.794      134.151       72.868    17107.018    17996.487     5309.791        6.283        2.021      291.900       64.569        0.049      341.782       16.731      857.100
11/02/2013  16:25:00     -298.252      -82.491      -10.424      155.172      143.046       74.512    24078.304    20462.265     5551.972        7.297        2.505      309.450       67.202        0.047      341.759       16.690      857.128
11/02/2013  16:26:00     -237.508      -91.098       -0.274      188.346      133.881       70.984    35474.180    17924.045     5038.674        6.156        2.922      254.379       69.532        0.075      341.789       16.741      857.126
11/02/2013  16:27:00     -172.625       -3.867        8.212      106.998       75.771       53.719    11448.637     5741.241     2885.712        2.498        1.004      172.668       50.777        0.086      341.800       16.761      857.150
11/02/2013  16:28:00     -186.897      -95.902       -3.909      195.416      141.256       82.772    38187.535    19953.202     6851.153        5.456        3.250      210.066      106.740        0.258      341.780       16.728      857.124
11/02/2013  16:29:00     -483.415     -171.810      -11.788      234.163      159.420       88.037    54832.452    25414.593     7750.497       17.566        4.400      513.038      102.186        0.040      341.683       16.564      857.087
11/02/2013  16:30:00     -422.846      -72.177       -1.444      265.231      171.848      103.881    70347.661    29531.641    10791.175       14.732        5.534      428.961      131.748        0.094      341.700       16.591      857.055
11/02/2013  16:31:00     -173.716      -10.621        5.966      118.988      101.792       64.649    14158.231    10361.680     4179.512        2.951        1.435      174.040       57.470        0.109      341.778       16.726      857.086
11/02/2013  16:32:00     -236.587      -15.219       -3.401      125.589      149.139       75.773    15772.500    22242.439     5741.601        4.998        2.188      237.076       69.259        0.085      341.724       16.632      857.075
11/02/2013  16:33:00     -260.785      -29.195       -7.736      161.356      169.923       68.556    26035.702    28873.834     4699.880        6.426        2.980      262.414       60.097        0.052      341.703       16.599      857.095
11/02/2013  16:34:00     -467.849     -331.515      -19.038      305.712      204.343      117.440    93459.528    41756.073    13792.267       23.905        7.450      573.397      146.658        0.065      341.624       16.463      857.064
11/02/2013  16:35:00     -443.893     -239.507      -29.711      207.791      158.947       82.622    43177.031    25264.217     6826.418       16.526        3.763      504.385       84.466        0.028      341.632       16.477      857.061
11/02/2013  16:36:00     -263.942      -84.929      -16.090       96.230      107.117       48.201     9260.137    11474.098     2323.351        5.009        1.153      277.269       38.352        0.019      341.643       16.495      857.089
11/02/2013  16:37:00     -240.630      -44.556      -10.609      151.742       91.255       60.183    23025.643     8327.447     3622.032        4.748        1.749      244.720       74.321        0.092      341.670       16.543      857.101
11/02/2013  16:38:00     -517.265     -295.522      -17.316      308.537      183.234      102.059    95195.186    33574.622    10416.019       24.717        6.959      595.732      131.838        0.049      341.577       16.383      857.106
11/02/2013  16:39:00     -354.849     -172.364       -1.856      238.665      148.795      102.826    56960.882    22139.862    10573.228       12.264        4.484      394.496      119.942        0.092      341.549       16.336      857.053
11/02/2013  16:40:00     -316.781     -140.011       -3.448      185.827      158.770       77.605    34531.693    25208.045     6022.610        9.285        3.288      346.343       86.893        0.063      341.551       16.339      857.073
11/02/2013  16:41:00     -453.425     -126.499      -46.164      187.047      119.089       72.363    34986.637    14182.181     5236.458       13.906        2.720      470.740       74.818        0.025      341.541       16.322      857.096
11/02/2013  16:42:00     -243.318      -18.786       -2.913      178.386      160.391       71.739    31821.400    25725.263     5146.470        6.112        3.135      244.043       84.866        0.121      341.556       16.347      857.082
11/02/2013  16:43:00     -178.695      -25.668        6.663      138.089      101.998       59.543    19068.662    10403.501     3545.391        3.282        1.651      180.529       64.578        0.128      341.554       16.345      857.100
11/02/2013  16:44:00     -352.545     -245.911      -17.284      153.126      142.174       72.011    23447.533    20213.551     5185.602       11.694        2.442      429.837       54.096        0.016      341.510       16.266      857.083
11/02/2013  16:45:00     -349.739     -112.805      -30.448      135.850      115.604       57.772    18455.088    13364.362     3337.629        8.556        1.758      367.481       44.845        0.015      341.512       16.273      857.096
11/02/2013  16:46:00     -212.137      -95.899        8.423      143.427      177.082       99.135    20571.350    31357.908     9827.720        5.800        3.088      232.806       79.165        0.116      341.503       16.257      857.059
11/02/2013  16:47:00     -310.673       -6.934      -12.636      188.946      144.056       71.803    35700.497    20752.237     5155.729        7.916        3.080      310.750       61.921        0.040      341.529       16.302      857.070
11/02/2013  16:48:00     -370.669      -21.201      -26.218      151.067      112.588       88.207    22821.106    12676.093     7780.469        9.090        2.164      371.275       97.747        0.069      341.541       16.322      857.095
11/02/2013  16:49:00     -430.573     -137.663      -50.463      162.088      120.032       75.300    26272.500    14407.750     5670.163       12.661        2.318      452.044       82.931        0.034      341.522       16.288      857.068
11/02/2013  16:50:00     -192.594      -19.119        0.766      109.109       78.913       48.189    11904.799     6227.196     2322.179        2.895        1.023      193.541       51.627        0.071      341.598       16.419      857.075
11/02/2013  16:51:00     -379.496     -181.379      -22.308      165.389      179.022       78.762    27353.652    32048.947     6203.431       12.150        3.280      420.613       76.300        0.033      341.551       16.340      857.057
11/02/2013  16:52:00     -314.659      -81.671      -20.459       78.896      119.915       52.549     6224.547    14379.592     2761.432        6.473        1.168      325.086       36.719        0.013      341.581       16.389      857.062
11/02/2013  16:53:00     -413.073     -135.234      -35.584      202.647      134.510       94.485    41065.709    18092.889     8927.496       12.912        3.404      434.646       86.847        0.040      341.534       16.311      857.020
11/02/2013  16:54:00     -327.224     -151.257      -12.186      190.053      140.327       81.802    36120.077    19691.656     6691.488        9.629        3.125      360.491       87.512        0.059      341.552       16.341      856.958
11/02/2013  16:55:00     -230.724      -94.711      -13.334      209.615      141.230       62.968    43938.290    19946.028     3965.024        6.510        3.392      249.407       54.254        0.047      341.580       16.388      856.972
11/02/2013  16:56:00     -433.635     -180.897      -17.649      246.756      165.362       89.163    60888.760    27344.669     7949.985       15.861        4.809      469.855       92.339        0.039      341.534       16.311      856.949
11/02/2013  16:57:00     -269.517     -137.602       -4.458      207.534      157.269       89.459    43070.498    24733.483     8002.842        8.369        3.790      302.611       97.721        0.104      341.532       16.306      856.940
11/02/2013  16:58:00     -362.057     -212.337       -8.209      252.622      150.404       87.868    63817.715    22621.485     7720.726       13.518        4.708      419.729      110.470        0.069      341.495       16.244      856.919
11/02/2013  16:59:00     -327.742     -227.602      -15.504      178.261      122.911       78.271    31776.984    15107.054     6126.312       10.623        2.651      399.021       87.938        0.049      341.502       16.254      856.911
11/02/2013  17:00:00     -385.531      -88.245      -24.511      154.257      141.808       74.688    23795.214    20109.579     5578.251       10.324        2.474      395.502       69.873        0.031      341.528       16.299      856.885
11/02/2013  17:01:00     -242.420     -124.920       -5.285      228.432      143.457       76.347    52181.253    20579.841     5828.935        7.648        3.930      272.713       67.827        0.062      341.521       16.287      856.873
11/02/2013  17:02:00     -447.051     -239.700      -21.381      219.211      180.376       95.220    48053.263    32535.345     9066.864       17.370        4.483      507.258      120.182        0.056      341.463       16.189      856.831
11/02/2013  17:03:00     -425.179     -122.011      -19.550      182.098      141.271       79.407    33159.749    19957.525     6305.524       12.772        2.971      442.339       90.743        0.042      341.454       16.173      856.810
11/02/2013  17:04:00     -312.103      -73.127       -5.005      143.768      135.925       71.691    20669.157    18475.625     5139.608        7.353        2.214      320.555       70.416        0.048      341.453       16.172      856.822
11/02/2013  17:05:00     -100.976      -94.101       28.210      148.985       98.977       83.972    22196.655     9796.394     7051.304        2.944        1.952      138.026       96.017        0.484      341.505       16.261      856.769
11/02/2013  17:06:00     -535.973     -294.272      -19.332      248.469      196.175      106.172    61736.696    38484.817    11272.510       24.285        5.575      611.444      109.494        0.032      341.383       16.053      856.766
11/02/2013  17:07:00     -346.709     -129.021        6.797      203.127      197.732       89.302    41260.667    39097.876     7974.879       11.260        4.417      369.937       91.628        0.061      341.395       16.074      856.749
11/02/2013  17:08:00     -328.472     -263.566      -21.407      142.273      131.450       94.866    20241.651    17279.046     8999.646       11.216        2.326      421.143       86.884        0.043      341.398       16.079      856.744
11/02/2013  17:09:00     -171.260      -99.627       15.989      166.428      138.916       66.867    27698.336    19297.630     4471.172        4.548        2.573      198.130       84.389        0.181      341.427       16.128      856.740
11/02/2013  17:10:00     -112.129      -67.692      -20.573       90.568       67.562       28.650     8202.642     4564.562      820.832        1.558        0.679      130.978       25.509        0.038      341.510       16.272      856.726
11/02/2013  17:11:00     -191.070      -63.114       -8.483      143.340       73.216       57.839    20546.378     5360.641     3345.311        3.490        1.463      201.224       73.607        0.134      341.453       16.173      856.723
11/02/2013  17:12:00     -199.316     -211.661       -6.229      135.891      128.980       64.484    18466.439    16635.716     4158.128        6.191        1.963      290.736       75.721        0.068      341.412       16.103      856.713
11/02/2013  17:13:00     -307.008     -108.738       -5.024      155.319       91.713       52.776    24124.092     8411.310     2785.278        7.071        1.766      325.696       60.669        0.035      341.404       16.091      856.717
11/02/2013  17:14:00     -339.551      -50.779      -30.167      141.502      115.284       77.151    20022.934    13290.490     5952.272        7.902        1.963      343.327       67.040        0.038      341.366       16.025      856.661
11/02/2013  17:15:00     -264.754     -193.685       -7.163      144.836      151.710       74.049    20977.531    23015.880     5483.314        7.856        2.474      328.037       62.811        0.037      341.354       16.004      856.664
11/02/2013  17:16:00     -254.664     -170.284        1.911      246.069      184.111       94.634    60549.800    33896.680     8955.578        9.861        5.170      306.350      110.703        0.131      341.343       15.987      856.667
11/02/2013  17:17:00     -320.071      -87.375        5.547      239.319      142.931       88.142    57273.656    20429.253     7769.010        9.778        4.274      331.783       95.505        0.083      341.324       15.954      856.648
11/02/2013  17:18:00     -224.990      -17.309       23.651      168.134      138.265       80.773    28269.013    19117.330     6524.279        5.269        2.696      225.655       89.143        0.156      341.363       16.021      856.643
11/02/2013  17:19:00     -232.321      -79.677        9.950      163.124      129.407       74.521    26609.464    16746.211     5553.442        5.466        2.445      245.604       69.248        0.079      341.374       16.039      856.609
11/02/2013  17:20:00      -95.945     -102.425       29.972      154.958      165.917       74.247    24012.089    27528.545     5512.618        3.881        2.853      140.344       82.402        0.345      341.333       15.971      856.608
11/02/2013  17:21:00     -341.956     -115.370        8.287      229.327      123.105       90.223    52590.999    15154.767     8140.146       10.309        3.794      360.894      109.742        0.092      341.304       15.921      856.583
11/02/2013  17:22:00     -501.029     -160.090       -7.906      206.555      221.591      102.444    42664.765    49102.508    10494.812       18.947        5.113      525.984      105.316        0.040      341.264       15.854      856.578
11/02/2013  17:23:00     -298.739     -202.707        1.986      196.686      211.131       74.603    38685.342    44576.107     5565.554       10.957        4.441      361.020       81.275        0.051      341.258       15.842      856.574
11/02/2013  17:24:00     -246.625     -148.566       24.162      224.003      144.499      109.550    50177.317    20879.913    12001.264        8.326        4.153      287.916      117.796        0.167      341.221       15.780      856.556
11/02/2013  17:25:00     -358.982     -181.102        7.517      178.924      215.253       99.974    32013.794    46333.662     9994.804       12.502        4.417      402.077      109.790        0.075      341.200       15.745      856.558
11/02/2013  17:26:00     -344.648     -156.635      -14.003      160.168      180.232       78.215    25653.882    32483.694     6117.579       10.387        3.213      378.572       85.364        0.051      341.181       15.714      856.550
11/02/2013  17:27:00     -373.661     -171.276       -8.039      245.078      192.883      103.506    60063.469    37203.697    10713.476       13.848        5.399      411.045      120.737        0.086      341.171       15.695      856.529
11/02/2013  17:28:00     -152.169     -185.115        7.105      150.450      144.924       63.607    22635.301    21003.068     4045.908        5.257        2.384      239.631       74.704        0.097      341.161       15.678      856.535
11/02/2013  17:29:00     -207.213     -109.835       11.018      104.734      114.449       54.463    10969.284    13098.570     2966.266        4.107        1.352      234.522       47.977        0.042      341.156       15.668      856.538
11/02/2013  17:30:00     -375.502     -132.071      -18.886      182.432      153.878       82.678    33281.405    23678.353     6835.715       11.129        3.190      398.051       82.084        0.043      341.130       15.625      856.527
11/02/2013  17:31:00     -292.858     -133.928        9.721      154.284      160.256       81.918    23803.498    25682.062     6710.553        7.999        2.810      322.029       81.452        0.064      341.125       15.616      856.500
11/02/2013  17:32:00     -337.890     -104.992       -8.778      201.913      206.566       83.646    40768.928    42669.650     6996.683       10.784        4.522      353.827       93.801        0.070      341.117       15.603      856.506
11/02/2013  17:33:00     -311.686     -257.857      -12.334      185.496      177.380       87.319    34408.946    31463.711     7624.667       11.863        3.675      404.522       94.968        0.055      341.131       15.625      856.461
11/02/2013  17:34:00     -178.147      -65.634       -4.898      174.517      148.226       55.120    30456.037    21970.878     3038.186        4.576        2.773      189.853       62.134        0.107      341.114       15.599      856.471
11/02/2013  17:35:00      -65.694      -75.548       18.275      132.684       80.849       55.661    17605.113     6536.498     3098.172        1.879        1.362      100.116       68.830        0.473      341.104       15.583      856.440
11/02/2013  17:36:00     -145.770      -84.210        5.909      138.731       95.164       57.231    19246.422     9056.109     3275.371        2.997        1.579      168.346       57.417        0.116      341.064       15.516      856.436
11/02/2013  17:37:00     -204.486     -154.577       16.224      208.525      135.222       75.131    43482.580    18285.070     5644.711        6.668        3.371      256.337       90.941        0.126      341.055       15.500      856.406
11/02/2013  17:38:00      -68.790      -51.080       15.025      150.671      102.331       58.570    22701.784    10471.579     3430.419        2.208        1.830       85.681       65.149        0.578      341.009       15.424      856.381
11/02/2013  17:39:00     -185.832     -158.955        0.469      174.081      145.400       70.254    30304.072    21141.286     4935.644        5.808        2.819      244.541       81.398        0.111      340.997       15.402      856.368
11/02/2013  17:40:00     -167.387     -148.660       -0.231      129.343      108.251       57.170    16729.686    11718.215     3268.419        4.091        1.586      223.872       61.088        0.074      340.979       15.370      856.371
11/02/2013  17:41:00     -242.835      -62.828        3.695      152.376      120.873       77.879    23218.576    14610.293     6065.101        5.340        2.195      250.831       88.942        0.126      340.969       15.352      856.365
11/02/2013  17:42:00      -93.615      -15.061       -0.808       87.112       95.981       43.986     7588.514     9212.435     1934.808        1.386        0.937       94.819       42.359        0.200      340.953       15.327      856.333
11/02/2013  17:43:00      -80.885     -121.547       -8.809       98.543       62.203       40.557     9710.671     3869.238     1644.851        1.831        0.761      146.000       46.479        0.101      340.968       15.355      856.336
11/02/2013  17:44:00     -351.498     -179.230      -28.056      175.125      162.146       78.164    30668.748    26291.174     6109.541       10.976        3.153      394.556       71.904        0.033      340.950       15.320      856.342
11/02/2013  17:45:00     -248.142     -231.675       -8.568      194.563      166.808       74.583    37854.700    27824.751     5562.639        9.327        3.562      339.482       94.228        0.077      340.931       15.290      856.339
11/02/2013  17:46:00      -67.806      -35.471       18.537       96.049       77.094       41.635     9225.454     5943.421     1733.476        1.155        0.845       76.524       57.661        0.568      340.868       15.186      856.337
11/02/2013  17:47:00     -313.820       14.367      -11.548      240.010      132.830       75.552    57604.704    17643.843     5708.097        8.988        4.048      314.149       76.113        0.059      340.863       15.173      856.334
11/02/2013  17:48:00     -287.768     -128.724        3.591      160.218      116.936       73.091    25669.885    13674.088     5342.245        7.203        2.234      315.246       81.551        0.067      340.862       15.172      856.344
11/02/2013  17:49:00     -225.622      -80.673       -1.702      133.896      127.621       60.565    17928.038    16287.198     3668.156        4.764        1.894      239.611       70.357        0.086      340.861       15.172      856.348
11/02/2013  17:50:00     -171.239      -60.267        4.169      125.190       93.862       53.649    15672.565     8810.144     2878.212        3.016        1.368      181.535       37.802        0.043      340.851       15.155      856.379
11/02/2013  17:51:00     -171.443       -6.536       -3.945       73.817       79.194       45.326     5448.882     6271.742     2054.454        2.161        0.689      171.568       29.285        0.029      340.805       15.077      856.392
11/02/2013  17:52:00     -336.206     -124.345      -24.759      158.305      152.239       86.436    25060.509    23176.605     7471.170        9.240        2.785      358.464       79.503        0.049      340.849       15.151      856.418
11/02/2013  17:53:00     -364.463      -84.787       -9.657      189.848      160.688       90.420    36042.441    25820.587     8175.793       10.507        3.502      374.195       92.656        0.061      340.856       15.162      856.354
11/02/2013  17:54:00     -147.128      -85.654       34.158      165.343      122.825       75.016    27338.184    15085.894     5627.467        3.909        2.403      170.245       77.683        0.208      340.831       15.119      856.387
11/02/2013  17:55:00     -239.228      -57.411      -22.290      121.924       91.426       64.612    14865.536     8358.702     4174.772        4.421        1.370      246.020       57.964        0.056      340.845       15.142      856.407
11/02/2013  17:56:00     -328.070     -100.588       -3.509      170.889      154.192       79.856    29203.037    23775.295     6376.912        8.855        2.968      343.144       73.472        0.046      340.815       15.092      856.415
11/02/2013  17:57:00     -361.202     -211.920       -8.873      134.188      167.177       78.669    18006.434    27947.987     6188.751       11.379        2.607      418.780       65.452        0.024      340.807       15.080      856.379
11/02/2013  17:58:00     -280.162     -131.497       11.458      181.778      186.815       88.867    33043.311    34899.874     7897.288        8.586        3.792      309.487      109.146        0.124      340.817       15.098      856.399
11/02/2013  17:59:00     -422.203      -63.008      -36.770      164.975      156.361       77.330    27216.598    24448.611     5979.852       12.060        2.882      426.879       71.894        0.028      340.818       15.098      856.385
11/02/2013  18:00:00     -229.650     -147.388       -7.203      139.591      132.112       64.264    19485.745    17453.712     4129.857        5.778        2.053      272.878       69.283        0.064      340.767       15.013      856.431
11/02/2013  18:01:00     -373.352     -175.542      -43.657      223.046      147.945       72.376    49749.544    21887.699     5238.298       12.448        3.844      412.561       93.052        0.051      340.801       15.070      856.409
11/02/2013  18:02:00     -297.266      -61.048        6.883      160.305      143.282       79.126    25697.621    20529.784     6260.923        7.231        2.624      303.470       86.413        0.081      340.755       14.992      856.396
11/02/2013  18:03:00     -323.915      -32.492       -9.383      210.652      158.885       74.854    44374.275    25244.329     5603.065        9.063        3.761      325.541       84.414        0.067      340.705       14.906      856.419
11/02/2013  18:04:00     -285.269      -29.170       -6.785      146.273      162.206       58.600    21395.770    26310.654     3433.957        6.670        2.557      286.756       64.038        0.050      340.699       14.895      856.414
11/02/2013  18:05:00     -254.148      -97.340       -6.310      178.062      124.112       70.017    31706.102    15403.803     4902.429        6.305        2.601      272.152       79.073        0.084      340.716       14.927      856.417
11/02/2013  18:06:00     -353.776      -84.232      -11.776      188.695      129.798       75.849    35605.956    16847.602     5753.126        9.529        2.910      363.666       86.744        0.057      340.702       14.902      856.409
11/02/2013  18:07:00     -478.818      -55.557      -29.408      206.691      176.222       94.542    42721.126    31054.176     8938.140       15.795        4.136      482.030       91.372        0.036      340.709       14.914      856.429
11/02/2013  18:08:00     -234.598     -130.046        3.985      157.460      140.332       72.290    24793.538    19693.144     5225.909        6.083        2.486      268.231       76.789        0.082      340.662       14.834      856.456
11/02/2013  18:09:00     -430.654     -197.437      -44.234      181.971      189.336       91.248    33113.372    35848.145     8326.273       15.183        3.864      473.755       80.435        0.029      340.688       14.878      856.423
11/02/2013  18:10:00     -257.556      -24.979       -6.543      158.235      108.319       76.350    25038.258    11732.930     5829.394        5.479        2.130      258.765       82.730        0.102      340.627       14.776      856.443
11/02/2013  18:11:00     -253.075       20.023       -7.907      191.076      119.272       62.903    36510.112    14225.778     3956.799        5.959        2.735      253.866       84.992        0.112      340.615       14.754      856.451
11/02/2013  18:12:00     -106.717      -74.502        3.335      103.195       83.939       41.185    10649.159     7045.720     1696.184        1.817        0.970      130.150       40.515        0.097      340.605       14.739      856.470
11/02/2013  18:13:00      -70.133      -73.010       -6.685       79.348       70.999       30.211     6296.117     5040.799      912.687        1.127        0.612      101.238       32.163        0.101      340.592       14.717      856.462
11/02/2013  18:14:00     -415.105     -105.908      -11.897      249.981      171.314       87.221    62490.293    29348.537     7607.492       14.154        4.972      428.402       99.366        0.054      340.593       14.717      856.430
11/02/2013  18:15:00     -204.810     -118.122       -1.379      148.209      140.638       71.729    21966.040    19778.915     5145.035        5.139        2.344      236.431       77.868        0.108      340.582       14.698      856.431
11/02/2013  18:16:00     -339.755      -87.976      -22.532      215.864      131.961       82.829    46597.196    17413.715     6860.643        9.726        3.544      350.960      100.377        0.082      340.568       14.675      856.406
11/02/2013  18:17:00     -300.437      -55.308      -26.460      132.104      110.504       58.744    17451.525    12211.154     3450.819        6.356        1.656      305.485       60.940        0.040      340.570       14.679      856.408
11/02/2013  18:18:00     -150.865     -107.271       15.272      195.118      131.921       71.850    38071.145    17403.045     5162.362        4.756        3.032      185.114       89.590        0.234      340.547       14.642      856.439
11/02/2013  18:19:00     -163.323      -77.246       -5.238      145.535      112.722       64.393    21180.522    12706.358     4146.402        3.534        1.902      180.669       65.615        0.132      340.509       14.577      856.452
11/02/2013  18:20:00     -254.303     -130.750        2.134      227.671      155.534       80.704    51834.019    24190.720     6513.064        8.214        4.127      285.947       88.686        0.096      340.495       14.553      856.470
11/02/2013  18:21:00     -228.398     -190.436      -13.589      167.455      142.524       78.043    28041.344    20313.060     6090.681        7.152        2.722      297.375       91.677        0.095      340.520       14.594      856.462
11/02/2013  18:22:00     -164.472     -124.961        3.165      157.845      113.812       78.613    24914.963    12953.147     6180.003        4.335        2.202      206.558       87.589        0.180      340.522       14.597      856.489
11/02/2013  18:23:00     -334.035      -82.468      -21.192      163.841      144.326       83.850    26843.956    20830.033     7030.741        8.676        2.735      344.064       78.160        0.052      340.534       14.618      856.478
11/02/2013  18:24:00     -232.397       20.095       17.407      141.158      103.805       69.611    19925.524    10775.391     4845.705        4.512        1.777      233.264       72.821        0.097      340.464       14.499      856.492
11/02/2013  18:25:00     -264.905     -203.552      -12.748      191.787      146.127       98.161    36782.194    21353.101     9635.568        8.976        3.389      334.078      104.189        0.097      340.532       14.614      856.487
11/02/2013  18:26:00     -442.804     -184.707      -17.174      192.755      186.752       86.798    37154.632    34876.492     7533.932       15.501        3.978      479.784       92.226        0.037      340.565       14.669      856.456
11/02/2013  18:27:00     -124.041      -27.119       31.477      105.119       85.571       62.243    11050.035     7322.453     3874.235        1.968        1.112      126.971       67.189        0.280      340.452       14.480      856.484
11/02/2013  18:28:00     -277.623     -152.920      -15.115      180.729      128.592       67.772    32663.039    16535.886     4593.038        7.723        2.690      316.952       88.626        0.078      340.527       14.606      856.470
11/02/2013  18:29:00     -264.860      -67.918       16.533      208.022      142.815       74.018    43273.355    20396.246     5478.710        7.208        3.457      273.429       89.831        0.108      340.497       14.555      856.478
11/02/2013  18:30:00     -220.557      -70.297       -2.858      177.264      116.661       61.526    31422.449    13609.696     3785.450        5.120        2.441      231.488       54.859        0.056      340.556       14.657      856.471
11/02/2013  18:31:00     -259.128      -49.264       -7.334      154.309      128.760       62.092    23811.371    16579.234     3855.464        5.693        2.212      263.769       82.073        0.097      340.536       14.623      856.479
11/02/2013  18:32:00     -198.449      -40.588      -21.212       94.851       85.946       51.281     8996.767     7386.776     2629.781        3.024        0.951      202.557       46.864        0.054      340.517       14.589      856.491
11/02/2013  18:33:00     -186.164      -37.630       -6.714      129.488       73.994       43.143    16767.054     5475.179     1861.329        3.011        1.205      189.929       48.590        0.065      340.460       14.492      856.493
11/02/2013  18:34:00      -94.337        9.922       11.223       83.853       80.356       44.440     7031.400     6457.165     1974.888        1.229        0.773       94.858       43.215        0.208      340.399       14.392      856.504
11/02/2013  18:35:00     -109.124      -49.100        7.121       91.084       70.354       43.303     8296.208     4949.684     1875.132        1.474        0.756      119.661       44.694        0.140      340.379       14.357      856.494
11/02/2013  18:36:00     -150.937      -78.731       15.039      146.660      124.108       60.578    21509.046    15402.804     3669.685        3.489        2.029      170.237       69.842        0.168      340.379       14.357      856.480
11/02/2013  18:37:00     -185.173     -109.907       -3.828      144.538      162.068       46.958    20891.255    26266.099     2205.015        4.786        2.468      215.334       63.801        0.088      340.435       14.451      856.486
11/02/2013  18:38:00     -276.364     -195.893      -28.667      126.044      113.495       65.834    15887.096    12881.058     4334.064        7.433        1.655      338.750       65.792        0.038      340.478       14.523      856.483
11/02/2013  18:39:00     -404.210     -221.610      -17.226      184.604      195.868       92.672    34078.609    38364.467     8588.054       14.690        4.052      460.974       74.948        0.026      340.506       14.571      856.446
11/02/2013  18:40:00     -212.344     -203.737        3.592      149.325      145.426       83.803    22297.863    21148.682     7022.936        6.853        2.523      294.277       81.859        0.077      340.495       14.553      856.436
11/02/2013  18:41:00     -345.189      -40.142       -9.063      223.430      131.389       89.411    49921.088    17263.005     7994.401        9.800        3.759      347.515      112.029        0.104      340.516       14.587      856.452
11/02/2013  18:42:00     -305.412     -156.015      -24.100      146.751      140.202       63.636    21535.829    19656.518     4049.481        8.171        2.262      342.954       70.985        0.043      340.551       14.645      856.465
11/02/2013  18:43:00     -384.875     -194.997      -21.706      233.013      241.493       89.078    54295.162    58318.915     7934.958       15.357        6.027      431.454       93.423        0.047      340.638       14.794      856.415
11/02/2013  18:44:00     -358.423     -256.122      -18.972      189.345      198.734       85.429    35851.656    39495.213     7298.130       13.852        4.132      440.529       71.258        0.026      340.729       14.947      856.341
11/02/2013  18:45:00     -328.468      -20.521       -6.361      139.435      150.601       64.416    19442.159    22680.551     4149.409        7.730        2.314      329.109       68.575        0.043      340.565       14.669      856.404
11/02/2013  18:46:00     -290.430      -99.314      -22.385      191.101      136.681       74.201    36519.745    18681.598     5505.757        7.770        3.035      306.941       81.875        0.071      340.550       14.644      856.370
11/02/2013  18:47:00     -208.671      -95.321       14.172      188.215      143.955       79.113    35424.711    20722.966     6258.811        5.761        3.120      229.412       93.956        0.168      340.475       14.519      856.340
11/02/2013  18:48:00     -439.495     -178.687        0.662      239.223      276.275      113.068    57227.753    76327.661    12784.478       18.569        7.317      474.431      111.644        0.055      340.567       14.672      856.318
11/02/2013  18:49:00     -597.265     -142.876      -50.870      158.643      177.074       86.910    25167.595    31355.377     7553.276       22.189        3.204      614.117       81.324        0.018      340.594       14.719      856.282
11/02/2013  18:50:00     -263.921      -83.074       -3.050      190.251      133.287       50.471    36195.602    17765.400     2547.277        6.653        2.825      276.686       46.571        0.028      340.553       14.651      856.286
11/02/2013  18:51:00     -222.588     -128.653      -11.232      252.462      195.774       85.671    63736.948    38327.441     7339.515        8.780        5.470      257.093      119.173        0.215      340.499       14.559      856.284
11/02/2013  18:52:00     -230.545     -115.525      -13.132      166.590      116.219       79.491    27752.086    13506.954     6318.878        5.712        2.379      257.870       68.131        0.070      340.564       14.670      856.262
11/02/2013  18:53:00     -410.555     -262.273        7.409      287.898      244.999      119.832    82885.515    60024.668    14359.623       19.731        7.863      487.178      129.125        0.070      340.687       14.875      856.211
11/02/2013  18:54:00     -304.886     -225.160       -5.612      233.113      167.674       98.390    54341.521    28114.724     9680.565       11.789        4.607      379.015      110.125        0.084      340.720       14.933      856.251
11/02/2013  18:55:00     -370.036     -207.491      -24.058      211.547      200.571       94.367    44752.032    40228.692     8905.207       13.721        4.694      424.240      106.289        0.063      340.686       14.875      856.275
11/02/2013  18:56:00     -233.541      -42.444        7.724      204.698      190.579       75.741    41901.274    36320.284     5736.692        7.017        4.198      237.366       88.207        0.138      340.563       14.666      856.269
11/02/2013  18:57:00     -243.415       12.720       -6.345      175.300       93.452       45.643    30730.252     8733.297     2083.319        5.049        2.077      243.747       59.962        0.061      340.514       14.584      856.308
11/02/2013  18:58:00     -202.779      -31.053        4.889      171.662       91.669       60.838    29467.800     8403.289     3701.323        4.183        2.079      205.143       72.760        0.126      340.450       14.476      856.318
11/02/2013  18:59:00     -265.355     -174.625        8.538      178.813      146.570       83.973    31974.216    21482.726     7051.514        8.073        3.025      317.658       90.207        0.081      340.443       14.464      856.273
11/02/2013  19:00:00     -195.080     -137.966       22.042      169.762      130.061       85.150    28819.125    16915.967     7250.478        5.527        2.649      238.937       95.359        0.159      340.434       14.448      856.323
11/02/2013  19:01:00     -243.267     -117.231        4.461      222.940      115.212       81.274    49702.263    13273.824     6605.421        7.125        3.479      270.041       75.936        0.079      340.467       14.506      856.319
11/02/2013  19:02:00     -239.423     -131.024        8.370      219.350      155.165      103.766    48114.567    24076.148    10767.304        7.875        4.148      272.930      130.728        0.229      340.451       14.479      856.293
11/02/2013  19:03:00     -238.893      -64.530      -15.122      202.337      114.130       65.139    40940.433    13025.605     4243.090        5.983        2.910      247.455       87.487        0.125      340.434       14.449      856.284
11/02/2013  19:04:00     -234.097     -110.980      -12.866      117.944       93.378       56.730    13910.859     8719.535     3218.287        4.656        1.292      259.071       62.328        0.058      340.404       14.399      856.284
11/02/2013  19:05:00     -451.489     -245.527        1.486      280.035      253.110      103.912    78419.812    64064.492    10797.790       20.868        7.664      513.932      132.303        0.066      340.447       14.472      856.288
11/02/2013  19:06:00     -327.648     -267.716      -13.904      320.910      244.175      100.926   102983.199    59621.545    10186.097       17.598        8.640      423.113      119.007        0.079      340.484       14.533      856.254
11/02/2013  19:07:00     -334.244     -216.317       15.002      221.213      213.004      109.951    48935.134    45370.695    12089.191       13.255        5.320      398.136      133.084        0.112      340.498       14.556      856.275
11/02/2013  19:08:00     -328.581     -155.099      -15.731      231.984      161.413       93.481    53816.478    26054.148     8738.626       11.042        4.430      363.347      101.001        0.077      340.512       14.581      856.273
11/02/2013  19:09:00     -348.224     -168.718      -17.318      225.122      172.678       96.958    50679.802    29817.733     9400.814       11.995        4.495      386.944      103.394        0.071      340.473       14.517      856.291
11/02/2013  19:10:00     -297.128     -131.306       -2.420      166.273      157.939       75.909    27646.764    24944.648     5762.168        8.193        2.918      324.849       85.238        0.069      340.408       14.405      856.289
11/02/2013  19:11:00     -413.873     -154.936      -17.593      174.092      148.788       80.243    30308.096    22137.998     6438.998       12.724        2.944      441.923       84.391        0.036      340.412       14.411      856.299
11/02/2013  19:12:00     -265.864     -146.857       12.094      174.173      125.773       69.497    30336.332    15818.968     4829.869        7.168        2.549      303.728       76.569        0.064      340.407       14.402      856.268
11/02/2013  19:13:00     -286.476     -156.864       -6.905      177.618      158.717       68.352    31548.114    25191.027     4672.063        8.406        3.071      326.611       78.269        0.057      340.378       14.353      856.221
11/02/2013  19:14:00     -341.156     -149.913      -14.382      131.653      138.198       63.170    17332.490    19098.769     3990.495        8.974        2.021      372.641       42.456        0.013      340.393       14.378      856.266
11/02/2013  19:15:00     -279.143      -80.898      -13.017      137.925      126.110       66.173    19023.358    15903.702     4378.931        6.196        1.965      290.629       62.784        0.047      340.393       14.380      856.272
11/02/2013  19:16:00     -265.748     -188.609       -1.681      170.412      132.141       76.797    29040.324    17461.333     5897.791        7.929        2.620      325.877       85.138        0.068      340.389       14.372      856.305
11/02/2013  19:17:00     -265.509     -184.245       -2.396      188.389      137.955       90.050    35490.229    19031.567     8109.026        8.353        3.132      323.174       87.990        0.074      340.414       14.414      856.283
11/02/2013  19:18:00     -317.216     -202.979       -3.018      168.033      121.528       78.052    28234.999    14769.055     6092.039        9.546        2.455      376.599       60.720        0.026      340.378       14.353      856.305
11/02/2013  19:19:00     -250.100     -107.536       22.518      178.797      151.936       96.280    31968.492    23084.634     9269.765        6.946        3.216      272.239       75.069        0.076      340.328       14.270      856.257
11/02/2013  19:20:00     -220.361     -204.126        0.102      170.385      131.575       92.080    29031.064    17311.867     8478.772        7.251        2.741      300.377       97.551        0.105      340.334       14.279      856.260
11/02/2013  19:21:00     -269.683     -126.997       11.380      170.908      123.817       93.219    29209.698    15330.715     8689.873        7.110        2.662      298.089       92.244        0.096      340.316       14.250      856.258
11/02/2013  19:22:00     -318.390     -276.090      -17.184      250.825      166.930       86.950    62913.025    27865.729     7560.295       13.810        4.917      421.424      107.373        0.065      340.369       14.338      856.276
11/02/2013  19:23:00     -270.702     -208.391        9.720      170.420      140.964       84.713    29042.987    19870.882     7176.240        8.644        2.805      341.623       88.536        0.067      340.320       14.257      856.279
11/02/2013  19:24:00     -283.145     -198.284       -4.792      179.376      136.770       91.995    32175.718    18706.007     8462.993        8.942        2.967      345.670      101.029        0.085      340.326       14.266      856.258
11/02/2013  19:25:00     -307.536      -74.348       -5.190      137.438      163.500       69.227    18889.305    26732.101     4792.393        7.526        2.521      316.396       68.585        0.047      340.317       14.250      856.238
11/02/2013  19:26:00     -246.404     -193.524      -18.785      115.981      127.916       62.337    13451.633    16362.470     3885.840        6.610        1.685      313.316       53.389        0.029      340.354       14.313      856.276
11/02/2013  19:27:00     -292.965     -140.943       -9.577      206.355      153.490       75.060    42582.312    23559.311     5633.947        8.877        3.589      325.105       99.289        0.093      340.289       14.206      856.294
11/02/2013  19:28:00     -170.253     -165.233       -7.898      124.655      129.202       69.479    15538.870    16693.037     4827.280        4.670        1.853      237.251       70.776        0.089      340.287       14.200      856.284
11/02/2013  19:29:00     -352.817     -113.074      -27.603      186.397      118.182       77.790    34743.810    13967.048     6051.232        9.639        2.738      370.494       89.028        0.058      340.283       14.193      856.255
11/02/2013  19:30:00     -188.378       24.118        0.029      165.971       97.842       71.868    27546.389     9573.073     5164.952        3.917        2.114      189.915       84.901        0.200      340.173       14.010      856.298
11/02/2013  19:31:00     -298.836     -238.780      -16.499      244.114      176.157      101.467    59591.531    31031.151    10295.634       12.374        5.046      382.517      112.723        0.087      340.274       14.179      856.327
11/02/2013  19:32:00     -286.967      -83.287       -3.713      156.335      156.704       74.189    24440.680    24556.154     5503.942        7.189        2.725      298.809       70.944        0.056      340.292       14.208      856.337
11/02/2013  19:33:00      -40.458      -40.685       34.089      127.499       81.152       66.635    16255.982     6585.633     4440.272        1.586        1.364       57.377       70.723        1.519      340.214       14.079      856.359
11/02/2013  19:34:00     -171.955      -33.518       -2.080      119.022      108.312       51.144    14166.187    11731.487     2615.714        2.960        1.426      175.191       56.291        0.103      340.250       14.139      856.413
11/02/2013  19:35:00     -129.101     -111.165       -2.083       91.472       67.890       42.187     8367.166     4609.099     1779.766        2.189        0.738      170.366       41.064        0.058      340.307       14.235      856.423
11/02/2013  19:36:00     -219.619      -98.905       -2.238      121.915      114.056       58.080    14863.266    13008.772     3373.258        4.463        1.562      240.862       55.550        0.053      340.291       14.207      856.448
11/02/2013  19:37:00     -241.812       10.518       -3.415      138.714      133.263       63.630    19241.454    17759.111     4048.744        4.982        2.052      242.041       58.806        0.059      340.255       14.147      856.479
11/02/2013  19:38:00     -295.732        7.205      -19.360      138.873      143.983       72.094    19285.664    20731.222     5197.480        6.654        2.261      295.820       72.479        0.060      340.233       14.108      856.500
11/02/2013  19:39:00     -342.979      -62.761       -8.252      154.659      134.238       77.562    23919.487    18019.861     6015.790        8.479        2.398      348.674       69.622        0.040      340.168       14.000      856.533
11/02/2013  19:40:00     -283.302     -103.496      -18.748      118.215      125.825       66.092    13974.900    15831.944     4368.138        6.274        1.709      301.615       69.537        0.053      340.189       14.033      856.542
11/02/2013  19:41:00     -272.155      -36.212       -5.589      139.034      124.279       80.707    19330.522    15445.390     6513.657        5.834        2.064      274.553       80.492        0.086      340.161       13.988      856.566
11/02/2013  19:42:00     -224.219      -83.939       -4.170      155.769      122.492       74.457    24264.067    15004.287     5543.871        5.107        2.241      239.416       80.403        0.113      340.125       13.927      856.548
11/02/2013  19:43:00     -184.453       -9.826       -1.972      161.434       69.941       71.019    26060.955     4891.677     5043.731        3.505        1.800      184.714       88.922        0.232      340.096       13.878      856.532
11/02/2013  19:44:00     -372.018       22.461      -25.081      199.232      120.917       63.739    39693.585    14620.927     4062.677        9.894        2.919      372.695       76.956        0.043      340.091       13.868      856.577
11/02/2013  19:45:00     -320.249      -32.112      -26.867      124.087      120.013       54.284    15397.500    14403.074     2946.751        6.852        1.637      321.855       53.681        0.028      340.104       13.890      856.579
11/02/2013  19:46:00     -412.707      -91.624      -20.720      180.534      101.359       68.847    32592.426    10273.655     4739.911       11.337        2.380      422.755       73.769        0.030      340.132       13.938      856.577
11/02/2013  19:47:00     -289.062      -87.207        4.126      190.244      105.965       82.363    36192.854    11228.545     6783.605        7.268        2.710      301.930      103.305        0.117      340.112       13.906      856.607
11/02/2013  19:48:00     -279.363      -20.686      -25.206       94.522       77.451       47.978     8934.446     5998.657     2301.885        4.817        0.862      280.127       42.618        0.023      340.109       13.899      856.617
11/02/2013  19:49:00     -383.765      -92.486      -15.825      175.193      110.816       79.939    30692.630    12280.166     6390.257       10.271        2.468      394.752       94.387        0.057      340.139       13.949      856.592
11/02/2013  19:50:00     -287.766     -122.412      -16.819       94.316      105.921       53.223     8895.439    11219.176     2832.684        6.051        1.147      312.721       45.518        0.021      340.086       13.860      856.584
11/02/2013  19:51:00     -239.215       -3.451       -1.306      117.326       89.774       57.828    13765.479     8059.426     3344.037        4.120        1.258      239.240       61.497        0.066      340.032       13.768      856.602
11/02/2013  19:52:00     -578.644      -32.018      -47.040      237.857      183.818       90.106    56575.885    33788.900     8119.131       21.826        4.924      579.529      108.792        0.035      340.152       13.972      856.580
11/02/2013  19:53:00     -358.009     -160.872       -4.229      263.792      150.564       84.414    69586.127    22669.463     7125.765       12.671        4.969      392.493      101.249        0.067      340.141       13.953      856.632
11/02/2013  19:54:00     -262.546      -86.923      -23.731      126.096      101.026       80.323    15900.215    10206.152     6451.820        5.480        1.628      276.561       56.090        0.041      340.114       13.908      856.634
11/02/2013  19:55:00     -246.454      -34.400       -0.506      168.106      104.487       79.502    28259.577    10917.628     6320.586        5.370        2.275      248.843       91.967        0.137      340.052       13.805      856.630
11/02/2013  19:56:00     -450.446      -81.467      -32.265      162.159      137.061       61.060    26295.419    18785.826     3728.306       12.969        2.440      457.754       60.983        0.018      340.150       13.968      856.614
11/02/2013  19:57:00     -377.699      -55.217      -11.762      182.915      121.752       86.783    33458.078    14823.475     7531.307       10.082        2.791      381.714      100.392        0.069      340.130       13.935      856.574
11/02/2013  19:58:00     -384.225      -49.314      -23.619      126.756      188.415       71.876    16067.179    35500.112     5166.225       10.367        2.837      387.377       65.947        0.029      340.146       13.962      856.585
11/02/2013  19:59:00     -307.616      -23.300      -26.223      106.965      159.309       68.465    11441.601    25379.507     4687.476        6.868        2.075      308.497       58.093        0.035      340.167       13.998      856.583
11/02/2013  20:00:00     -215.367      -87.284      -12.735      116.141      115.444       58.864    13488.625    13327.265     3464.937        4.222        1.514      232.382       66.072        0.081      340.116       13.912      856.543
11/02/2013  20:01:00     -252.565       21.607       -4.731      106.373      109.332       71.064    11315.111    11953.407     5050.120        4.629        1.416      253.487       68.149        0.072      340.131       13.935      856.497
11/02/2013  20:02:00     -192.418      -63.614        0.826      141.609       84.550       56.728    20053.136     7148.627     3218.040        3.574        1.521      202.660       52.381        0.067      340.071       13.837      856.486
11/02/2013  20:03:00     -194.003      -58.627       -1.745      143.094       82.553       41.800    20475.970     6815.025     1747.199        3.505        1.452      202.668       46.797        0.053      340.106       13.897      856.490
11/02/2013  20:04:00     -143.607      -73.868       -4.544      117.696       80.792       49.624    13852.275     6527.353     2462.569        2.447        1.142      161.492       63.934        0.157      340.077       13.848      856.519
11/02/2013  20:05:00     -209.695      -20.062      -14.231      147.412       56.434       40.262    21730.213     3184.824     1621.055        3.555        1.327      210.652       60.123        0.081      340.104       13.892      856.541
11/02/2013  20:06:00     -222.573      -14.698      -31.359       74.657       50.970       37.092     5573.697     2597.918     1375.800        3.014        0.477      223.057       30.990        0.019      340.155       13.978      856.532
11/02/2013  20:07:00     -140.390      -41.799       -7.791       64.121       61.178       28.987     4111.448     3742.709      840.269        1.510        0.435      146.480       25.674        0.031      340.122       13.924      856.578
11/02/2013  20:08:00     -194.694      -75.805      -13.726       97.345       77.860       41.397     9476.055     6062.231     1713.677        3.054        0.863      208.931       43.769        0.044      340.161       13.989      856.584
11/02/2013  20:09:00     -168.247      -51.553      -10.174       80.134       82.890       42.510     6421.446     6870.708     1807.067        2.308        0.755      175.968       33.771        0.037      340.162       13.990      856.565
11/02/2013  20:10:00     -188.283     -104.121        2.556      103.774       77.217       53.590    10769.055     5962.527     2871.934        3.295        0.980      215.155       45.228        0.044      340.058       13.813      856.539
11/02/2013  20:11:00     -286.487      -45.735       -8.596      178.447      118.074       72.941    31843.346    13941.490     5320.318        6.766        2.555      290.115       87.624        0.091      340.068       13.832      856.485
11/02/2013  20:12:00     -409.103     -151.986      -27.204      129.439      110.166       58.051    16754.499    12136.440     3369.917       11.173        1.613      436.423       52.623        0.015      340.131       13.936      856.423
11/02/2013  20:13:00     -140.459        0.485      -15.974      120.714       91.964       38.886    14571.791     8457.387     1512.125        2.226        1.227      140.460       54.748        0.152      340.011       13.736      856.402
11/02/2013  20:14:00      -78.983      130.495      -15.379       47.532       60.353       32.379     2259.256     3642.484     1048.430        1.523        0.348      152.536       31.322        0.042      340.035       13.777      856.384
11/02/2013  20:15:00     -188.416      157.511      -33.570       92.252       76.069       48.853     8510.418     5786.434     2386.655        3.906        0.834      245.582       46.201        0.035      340.028       13.762      856.385
11/02/2013  20:16:00     -395.923       39.029      -27.049      121.282      102.854       49.851    14709.269    10578.928     2485.133        9.339        1.389      397.842       49.569        0.016      339.987       13.691      856.355
11/02/2013  20:17:00     -110.077       39.341      -23.780       59.251       58.718       27.624     3510.667     3447.768      763.088        1.097        0.386      116.896       26.655        0.052      339.908       13.564      856.402
11/02/2013  20:18:00     -267.560      -67.452      -30.971       71.562       63.819       42.801     5121.138     4072.923     1831.895        4.406        0.551      275.932       15.160        0.003      339.899       13.545      856.418
11/02/2013  20:19:00     -228.181      -20.872      -23.777      101.000       78.940       39.677    10201.089     6231.461     1574.266        3.553        0.900      229.134       45.555        0.040      339.861       13.481      856.456
11/02/2013  20:20:00     -329.113     -157.030       -9.414       78.837       69.289       44.259     6215.337     4800.964     1958.821        7.302        0.649      364.656       39.902        0.012      339.924       13.586      856.482
11/02/2013  20:21:00     -192.960       -4.402      -13.135       57.455       71.893       35.810     3301.130     5168.553     1282.376        2.359        0.488      193.010       24.173        0.016      339.897       13.543      856.545
11/02/2013  20:22:00     -122.361       12.158       -5.339       66.236       62.483       30.748     4387.243     3904.064      945.459        1.219        0.462      122.963       36.177        0.087      339.875       13.507      856.567
11/02/2013  20:23:00      -95.107       46.796       -3.639      103.322       56.526       37.352    10675.345     3195.229     1395.193        1.325        0.763      105.996       48.397        0.208      339.799       13.380      856.594
11/02/2013  20:24:00     -212.002        9.577      -34.055       59.840       82.640       37.179     3580.785     6829.441     1382.289        2.899        0.590      212.218       22.028        0.011      339.831       13.430      856.627
11/02/2013  20:25:00     -171.743       -0.962      -19.954       82.043       94.307       45.357     6731.048     8893.897     2057.302        2.379        0.884      171.746       39.661        0.053      339.840       13.445      856.643
11/02/2013  20:26:00     -204.020      -89.384       -1.587       97.874      102.208       47.841     9579.260    10446.542     2288.725        3.596        1.116      222.742       46.929        0.044      339.827       13.425      856.707
11/02/2013  20:27:00     -157.238       37.945      -17.979       78.540       92.284       36.060     6168.557     8516.295     1300.293        2.123        0.799      161.752       41.339        0.065      339.806       13.389      856.793
11/02/2013  20:28:00     -159.697      113.015      -26.402       73.392       92.227       39.575     5386.383     8505.880     1566.162        2.721        0.773      195.641       37.747        0.037      339.840       13.446      856.842
11/02/2013  20:29:00      -97.913      105.348      -12.952       91.749       89.523       47.353     8417.911     8014.328     2242.334        1.976        0.934      143.824       56.877        0.156      339.788       13.360      856.874
11/02/2013  20:30:00     -139.316       42.404      -34.469       59.870       76.052       38.825     3584.385     5783.886     1507.398        1.663        0.544      145.627       31.512        0.047      339.803       13.386      856.897
11/02/2013  20:31:00     -188.564       11.407      -22.232       70.619       58.388       42.619     4987.034     3409.107     1816.411        2.319        0.511      188.908       38.307        0.041      339.754       13.304      856.909
11/02/2013  20:32:00     -173.411      -16.200      -23.900       72.398       69.141       53.740     5241.409     4780.530     2888.035        2.191        0.645      174.166       28.302        0.026      339.737       13.274      856.927
11/02/2013  20:33:00     -226.801      -31.201      -17.380      131.791      116.930       63.107    17368.945    13672.645     3982.493        4.386        1.751      228.937       42.974        0.035      339.751       13.297      856.964
11/02/2013  20:34:00     -219.061      -30.554      -21.018      105.674       86.561       45.532    11167.089     7492.838     2073.195        3.504        1.037      221.181       52.547        0.056      339.737       13.274      856.986
11/02/2013  20:35:00     -175.195      -59.146       -9.043      116.737       69.723       51.811    13627.632     4861.354     2684.338        2.772        1.059      184.909       56.410        0.093      339.699       13.209      857.003
11/02/2013  20:36:00     -208.834     -108.360        8.143      164.877      105.326       61.869    27184.360    11093.627     3827.749        4.876        2.105      235.274       73.770        0.098      339.718       13.241      857.025
11/02/2013  20:37:00     -193.701      -79.508        1.198      145.053      107.672       63.844    21040.356    11593.175     4076.058        4.027        1.835      209.384       69.504        0.110      339.785       13.356      857.030
11/02/2013  20:38:00     -329.733      -22.829      -25.295      156.295      161.088       54.221    24428.182    25949.221     2939.868        8.159        2.666      330.523       29.560        0.008      339.770       13.327      857.074
11/02/2013  20:39:00     -216.277      149.758      -34.584      120.328      116.500       69.053    14478.858    13572.342     4768.343        5.160        1.641      263.065       69.514        0.070      339.800       13.380      857.102
11/02/2013  20:40:00     -209.370       71.072      -39.796       84.075       83.906       40.006     7068.613     7040.151     1600.519        3.309        0.785      221.104       38.204        0.030      339.795       13.371      857.082
11/02/2013  20:41:00     -174.462      -13.409      -22.034       79.155       93.600       45.828     6265.461     8760.979     2100.215        2.411        0.856      174.976       39.040        0.050      339.735       13.271      857.120
11/02/2013  20:42:00     -238.992       44.293      -19.160      171.933       76.216       55.811    29560.890     5808.853     3114.871        4.896        1.924      243.061       84.881        0.122      339.740       13.277      857.144
11/02/2013  20:43:00     -259.533      -98.894       -9.635      111.983       88.064       53.359    12540.102     7755.232     2847.155        5.018        1.157      277.736       48.991        0.031      339.696       13.205      857.120
11/02/2013  20:44:00     -361.544      -98.191      -20.634      126.383       89.737       51.663    15972.787     8052.789     2669.113        8.373        1.335      374.640       59.860        0.026      339.660       13.141      857.105
11/02/2013  20:45:00     -316.198      -21.481      -45.545       90.891       76.563       48.920     8261.095     5861.963     2393.205        5.951        0.826      316.927       39.600        0.016      339.653       13.129      857.098
11/02/2013  20:46:00     -114.233      -25.027      -13.955       99.576       40.331       32.973     9915.408     1626.611     1087.215        1.325        0.631      116.943       41.424        0.125      339.616       13.070      857.088
11/02/2013  20:47:00      -66.645       10.550        1.189       64.314       57.307       44.877     4136.318     3284.090     2013.923        0.699        0.472       67.475       39.679        0.346      339.581       13.012      857.054
11/02/2013  20:48:00     -170.468       51.660      -17.141       85.964      128.954       47.555     7389.729    16629.222     2261.501        2.915        1.314      178.124       51.185        0.083      339.605       13.051      857.062
11/02/2013  20:49:00     -185.771      156.224      -27.316       93.647      128.649       65.051     8769.826    16550.627     4231.588        4.460        1.478      242.727       59.436        0.060      339.696       13.203      857.016
11/02/2013  20:50:00     -319.995      -19.463      -31.570      116.433      103.677       48.464    13556.743    10748.998     2348.793        6.521        1.333      320.586       27.707        0.007      339.686       13.187      857.037
11/02/2013  20:51:00     -175.846       24.121      -22.939       91.747       72.870       35.686     8417.536     5310.100     1273.519        2.351        0.750      177.493       25.838        0.021      339.642       13.113      857.076
11/02/2013  20:52:00     -100.823        0.907       -4.114       71.036       58.092       35.730     5046.072     3374.715     1276.621        0.994        0.485      100.827       20.329        0.041      339.635       13.103      857.079
11/02/2013  20:53:00     -175.440       35.447      -21.925       61.352       58.037       39.503     3764.067     3368.334     1560.494        2.060        0.435      178.985       36.375        0.041      339.679       13.176      857.062
11/02/2013  20:54:00     -190.637      -75.424      -16.176       86.680       66.147       47.312     7513.371     4375.485     2238.464        2.821        0.706      205.016       30.187        0.022      339.640       13.109      857.037
11/02/2013  20:55:00     -134.143      -27.635       -2.652      120.294       56.010       44.526    14470.679     3137.151     1982.578        1.917        0.980      136.961       53.278        0.151      339.659       13.145      857.027
11/02/2013  20:56:00     -260.907      -21.791      -25.723       96.843      113.995       55.846     9378.637    12994.932     3118.823        4.735        1.275      261.815       42.959        0.027      339.638       13.106      857.032
11/02/2013  20:57:00     -123.091       21.000       -7.602      120.723       85.819       59.721    14573.935     7364.861     3566.638        2.057        1.275      124.869       58.478        0.219      339.680       13.178      857.035
11/02/2013  20:58:00     -132.074       -3.629       -3.198       81.611       88.206       50.671     6660.410     7780.360     2567.571        1.723        0.850      132.124       43.429        0.108      339.638       13.107      857.081
11/02/2013  20:59:00     -198.584      130.272      -21.335       87.552       68.492       50.543     7665.332     4691.157     2554.560        3.588        0.746      237.500       50.847        0.046      339.666       13.153      857.070
11/02/2013  21:00:00     -208.128       52.082      -25.888       72.212       91.713       48.890     5214.570     8411.187     2390.241        3.136        0.801      214.546       32.158        0.022      339.622       13.079      857.060
11/02/2013  21:01:00     -318.958      -63.078      -32.070      132.337       90.042       47.361    17513.032     8107.506     2243.017        6.730        1.393      325.136       36.986        0.013      339.631       13.093      857.067
11/02/2013  21:02:00     -394.281      -36.522      -25.793      156.554      110.823       77.352    24509.036    12281.818     5983.371       10.011        2.139      395.969       88.283        0.050      339.617       13.069      857.104
11/02/2013  21:03:00     -384.931       -0.968      -49.518      149.840       79.203       59.687    22452.108     6273.051     3562.550        9.145        1.614      384.932       69.316        0.032      339.653       13.131      857.120
11/02/2013  21:04:00     -138.110      -28.711      -16.597       63.292       72.048       41.199     4005.868     5190.922     1697.395        1.553        0.545      141.062       24.738        0.031      339.605       13.052      857.142
11/02/2013  21:05:00     -190.993       42.365      -26.711       96.217       88.711       32.828     9257.633     7869.730     1077.658        2.859        0.910      195.635       22.362        0.013      339.617       13.071      857.139
11/02/2013  21:06:00     -297.014      -74.471      -12.971       79.028      100.979       52.353     6245.389    10196.825     2740.878        5.655        0.959      306.208       25.785        0.007      339.574       12.998      857.130
11/02/2013  21:07:00     -263.734     -103.397      -19.290      129.142      102.695       61.362    16677.635    10546.288     3765.270        5.580        1.549      283.278       51.589        0.033      339.579       13.007      857.122
11/02/2013  21:08:00     -257.502      -47.317      -16.175      137.875      100.348       63.612    19009.382    10069.776     4046.480        5.096        1.656      261.813       60.450        0.053      339.579       13.005      857.132
11/02/2013  21:09:00     -237.420      -45.029      -18.535      109.433       74.346       50.073    11975.667     5527.255     2507.329        3.937        1.001      241.652       41.412        0.029      339.561       12.977      857.145
11/02/2013  21:10:00     -151.576       20.487       -2.365       60.281       66.825       42.377     3633.751     4465.631     1795.774        1.665        0.495      152.954       36.331        0.056      339.544       12.950      857.145
11/02/2013  21:11:00     -183.586       37.929      -26.955       77.764       73.332       37.833     6047.194     5377.517     1431.300        2.436        0.643      187.463       26.482        0.020      339.607       13.055      857.158
11/02/2013  21:12:00     -100.675       66.075       -6.397       70.176       61.456       33.648     4924.699     3776.860     1132.204        1.219        0.492      120.421       32.136        0.071      339.576       13.003      857.157
11/02/2013  21:13:00     -165.890       54.499      -20.874       55.993       54.444       37.551     3135.235     2964.202     1410.102        1.922        0.375      174.613       32.152        0.034      339.555       12.968      857.131
11/02/2013  21:14:00      -91.307      113.811      -14.183       71.396       76.272       40.671     5097.371     5817.420     1654.124        1.703        0.628      145.910       36.424        0.062      339.552       12.961      857.097
11/02/2013  21:15:00      -69.533       10.567        9.639       54.703       82.031       30.419     2992.421     6729.137      925.299        0.784        0.532       70.331       32.469        0.213      339.558       12.974      857.060
11/02/2013  21:16:00      -58.883       76.310      -20.948       68.365       57.129       41.946     4673.822     3263.694     1759.471        0.971        0.485       96.387       36.310        0.142      339.568       12.990      857.045
11/02/2013  21:17:00     -240.696        9.910      -15.811      104.574       82.119       44.723    10935.649     6743.579     2000.183        3.898        0.984      240.900       53.772        0.050      339.540       12.941      857.023
11/02/2013  21:18:00     -117.846       -9.964       -7.774       50.548       58.918       29.263     2555.079     3471.375      856.337        1.046        0.344      118.267       22.356        0.036      339.486       12.850      857.052
11/02/2013  21:19:00      -92.893      -22.064       -0.951       50.041       53.153       41.757     2504.075     2825.264     1743.638        0.809        0.354       95.478       34.581        0.131      339.479       12.838      857.068
11/02/2013  21:20:00     -122.280      -46.617       -0.353       66.463       44.118       27.025     4417.281     1946.366      730.370        1.211        0.355      130.865       30.272        0.054      339.472       12.828      857.091
11/02/2013  21:21:00      -12.964       23.232        1.940       44.110       37.800       22.984     1945.686     1428.845      528.254        0.231        0.195       26.604       20.135        0.573      339.449       12.789      857.094
11/02/2013  21:22:00      -94.896      -32.193        3.032       56.694       39.646       25.668     3214.266     1571.813      658.852        0.775        0.272      100.208       26.544        0.070      339.455       12.798      857.134
11/02/2013  21:23:00     -115.608      -16.630      -11.976       50.481       51.200       29.449     2548.328     2621.472      867.267        0.991        0.302      116.798       25.397        0.047      339.467       12.820      857.183
11/02/2013  21:24:00     -146.302       76.184      -26.534       49.167       73.330       30.012     2417.395     5377.245      900.705        1.830        0.435      164.950       31.455        0.036      339.419       12.738      857.206
11/02/2013  21:25:00     -169.535       -1.159      -20.464       71.858       54.922       27.786     5163.606     3016.430      772.050        1.906        0.448      169.539       25.053        0.022      339.421       12.741      857.177
11/02/2013  21:26:00     -150.060      -39.624       -5.806       59.950       40.809       34.208     3593.997     1665.348     1170.196        1.527        0.321      155.204       31.932        0.042      339.361       12.642      857.224
11/02/2013  21:27:00     -209.054      -59.695       -7.154      137.427       98.783       55.689    18886.266     9758.037     3101.224        3.953        1.587      217.410       54.703        0.063      339.350       12.621      857.237
11/02/2013  21:28:00     -143.431      -19.543      -17.056       98.059       62.707       40.716     9615.520     3932.183     1657.795        1.822        0.760      144.756       43.417        0.090      339.299       12.533      857.236
11/02/2013  21:29:00     -116.039        5.358      -19.206       51.526       57.191       43.972     2654.950     3270.791     1933.539        1.086        0.393      116.163       37.192        0.103      339.306       12.548      857.252
11/02/2013  21:30:00      -99.561       52.727      -12.606       45.335       66.600       36.237     2055.234     4435.516     1313.113        1.033        0.390      112.662       25.294        0.050      339.331       12.590      857.246
11/02/2013  21:31:00      -76.007       22.889        0.636       72.990       70.678       37.188     5327.500     4995.315     1382.915        0.900        0.585       79.379       38.090        0.230      339.348       12.619      857.254
11/02/2013  21:32:00     -166.415      -30.132      -13.893       72.151       80.513       41.145     5205.786     6482.326     1692.883        2.109        0.669      169.121       34.966        0.043      339.323       12.575      857.288
11/02/2013  21:33:00      -67.911       63.531       -4.723       51.569       67.313       36.677     2659.361     4531.084     1345.194        0.860        0.427       92.995       27.555        0.088      339.310       12.556      857.310
11/02/2013  21:34:00     -105.432       63.330       -8.614       76.684       84.831       47.868     5880.437     7196.355     2291.342        1.528        0.768      122.990       46.971        0.146      339.330       12.589      857.345
11/02/2013  21:35:00     -215.128       24.170      -34.210       76.867       75.574       31.665     5908.469     5711.365     1002.700        3.033        0.631      216.481       28.606        0.017      339.439       12.769      857.320
11/02/2013  21:36:00     -220.001       -7.750      -24.879       73.396       84.253       38.228     5387.012     7098.499     1461.370        3.151        0.697      220.138       36.264        0.027      339.369       12.652      857.326
11/02/2013  21:37:00     -142.612      -16.175      -13.316       86.389       59.495       39.633     7463.051     3539.634     1570.761        1.667        0.629      143.527       45.073        0.099      339.280       12.504      857.350
11/02/2013  21:38:00     -190.929       -9.726      -24.518       87.966       61.671       32.654     7737.992     3803.286     1066.260        2.488        0.630      191.176       34.603        0.033      339.292       12.521      857.337
11/02/2013  21:39:00     -161.330       49.004      -25.190       58.597       39.602       36.666     3433.572     1568.326     1344.377        1.770        0.317      168.608       30.877        0.034      339.240       12.437      857.315
11/02/2013  21:40:00      -89.527       -9.044      -10.321       34.745       50.071       25.656     1207.247     2507.114      658.231        0.629        0.219       89.982       17.785        0.039      339.239       12.434      857.294
11/02/2013  21:41:00      -97.159       65.784      -16.100       37.201       41.651       21.128     1383.895     1734.808      446.413        0.880        0.178      117.335       19.187        0.027      339.281       12.506      857.298
11/02/2013  21:42:00     -104.194      -11.005       -8.928       34.222       74.403       27.983     1171.131     5535.843      783.032        0.927        0.375      104.774       13.114        0.016      339.252       12.458      857.306
11/02/2013  21:43:00      -96.594       81.199      -21.913       66.756       77.011       39.509     4456.413     5930.621     1560.944        1.417        0.597      126.189       38.897        0.095      339.269       12.486      857.286
11/02/2013  21:44:00     -142.389       45.303       -8.501       71.677       65.141       43.418     5137.563     4243.367     1885.085        1.683        0.563      149.422       46.234        0.096      339.236       12.431      857.259
11/02/2013  21:45:00      -51.851       10.570      -15.445       34.128       37.711       26.945     1164.732     1422.127      726.024        0.318        0.166       52.917       18.144        0.118      339.254       12.462      857.241
11/02/2013  21:46:00      -77.928       37.399      -19.715       60.000       61.707       41.700     3600.029     3807.715     1738.867        0.850        0.457       86.438       36.578        0.179      339.234       12.428      857.208
11/02/2013  21:47:00      -13.639        4.866       10.236       37.116       28.995       21.218     1377.605      840.716      450.224        0.149        0.133       14.481       23.183        2.563      339.165       12.311      857.175
11/02/2013  21:48:00      -74.044       92.346      -25.159       62.807       81.332       34.532     3944.762     6614.964     1192.434        1.320        0.588      118.366       45.405        0.147      339.276       12.497      857.141
11/02/2013  21:49:00      -50.195      102.570      -22.036       45.026       43.234       20.313     2027.327     1869.178      412.614        0.892        0.215      114.193       21.648        0.036      339.320       12.573      857.100
11/02/2013  21:50:00      -33.192      112.659      -10.439       69.035       63.304       43.255     4765.797     4007.419     1870.990        1.227        0.532      117.447       49.018        0.174      339.308       12.552      857.068
11/02/2013  21:51:00     -108.969      248.956      -26.708       75.975      112.549       48.353     5772.199    12667.380     2337.966        4.767        1.039      271.759       48.284        0.032      339.339       12.602      857.065
11/02/2013  21:52:00      -42.482      182.454      -22.804       55.792       69.867       36.226     3112.702     4881.360     1312.351        2.246        0.465      187.334       31.735        0.029      339.318       12.567      857.075
11/02/2013  21:53:00      -58.215      210.575      -18.005       68.540      122.499       38.550     4697.765    15005.947     1486.109        3.462        1.059      218.473       40.528        0.034      339.308       12.550      857.093
11/02/2013  21:54:00     -113.586       72.410      -22.235       89.280      105.576       40.030     7970.856    11146.293     1602.409        1.968        1.036      134.703       51.059        0.144      339.292       12.523      857.117
11/02/2013  21:55:00     -156.278      166.296      -35.160       73.632       87.716       40.642     5421.602     7694.077     1651.759        3.404        0.738      228.204       41.498        0.033      339.305       12.543      857.102
11/02/2013  21:56:00      -41.836      128.385       -6.230       45.766       54.698       26.450     2094.563     2991.893      699.609        1.203        0.289      135.029       25.428        0.035      339.276       12.499      857.066
11/02/2013  21:57:00      -80.577      138.657      -15.374       48.626       43.982       33.015     2364.518     1934.421     1089.964        1.567        0.269      160.370       26.452        0.027      339.279       12.503      857.049
11/02/2013  21:58:00     -114.704      157.741      -31.060       64.095       60.700       38.776     4108.201     3684.503     1503.605        2.415        0.465      195.037       30.598        0.025      339.286       12.512      857.061
11/02/2013  21:59:00     -135.033       37.606      -12.014       51.820       69.397       22.242     2685.362     4815.921      494.716        1.389        0.400      140.172       14.137        0.010      339.235       12.427      857.086
11/02/2013  22:00:00     -102.365       69.597      -11.660       49.715       58.552       29.994     2471.552     3428.324      899.616        1.113        0.340      123.784       24.298        0.039      339.191       12.356      857.099
11/02/2013  22:01:00     -152.683      210.702      -47.308      117.581       88.518       55.018    13825.305     7835.493     3026.929        4.731        1.234      260.207       66.025        0.064      339.275       12.493      857.125
11/02/2013  22:02:00      -90.951       89.497       -3.536       56.849       69.241       42.173     3231.859     4794.337     1778.532        1.305        0.490      127.601       34.768        0.074      339.240       12.436      857.162
11/02/2013  22:03:00     -121.135      162.879      -27.251       60.574       51.217       33.783     3669.199     2623.148     1141.290        2.469        0.372      202.986       28.213        0.019      339.232       12.422      857.243
11/02/2013  22:04:00     -180.793      206.337      -49.350       65.285       69.122       43.032     4262.071     4777.866     1851.739        4.429        0.545      274.338       40.948        0.022      339.193       12.356      857.350
11/02/2013  22:05:00     -127.189      200.643      -24.308       76.362       85.089       52.591     5831.204     7240.123     2765.789        3.643        0.792      237.560       55.542        0.055      339.155       12.291      857.488
11/02/2013  22:06:00     -137.233      193.569      -28.976       88.367       80.467       55.978     7808.808     6474.934     3133.493        3.728        0.871      237.280       52.151        0.048      339.140       12.266      857.582
11/02/2013  22:07:00      -86.284      173.122      -11.517       74.939       83.800       46.146     5615.786     7022.396     2129.456        2.616        0.738      193.432       48.938        0.064      339.125       12.241      857.652
11/02/2013  22:08:00      -58.016      186.855       -0.726       93.537      104.823       53.402     8749.077    10987.855     2851.821        3.043        1.129      195.655       54.246        0.077      339.111       12.218      857.666
11/02/2013  22:09:00      -89.704      155.433      -14.058       95.537       96.162       49.137     9127.382     9247.172     2414.405        2.659        1.039      179.461       54.049        0.091      339.102       12.203      857.644
11/02/2013  22:10:00      -65.819      171.422        4.852       67.765       95.471       52.110     4592.095     9114.701     2715.401        2.508        0.821      183.623       44.517        0.059      339.062       12.136      857.613
11/02/2013  22:11:00      -68.615      151.187      -16.379       61.562       68.930       30.471     3789.917     4751.328      928.484        1.865        0.473      166.029       32.224        0.038      339.078       12.163      857.572
11/02/2013  22:12:00     -103.103       78.313      -12.456       75.894       50.150       32.897     5759.929     2515.003     1082.241        1.314        0.468      129.473       29.979        0.054      339.088       12.181      857.558
11/02/2013  22:13:00      -23.003       41.451        0.957       39.186       49.496       27.824     1535.540     2449.812      774.196        0.350        0.238       47.406       19.868        0.176      339.064       12.143      857.528
11/02/2013  22:14:00      -91.327      112.672      -28.685       44.433       43.137       33.167     1974.293     1860.798     1100.018        1.340        0.247      145.037       21.324        0.022      339.068       12.147      857.514
11/02/2013  22:15:00      -29.865       88.245       -9.117       54.617       34.388       28.555     2983.002     1182.567      815.398        0.687        0.249       93.161       19.378        0.043      339.046       12.110      857.503
11/02/2013  22:16:00      -46.161      162.025      -20.284       45.918       80.600       36.039     2108.449     6496.327     1298.837        1.935        0.495      168.472       37.790        0.050      339.069       12.148      857.507
11/02/2013  22:17:00      -71.249       84.002       -0.771       57.715       62.715       33.923     3331.025     3933.138     1150.795        1.027        0.421      110.149       32.572        0.087      339.013       12.056      857.539
11/02/2013  22:18:00     -103.094      142.757      -25.320       41.209       68.833       25.576     1698.153     4737.942      654.132        1.937        0.355      176.091       29.499        0.028      339.013       12.054      857.576
11/02/2013  22:19:00      -62.653      143.254      -21.726       53.340       61.502       31.724     2845.108     3782.454     1006.403        1.628        0.382      156.356       35.939        0.053      339.075       12.161      857.575
11/02/2013  22:20:00      -68.933      101.260       -5.218       69.798       84.207       41.583     4871.793     7090.742     1729.186        1.436        0.685      122.496       44.179        0.130      338.992       12.021      857.576
11/02/2013  22:21:00      -65.205      194.709      -29.343       41.661       60.551       30.985     1735.617     3666.484      960.087        2.469        0.318      205.337       20.967        0.010      339.002       12.036      857.570
11/02/2013  22:22:00      -13.865      133.049      -15.256       85.709       71.392       57.804     7346.054     5096.854     3341.289        1.695        0.789      133.770       40.343        0.091      338.976       11.993      857.552
11/02/2013  22:23:00       35.837      136.949        1.751       58.246       97.581       57.784     3392.580     9522.114     3339.044        1.815        0.813      141.560       60.132        0.180      338.921       11.900      857.548
11/02/2013  22:24:00      -15.313      190.406      -24.590       50.127       94.770       40.726     2512.726     8981.340     1658.604        2.512        0.658      191.021       51.236        0.072      338.931       11.916      857.560
11/02/2013  22:25:00       -4.865      118.483      -17.051       28.236       46.612       22.318      797.250     2172.674      498.094        0.891        0.173      118.583       21.277        0.032      338.877       11.827      857.580
11/02/2013  22:26:00       37.190      104.076       -4.734       65.470       73.585       36.591     4286.297     5414.741     1338.910        1.164        0.552      110.521       42.165        0.146      338.893       11.853      857.581
11/02/2013  22:27:00       23.456      137.590      -10.052       58.407      115.575       42.790     3411.389    13357.694     1830.999        1.909        0.930      139.575       52.564        0.142      338.874       11.821      857.584
11/02/2013  22:28:00       14.495      169.104      -21.239       33.875       66.701       40.753     1147.537     4449.045     1660.773        1.826        0.363      169.724       32.515        0.037      338.866       11.809      857.594
11/02/2013  22:29:00      -28.470      117.717      -15.067       36.239       31.515       25.670     1313.278      993.177      658.926        0.893        0.148      121.111       18.108        0.022      338.894       11.855      857.594
11/02/2013  22:30:00       -1.347       94.482       -8.090       42.380       55.566       28.100     1796.081     3087.567      789.609        0.733        0.284       94.491       10.745        0.013      338.908       11.877      857.581
11/02/2013  22:31:00       -2.634       30.257       19.568       23.258       28.998       19.181      540.938      840.895      367.901        0.153        0.087       30.371       15.032        0.245      338.871       11.816      857.556
11/02/2013  22:32:00      -61.697       35.047       -9.392       30.314       19.299       18.246      918.950      372.437      332.906        0.337        0.081       70.956       15.857        0.050      338.866       11.808      857.529
11/02/2013  22:33:00       42.659       17.711       16.409       48.559       23.855       22.844     2357.967      569.064      521.840        0.293        0.172       46.190       13.390        0.084      338.851       11.782      857.510
11/02/2013  22:34:00       21.635       52.316       43.980       39.553       39.718       32.207     1564.463     1577.500     1037.310        0.466        0.209       56.613       14.628        0.067      338.848       11.778      857.475
11/02/2013  22:35:00      -11.512       64.395       -5.440       37.299       32.351       32.067     1391.233     1046.605     1028.263        0.389        0.173       65.416       22.296        0.116      338.806       11.707      857.483
11/02/2013  22:36:00        9.966       81.081       -9.007       34.443       40.313       26.265     1186.327     1625.154      689.872        0.513        0.175       81.691       19.117        0.055      338.764       11.638      857.510
11/02/2013  22:37:00       -0.481       53.150      -13.002       27.852       29.854       13.808      775.751      891.245      190.650        0.243        0.093       53.152       12.791        0.058      338.780       11.664      857.560
11/02/2013  22:38:00      -69.791      105.116      -17.094       46.981       45.958       18.645     2207.216     2112.149      347.644        1.044        0.233      126.175       14.201        0.013      338.825       11.739      857.611
11/02/2013  22:39:00     -101.553       83.650      -21.896       65.743       46.615       32.040     4322.082     2173.002     1026.552        1.265        0.376      131.569       37.899        0.083      338.914       11.888      857.640
11/02/2013  22:40:00      -50.395        9.518        3.015       50.427       53.087       25.963     2542.925     2818.185      674.063        0.434        0.302       51.286       30.170        0.346      338.868       11.812      857.667
11/02/2013  22:41:00      -87.005      120.738      -18.761       51.996       74.380       37.789     2703.562     5532.361     1428.009        1.608        0.483      148.821       22.999        0.024      338.902       11.869      857.706
11/02/2013  22:42:00     -110.190      188.523      -26.300       73.687       87.433       51.063     5429.730     7644.541     2607.480        3.203        0.784      218.363       39.987        0.034      338.725       11.568      857.741
11/02/2013  22:43:00     -174.650      204.037      -43.181       88.986      126.710       61.328     7918.474    16055.545     3761.120        5.086        1.387      268.577       63.529        0.056      338.441       11.090      857.768
11/02/2013  22:44:00     -141.498      137.701      -33.453       94.183       73.978       52.696     8870.412     5472.798     2776.831        2.861        0.856      197.441       49.395        0.063      338.355       10.948      857.789
11/02/2013  22:45:00     -145.382      180.128      -28.047       91.333      102.835       47.098     8341.734    10575.092     2218.210        3.775        1.057      231.478       47.447        0.042      338.180       10.654      857.800
11/02/2013  22:46:00     -170.570      204.853      -37.819       93.647      112.943       54.705     8769.838    12756.022     2992.605        4.850        1.226      266.568       60.623        0.052      338.075       10.479      857.809
11/02/2013  22:47:00     -102.077       81.861      -23.623       68.479       84.367       37.185     4689.311     7117.795     1382.697        1.543        0.659      130.847       18.749        0.021      338.108       10.535      857.787
11/02/2013  22:48:00     -107.249      266.149      -25.333      102.185      127.671       57.808    10441.810    16299.859     3341.727        5.653        1.504      286.946       63.790        0.049      337.993       10.341      857.777
11/02/2013  22:49:00     -117.381      222.695      -20.045       77.332      121.060       58.269     5980.315    14655.443     3395.315        4.390        1.202      251.736       58.477        0.054      337.984       10.325      857.759
11/02/2013  22:50:00     -110.498      138.079      -21.616      102.014       82.338       50.177    10406.901     6779.587     2517.691        2.572        0.985      176.849       58.999        0.111      337.957       10.280      857.756
11/02/2013  22:51:00     -132.183      146.325      -26.427      123.858       96.924       54.747    15340.886     9394.208     2997.277        3.365        1.387      197.188       71.441        0.131      337.957       10.280      857.769
11/02/2013  22:52:00      -79.104       60.816        5.052       61.379       63.490       36.594     3767.406     4031.043     1339.103        0.956        0.457       99.780       22.593        0.051      337.921       10.222      857.774
11/02/2013  22:53:00      -41.200       36.062        2.341       57.949       77.600       36.952     3358.073     6021.805     1365.482        0.687        0.537       54.753       25.542        0.218      337.923       10.224      857.774
11/02/2013  22:54:00      -86.579       77.211      -19.041       79.736       69.868       45.987     6357.809     4881.588     2114.819        1.358        0.668      116.007       46.736        0.162      337.879       10.151      857.765
11/02/2013  22:55:00     -131.329      103.953      -29.854       86.872      115.653       46.377     7546.819    13375.730     2150.863        2.601        1.154      167.492       65.412        0.153      337.854       10.108      857.750
11/02/2013  22:56:00      -67.076      138.084      -24.345       69.694       73.071       41.335     4857.302     5339.328     1708.614        1.803        0.595      153.514       34.623        0.051      337.835       10.077      857.788
11/02/2013  22:57:00     -156.533       53.364      -18.444       89.283       91.841       44.037     7971.445     8434.838     1939.280        2.301        0.917      165.379       32.829        0.039      337.821       10.052      857.848
11/02/2013  22:58:00     -131.092       13.402      -11.394       80.917       82.801       51.714     6547.486     6856.006     2674.345        1.678        0.804      131.775       51.927        0.155      337.797       10.012      857.919
11/02/2013  22:59:00     -151.225      163.876      -30.636      145.964      115.890       64.828    21305.424    13430.401     4202.734        4.479        1.947      222.989       58.192        0.068      337.715        9.874      857.937
11/02/2013  23:00:00      -58.784      257.253      -17.441       75.740       94.998       59.338     5736.481     9024.600     3520.963        4.411        0.914      263.884       55.933        0.045      337.732        9.901      857.886
11/02/2013  23:01:00     -170.399      251.716      -48.746      122.631      111.767       59.335    15038.457    12491.817     3520.608        6.291        1.553      303.968       76.973        0.064      337.701        9.850      857.874
11/02/2013  23:02:00     -136.540      379.150      -43.705      107.706      116.469       61.821    11600.676    13565.080     3821.859        9.664        1.449      402.987       54.936        0.019      337.641        9.750      857.889
11/02/2013  23:03:00     -154.080      239.961      -33.643      105.396      123.925       64.534    11108.364    15357.312     4164.691        5.654        1.532      285.170       71.454        0.063      337.640        9.748      857.909
11/02/2013  23:04:00     -167.175      143.601      -23.223       83.261       96.027       50.785     6932.341     9221.271     2579.135        3.392        0.937      220.383       45.236        0.042      337.587        9.659      857.926
11/02/2013  23:05:00     -113.582      230.447      -35.278       92.779       97.450       51.043     8607.999     9496.438     2605.360        4.398        1.035      256.918       53.537        0.043      337.519        9.545      857.914
11/02/2013  23:06:00     -105.893      216.578      -35.420       78.891      137.098       46.218     6223.743    18795.926     2136.129        4.326        1.358      241.079       51.241        0.045      337.532        9.568      857.939
11/02/2013  23:07:00      -89.604      144.024      -15.509       87.901       87.724       51.668     7726.592     7695.466     2669.576        2.355        0.905      169.622       53.368        0.099      337.565        9.623      857.969
11/02/2013  23:08:00     -134.977      333.427      -38.868       98.917      153.632       69.927     9784.545    23602.653     4889.750        8.458        1.914      359.712       76.070        0.045      337.432        9.398      857.978
11/02/2013  23:09:00     -161.204      266.921      -42.327      110.927       92.479       60.273    12304.907     8552.369     3632.788        6.175        1.225      311.823       60.419        0.038      337.400        9.344      857.942
11/02/2013  23:10:00      -35.275      255.217      -17.672       84.581      127.206       61.409     7153.951    16181.479     3771.009        4.689        1.355      257.643       68.762        0.071      337.385        9.321      857.887
11/02/2013  23:11:00      -45.064      345.124      -36.332       72.748      128.156       49.410     5292.211    16424.049     2441.310        7.331        1.208      348.054       52.286        0.023      337.315        9.203      857.877
11/02/2013  23:12:00     -146.320      453.732      -41.310      126.891      131.152       72.704    16101.267    17200.824     5285.826       13.378        1.929      476.741       70.448        0.022      337.241        9.080      857.868
11/02/2013  23:13:00     -129.576      434.816      -31.036      106.025      173.304       82.831    11241.248    30034.363     6861.040       12.747        2.407      453.713       84.098        0.034      337.223        9.050      857.912
11/02/2013  23:14:00     -160.180      276.031      -34.354       94.486      170.390       57.974     8927.609    29032.636     3361.020        7.217        2.066      319.141       66.661        0.044      337.239        9.077      857.950
11/02/2013  23:15:00     -176.355      270.026      -45.149      129.783      154.643       69.130    16843.726    23914.555     4779.013        7.579        2.277      322.514       63.517        0.039      337.202        9.014      857.990
11/02/2013  23:16:00     -120.881      251.534      -23.664       94.638      164.650       69.564     8956.419    27109.713     4839.134        5.967        2.045      279.073       73.164        0.069      337.194        9.002      858.030
11/02/2013  23:17:00      -95.305      371.760      -35.600       86.649      119.059       68.290     7508.077    14175.129     4663.544        8.745        1.317      383.782       62.832        0.027      337.105        8.850      858.001
11/02/2013  23:18:00     -134.476      272.933      -31.724      109.558      145.367       66.316    12002.998    21131.504     4397.777        6.555        1.877      304.263       82.074        0.073      337.087        8.821      857.976
11/02/2013  23:19:00     -203.855      225.714      -45.752      137.120      204.311       70.938    18801.967    41743.111     5032.255        8.008        3.279      304.144       43.062        0.020      337.066        8.785      857.997
11/02/2013  23:20:00     -174.086      299.808      -45.983      126.910      179.164       77.774    16106.128    32099.774     6048.719        8.827        2.713      346.685       83.169        0.058      337.031        8.726      858.013
11/02/2013  23:21:00     -112.485      227.656      -25.882       86.614       86.038       53.550     7502.069     7402.585     2867.610        4.146        0.889      253.930       52.051        0.042      337.011        8.692      858.020
11/02/2013  23:22:00     -146.936      209.259      -40.193       85.596       85.517       48.443     7326.608     7313.150     2346.692        4.199        0.849      255.694       54.076        0.045      337.013        8.697      857.999
11/02/2013  23:23:00     -136.740      205.415      -40.546      113.262      103.639       53.902    12828.255    10741.033     2905.431        4.450        1.324      246.765       56.956        0.053      336.964        8.615      857.972
11/02/2013  23:24:00     -185.482      380.765      -46.189      131.036      173.806       81.257    17170.458    30208.364     6602.660       11.774        2.699      423.540       94.241        0.050      336.894        8.498      857.953
11/02/2013  23:25:00     -182.023      350.313      -60.866      111.085      128.027       62.471    12339.896    16390.886     3902.630        9.609        1.632      394.780       63.484        0.026      336.868        8.457      857.962
11/02/2013  23:26:00     -200.025      239.240      -34.431      125.605      135.304       70.738    15776.567    18307.121     5003.922        6.875        1.954      311.842       64.903        0.043      336.863        8.445      858.003
11/02/2013  23:27:00     -214.703      252.448      -61.367      108.185       90.730       55.211    11704.042     8231.901     3048.219        6.828        1.149      331.402       59.211        0.032      336.838        8.405      858.016
11/02/2013  23:28:00     -173.264      262.992      -38.787       98.875       90.329       57.102     9776.206     8159.249     3260.602        6.094        1.060      314.937       52.286        0.028      336.827        8.385      858.034
11/02/2013  23:29:00      -85.167      168.087       -4.360       92.677      101.859       54.399     8588.936    10375.329     2959.223        2.872        1.096      188.432       54.970        0.085      336.850        8.427      858.065
11/02/2013  23:30:00      -84.216      192.323      -22.030       52.934       94.750       35.401     2802.006     8977.510     1253.207        2.880        0.652      209.953       30.061        0.021      336.850        8.425      858.110
11/02/2013  23:31:00     -115.616      131.275      -15.466      106.013      120.760       59.616    11238.729    14582.981     3554.078        3.010        1.469      174.929       68.414        0.153      336.856        8.436      858.136
11/02/2013  23:32:00      -98.407      284.355      -27.517       95.609      166.090       71.312     9141.145    27585.906     5085.423        6.655        2.091      300.901       88.789        0.087      336.789        8.323      858.149
11/02/2013  23:33:00     -155.702      221.274      -34.937      107.950      119.056       59.298    11653.283    14174.362     3516.219        5.188        1.467      270.565       47.704        0.031      336.769        8.291      858.148
11/02/2013  23:34:00     -151.788      386.911      -50.790      118.022      176.376       86.789    13929.179    31108.378     7532.392       11.394        2.628      415.620       89.822        0.047      336.684        8.150      858.114
11/02/2013  23:35:00     -198.672      209.297      -45.316      117.846      122.838       67.270    13887.694    15089.069     4525.315        5.941        1.675      288.576       69.677        0.058      336.709        8.191      858.120
11/02/2013  23:36:00     -169.250      248.940      -19.322      173.210      182.387       81.333    30001.829    33265.083     6615.128        8.042        3.494      301.026      101.647        0.114      336.663        8.115      858.143
11/02/2013  23:37:00     -133.897      364.827      -24.336      103.240      162.570       62.439    10658.543    26429.018     3898.680        9.630        2.049      388.622       76.413        0.039      336.648        8.090      858.113
11/02/2013  23:38:00     -217.935      290.537      -55.366      129.478      128.314       69.333    16764.485    16464.380     4807.037        8.650        1.902      363.190       76.200        0.044      336.622        8.045      858.158
11/02/2013  23:39:00     -120.267      337.860      -33.328      123.956      158.861       83.236    15365.179    25236.779     6928.170        8.862        2.377      358.628       90.612        0.064      336.609        8.024      858.177
11/02/2013  23:40:00     -225.164      169.219      -33.270      108.947      149.424       70.706    11869.343    22327.642     4999.276        5.981        1.960      281.662       78.262        0.077      336.592        7.997      858.209
11/02/2013  23:41:00     -147.929      267.401      -39.743      112.911      102.247       70.040    12748.907    10454.520     4905.558        6.153        1.405      305.591       72.119        0.056      336.589        7.992      858.229
11/02/2013  23:42:00      -96.672      168.744       -7.309       74.904      102.460       55.174     5610.671    10498.152     3044.172        2.851        0.958      194.474       48.978        0.063      336.618        8.039      858.218
11/02/2013  23:43:00      -43.504      173.880      -22.190       75.637       88.430       45.384     5720.953     7819.947     2059.691        2.411        0.780      179.240       33.429        0.035      336.572        7.965      858.233
11/02/2013  23:44:00     -125.424      310.022      -32.171      126.121      181.001       78.642    15906.462    32761.465     6184.626        8.386        2.743      334.432       92.811        0.077      336.530        7.890      858.234
11/02/2013  23:45:00     -125.522      145.004      -27.174      149.734      106.246       53.650    22420.416    11288.294     2878.331        3.705        1.829      191.787       48.376        0.064      336.506        7.852      858.246
11/02/2013  23:46:00     -192.929      259.675      -39.638      133.537      139.130       88.882    17832.071    19357.166     7899.970        7.565        2.254      323.501       91.351        0.080      336.459        7.770      858.251
11/02/2013  23:47:00     -141.186      231.891      -37.754       79.432       79.340       55.004     6309.463     6294.796     3025.479        4.538        0.781      271.490       50.563        0.035      336.476        7.798      858.241
11/02/2013  23:48:00     -103.985      179.802       -7.879      117.863      130.381       70.834    13891.706    16999.278     5017.474        3.955        1.795      207.705       84.625        0.166      336.498        7.838      858.212
11/02/2013  23:49:00     -117.227      347.262      -46.925      110.632      172.374       68.489    12239.400    29712.869     4690.732        9.158        2.332      366.515       87.032        0.056      336.469        7.788      858.205
11/02/2013  23:50:00     -131.405      390.724      -37.532      105.161      120.972       80.047    11058.782    14634.161     6407.482       10.172        1.605      412.229       70.020        0.029      336.462        7.776      858.192
11/02/2013  23:51:00     -147.239      199.023      -11.312      137.520      119.256       80.740    18911.777    14221.993     6518.954        5.053        1.983      247.567       82.509        0.111      336.501        7.842      858.204
11/02/2013  23:52:00      -58.907      134.133        2.876       88.920      137.495       53.874     7906.696    18904.832     2902.445        2.559        1.486      146.498       67.606        0.213      336.512        7.864      858.224
11/02/2013  23:53:00     -117.424      192.331      -21.475      117.397      125.535       58.045    13782.012    15759.050     3369.206        4.207        1.646      225.343       54.038        0.058      336.457        7.769      858.215
11/02/2013  23:54:00      -72.962      214.079      -13.121      143.655      151.956       73.256    20636.900    23090.479     5366.493        5.020        2.455      226.170       93.111        0.169      336.436        7.734      858.197
11/02/2013  23:55:00     -143.679      234.207      -18.792      159.367      150.142       91.796    25397.903    22542.767     8426.581        6.610        2.818      274.767       82.596        0.090      336.395        7.665      858.222
11/02/2013  23:56:00     -126.038      180.687      -28.119      127.235      130.958       65.641    16188.701    17150.033     4308.806        4.348        1.882      220.303       61.266        0.077      336.349        7.587      858.242
11/02/2013  23:57:00     -132.297      363.742      -34.346      124.612      155.490       76.915    15528.119    24177.215     5915.953        9.830        2.281      387.054       77.500        0.040      336.300        7.505      858.251
11/02/2013  23:58:00     -112.412      312.462      -20.677      122.775      124.153       75.479    15073.767    15414.014     5697.140        7.343        1.809      332.068       62.834        0.036      336.287        7.484      858.279
11/02/2013  23:59:00     -113.763      357.530      -43.717       90.105      130.161       62.044     8118.997    16941.791     3849.489        8.579        1.446      375.193       60.627        0.026      336.236        7.399      858.322
